[[{"header":{"parameterUnit":"m.s-1","parameterCategory":1,"la1":30.6,"la2":29.2853,"lo1":-89.7004,"lo2":-87.6739,"dy":0.0162,"dx":0.0183,"nx":112,"ny":82,"refTime":"2023-09-15T00:00:00:Z","depth":0,"parameterNumber":2,"parameterNumberName":"U-component_of_WINDS"},"data":[0.0,0.0,0.0,0.0,0.0,0.0,0.0,0.0,0.0,0.0,0.0,0.0,0.0,0.0,0.0,0.0,0.0,0.0,0.0,0.0,0.0,0.0,0.0,0.0,0.0,0.0,0.0,0.0,0.0,0.0,0.0,0.0,0.0,0.0,0.0,0.0,0.0,0.0,0.0,0.0,0.0,0.0,0.0,0.0,0.0,0.0,0.0,0.0,0.0,0.0,0.0,0.0,0.0,0.0,0.0,0.0,0.0,0.0,0.0,0.0,0.0,0.0,0.0,0.0,0.0,0.0,0.0,0.0,0.0,0.0,0.0,0.0,0.0,0.0,0.0,0.0,0.0,0.0,0.0,0.0,0.0,0.0,0.0,0.0,0.0,0.0,0.0,0.0,0.0,0.0,3.4468,3.8799,4.1809,4.3204,4.2543,4.3094,4.1442,3.6597,0.0,0.0,0.0,0.0,0.0,0.0,0.0,0.0,0.0,0.0,0.0,0.0,0.0,0.0,0.0,0.0,0.0,0.0,0.0,0.0,0.0,0.0,0.0,0.0,0.0,0.0,0.0,0.0,0.0,0.0,0.0,0.0,0.0,0.0,0.0,0.0,0.0,0.0,0.0,0.0,0.0,0.0,0.0,0.0,0.0,0.0,0.0,0.0,0.0,0.0,0.0,0.0,0.0,0.0,0.0,0.0,0.0,0.0,0.0,0.0,0.0,0.0,0.0,0.0,0.0,0.0,0.0,0.0,0.0,0.0,0.0,0.0,0.0,0.0,0.0,0.0,0.0,0.0,0.0,0.0,0.0,0.0,0.0,0.0,0.0,0.0,0.0,0.0,0.0,0.0,0.0,0.0,0.0,0.0,0.0,0.0,0.0,0.0,0.0,0.0,0.0,0.0,0.0,0.0,3.5716,4.1185,4.28,4.3424,4.3314,4.3424,4.1442,3.6597,0.0,0.0,0.0,0.0,0.0,0.0,0.0,0.0,0.0,0.0,0.0,0.0,0.0,0.0,0.0,0.0,0.0,0.0,0.0,0.0,0.0,0.0,0.0,0.0,0.0,0.0,0.0,0.0,0.0,0.0,0.0,0.0,0.0,0.0,0.0,0.0,0.0,0.0,0.0,0.0,0.0,0.0,0.0,0.0,0.0,0.0,0.0,0.0,0.0,0.0,0.0,0.0,0.0,0.0,0.0,0.0,0.0,0.0,0.0,0.0,0.0,0.0,0.0,0.0,0.0,0.0,0.0,0.0,0.0,0.0,0.0,0.0,0.0,0.0,0.0,0.0,0.0,0.0,0.0,0.0,0.0,0.0,0.0,0.0,0.0,0.0,0.0,0.0,0.0,0.0,0.0,0.0,0.0,0.0,0.0,0.0,0.0,0.0,0.0,0.0,0.0,0.0,0.0,3.5202,3.8909,4.1956,4.302,4.3497,4.3497,4.3497,4.1442,3.6597,3.6633,0.0,0.0,0.0,0.0,0.0,0.0,0.0,0.0,0.0,0.0,0.0,0.0,0.0,0.0,0.0,0.0,0.0,0.0,0.0,0.0,0.0,0.0,0.0,0.0,0.0,0.0,0.0,0.0,0.0,0.0,0.0,0.0,0.0,0.0,0.0,0.0,0.0,0.0,0.0,0.0,0.0,0.0,0.0,0.0,0.0,0.0,0.0,0.0,0.0,0.0,0.0,0.0,0.0,0.0,0.0,0.0,0.0,0.0,0.0,0.0,0.0,0.0,0.0,0.0,0.0,0.0,0.0,0.0,0.0,0.0,0.0,0.0,0.0,0.0,0.0,0.0,0.0,0.0,0.0,0.0,0.0,0.0,0.0,0.0,0.0,0.0,0.0,0.0,0.0,0.0,0.0,0.0,0.0,0.0,0.0,0.0,0.0,0.0,0.0,0.0,0.0,0.0,3.8212,4.1479,4.247,4.313,4.3497,4.3497,4.3497,4.1442,3.6597,3.6208,0.0,0.0,0.0,0.0,0.0,0.0,0.0,0.0,0.0,0.0,0.0,0.0,0.0,0.0,0.0,0.0,0.0,0.0,0.0,0.0,0.0,0.0,0.0,0.0,0.0,0.0,0.0,0.0,0.0,0.0,0.0,0.0,0.0,0.0,0.0,0.0,0.0,0.0,0.0,0.0,0.0,0.0,0.0,0.0,0.0,0.0,0.0,0.0,0.0,0.0,0.0,0.0,0.0,0.0,0.0,0.0,0.0,0.0,0.0,0.0,0.0,0.0,0.0,0.0,0.0,0.0,0.0,0.0,0.0,0.0,0.0,0.0,0.0,0.0,0.0,0.0,0.0,0.0,0.0,0.0,0.0,0.0,0.0,0.0,0.0,0.0,0.0,0.0,0.0,0.0,0.0,0.0,0.0,0.0,0.0,0.0,0.0,0.0,0.0,0.0,0.0,0.0,3.8542,4.1699,4.324,4.3461,4.3497,4.3497,4.3497,4.1442,3.6597,3.5964,0.0,0.0,0.0,0.0,0.0,0.0,0.0,0.0,0.0,0.0,0.0,0.0,0.0,0.0,0.0,0.0,0.0,0.0,0.0,0.0,0.0,0.0,0.0,0.0,0.0,0.0,0.0,0.0,0.0,0.0,0.0,0.0,0.0,0.0,0.0,0.0,0.0,0.0,0.0,0.0,0.0,0.0,0.0,0.0,0.0,0.0,0.0,0.0,0.0,0.0,0.0,0.0,0.0,0.0,0.0,0.0,0.0,0.0,0.0,0.0,0.0,0.0,0.0,0.0,0.0,0.0,0.0,0.0,0.0,0.0,0.0,0.0,0.0,0.0,0.0,0.0,0.0,0.0,0.0,0.0,0.0,0.0,0.0,0.0,0.0,0.0,0.0,0.0,0.0,0.0,0.0,0.0,0.0,0.0,0.0,0.0,0.0,0.0,0.0,0.0,0.0,0.0,3.9019,4.2286,0.0,4.3497,4.3497,4.3497,4.3497,4.1339,3.6255,0.0,0.0,0.0,0.0,0.0,0.0,0.0,0.0,0.0,0.0,0.0,0.0,0.0,0.0,0.0,0.0,0.0,0.0,0.0,0.0,0.0,0.0,0.0,0.0,0.0,0.0,0.0,0.0,0.0,0.0,0.0,0.0,0.0,0.0,0.0,0.0,0.0,0.0,0.0,0.0,0.0,0.0,0.0,0.0,0.0,0.0,0.0,0.0,0.0,0.0,0.0,0.0,0.0,0.0,0.0,0.0,0.0,0.0,0.0,0.0,0.0,0.0,0.0,0.0,0.0,0.0,0.0,0.0,0.0,0.0,0.0,0.0,0.0,0.0,0.0,0.0,0.0,0.0,0.0,0.0,0.0,0.0,0.0,0.0,0.0,0.0,0.0,0.0,0.0,0.0,0.0,0.0,0.0,0.0,0.0,0.0,0.0,0.0,0.0,0.0,0.0,0.0,3.5312,3.968,4.2873,0.0,4.3497,4.3497,4.3497,4.3497,4.1272,3.6032,0.0,0.0,0.0,0.0,0.0,0.0,0.0,0.0,0.0,0.0,0.0,0.0,0.0,0.0,0.0,0.0,0.0,0.0,0.0,0.0,0.0,0.0,0.0,0.0,0.0,0.0,0.0,0.0,0.0,0.0,0.0,0.0,0.0,0.0,0.0,0.0,0.0,0.0,0.0,0.0,0.0,0.0,0.0,0.0,0.0,0.0,0.0,0.0,0.0,0.0,0.0,0.0,0.0,0.0,0.0,0.0,0.0,0.0,0.0,0.0,0.0,0.0,0.0,0.0,0.0,0.0,0.0,0.0,0.0,0.0,0.0,0.0,0.0,0.0,0.0,0.0,0.0,0.0,0.0,0.0,0.0,0.0,0.0,0.0,0.0,0.0,0.0,0.0,0.0,0.0,0.0,0.0,0.0,0.0,0.0,0.0,0.0,0.0,0.0,0.0,0.0,0.0,3.6193,4.0487,4.3497,4.3497,4.3497,4.3497,4.3497,4.3497,4.1272,0.0,0.0,0.0,0.0,0.0,0.0,0.0,0.0,0.0,0.0,0.0,0.0,0.0,0.0,0.0,0.0,0.0,0.0,0.0,0.0,0.0,0.0,0.0,0.0,0.0,0.0,0.0,0.0,0.0,0.0,0.0,0.0,0.0,0.0,0.0,0.0,0.0,0.0,0.0,0.0,0.0,0.0,0.0,0.0,0.0,0.0,0.0,0.0,0.0,0.0,0.0,0.0,0.0,0.0,0.0,0.0,0.0,0.0,0.0,0.0,0.0,0.0,0.0,0.0,0.0,0.0,0.0,0.0,0.0,0.0,0.0,0.0,0.0,0.0,0.0,0.0,0.0,0.0,0.0,0.0,0.0,0.0,0.0,0.0,0.0,0.0,0.0,0.0,0.0,0.0,0.0,0.0,0.0,0.0,0.0,0.0,0.0,0.0,0.0,0.0,0.0,0.0,0.0,3.6266,4.0487,4.3497,4.3497,4.3497,4.3497,4.3497,4.3497,4.1389,3.6394,0.0,0.0,0.0,0.0,0.0,0.0,0.0,0.0,0.0,0.0,0.0,0.0,0.0,0.0,0.0,0.0,0.0,0.0,0.0,0.0,0.0,0.0,0.0,0.0,0.0,0.0,0.0,0.0,0.0,0.0,0.0,0.0,0.0,0.0,0.0,0.0,0.0,0.0,0.0,0.0,0.0,0.0,0.0,0.0,0.0,0.0,0.0,0.0,0.0,0.0,0.0,0.0,0.0,0.0,0.0,0.0,0.0,0.0,0.0,0.0,0.0,0.0,0.0,0.0,0.0,0.0,0.0,0.0,0.0,0.0,0.0,0.0,0.0,0.0,0.0,0.0,0.0,0.0,0.0,0.0,0.0,0.0,0.0,0.0,0.0,0.0,0.0,0.0,0.0,0.0,0.0,0.0,0.0,0.0,0.0,0.0,0.0,0.0,0.0,0.0,0.0,0.0,3.5789,4.0304,4.3497,4.3497,4.3791,4.3975,4.3975,4.4268,4.2486,3.7897,0.0,0.0,0.0,0.0,0.0,0.0,0.0,0.0,0.0,0.0,0.0,0.0,0.0,0.0,0.0,0.0,0.0,0.0,0.0,0.0,0.0,0.0,0.0,0.0,0.0,0.0,0.0,0.0,0.0,0.0,0.0,0.0,0.0,0.0,0.0,0.0,0.0,0.0,0.0,0.0,0.0,0.0,0.0,0.0,0.0,0.0,0.0,0.0,0.0,0.0,0.0,0.0,0.0,0.0,0.0,0.0,0.0,0.0,0.0,0.0,0.0,0.0,0.0,0.0,0.0,0.0,0.0,0.0,0.0,0.0,0.0,0.0,0.0,0.0,0.0,0.0,0.0,0.0,0.0,0.0,0.0,0.0,0.0,0.0,0.0,0.0,0.0,0.0,0.0,0.0,0.0,0.0,0.0,0.0,0.0,0.0,0.0,0.0,0.0,0.0,0.0,0.0,3.499,3.9974,4.3534,4.3608,4.4268,4.4745,4.4819,4.548,4.4198,4.0139,0.0,0.0,0.0,0.0,0.0,0.0,0.0,0.0,0.0,0.0,0.0,0.0,0.0,0.0,0.0,0.0,0.0,0.0,0.0,0.0,0.0,0.0,0.0,0.0,0.0,0.0,0.0,0.0,0.0,0.0,0.0,0.0,0.0,0.0,0.0,0.0,0.0,0.0,0.0,0.0,0.0,0.0,0.0,0.0,0.0,0.0,0.0,0.0,0.0,0.0,0.0,0.0,0.0,0.0,0.0,0.0,0.0,0.0,0.0,0.0,3.4321,0.0,0.0,0.0,0.0,0.0,0.0,0.0,0.0,0.0,0.0,0.0,0.0,0.0,0.0,0.0,0.0,0.0,0.0,0.0,0.0,0.0,0.0,0.0,0.0,0.0,0.0,0.0,0.0,0.0,0.0,0.0,0.0,0.0,0.0,0.0,0.0,0.0,0.0,0.0,0.0,0.0,3.499,3.9974,4.3718,4.4378,4.4599,4.4966,4.559,4.581,4.4634,4.1588,3.9494,0.0,0.0,0.0,0.0,0.0,0.0,0.0,0.0,0.0,0.0,0.0,0.0,0.0,0.0,0.0,0.0,0.0,0.0,0.0,0.0,0.0,0.0,0.0,0.0,0.0,0.0,0.0,0.0,0.0,0.0,0.0,0.0,0.0,0.0,0.0,0.0,0.0,0.0,0.0,0.0,0.0,0.0,0.0,0.0,0.0,0.0,0.0,0.0,0.0,0.0,0.0,0.0,0.0,0.0,0.0,0.0,0.0,0.0,0.0,0.0,3.6193,0.0,0.0,0.0,0.0,0.0,0.0,0.0,0.0,0.0,0.0,0.0,0.0,0.0,0.0,0.0,0.0,0.0,0.0,0.0,0.0,0.0,0.0,0.0,0.0,0.0,0.0,0.0,0.0,0.0,0.0,0.0,0.0,0.0,0.0,0.0,0.0,0.0,0.0,0.0,0.0,3.533,4.0793,4.4819,4.5223,4.5626,4.592,4.6057,4.6382,4.5616,4.323,4.1367,0.0,0.0,0.0,0.0,0.0,0.0,0.0,0.0,0.0,0.0,0.0,0.0,0.0,0.0,0.0,0.0,0.0,0.0,0.0,0.0,0.0,0.0,0.0,0.0,0.0,0.0,0.0,0.0,0.0,0.0,0.0,0.0,0.0,0.0,0.0,0.0,0.0,0.0,0.0,0.0,0.0,0.0,0.0,0.0,0.0,0.0,0.0,0.0,0.0,0.0,0.0,0.0,0.0,3.9659,4.0817,4.1431,4.2777,4.3397,4.3287,4.1649,4.0802,4.0414,3.8946,0.0,0.0,0.0,0.0,0.0,0.0,0.0,0.0,0.0,0.0,0.0,0.0,0.0,0.0,0.0,0.0,0.0,0.0,0.0,0.0,0.0,0.0,0.0,0.0,3.8799,3.9423,0.0,0.0,0.0,0.0,0.0,0.0,0.0,0.0,0.0,0.0,0.0,0.0,3.5634,4.1643,4.5957,4.6104,4.6616,4.6825,4.6452,4.6902,4.6488,4.4694,4.3325,4.1616,0.0,0.0,0.0,0.0,0.0,0.0,0.0,0.0,0.0,0.0,0.0,0.0,0.0,0.0,0.0,0.0,0.0,0.0,0.0,0.0,0.0,0.0,0.0,0.0,0.0,0.0,0.0,0.0,0.0,0.0,0.0,0.0,3.3634,3.551,0.0,0.0,0.0,0.0,0.0,0.0,0.0,0.0,0.0,0.0,0.0,0.0,0.0,3.4874,3.6219,3.8856,4.0896,4.2392,4.507,4.6671,4.7391,4.7603,4.7674,4.7603,4.6,0.0,4.2947,4.2029,0.0,0.0,0.0,0.0,0.0,0.0,0.0,0.0,0.0,0.0,0.0,0.0,0.0,0.0,0.0,0.0,0.0,0.0,0.0,0.0,0.0,0.0,4.3314,4.3534,4.3754,4.4048,0.0,3.957,3.5614,3.7661,3.6229,0.0,0.0,0.0,0.0,0.0,0.0,0.0,3.5675,4.1643,4.6177,4.6874,4.6561,4.6602,4.7168,4.6793,4.6222,4.5407,4.4574,4.3166,4.1018,4.1714,0.0,0.0,0.0,0.0,0.0,0.0,0.0,0.0,0.0,0.0,0.0,0.0,0.0,0.0,0.0,0.0,0.0,0.0,0.0,0.0,0.0,0.0,0.0,0.0,0.0,0.0,0.0,0.0,0.0,3.2986,3.537,3.6268,3.5638,3.4189,0.0,0.0,0.0,0.0,0.0,0.0,0.0,0.0,0.0,3.7319,3.8711,4.0083,4.1626,4.3664,4.5423,4.6895,4.8225,4.9468,5.0559,5.0982,5.1193,5.1123,5.0453,4.9203,4.7447,4.4795,4.2996,4.1699,0.0,0.0,0.0,0.0,3.6266,3.667,3.7477,3.8615,0.0,4.0194,0.0,0.0,0.0,0.0,0.0,0.0,0.0,0.0,0.0,0.0,4.4488,4.6287,4.7095,4.7535,4.7902,4.4709,4.1735,0.0,3.9195,3.6458,3.384,0.0,0.0,0.0,0.0,3.9361,3.9264,4.3602,4.6731,4.6722,4.6498,4.6326,4.6318,4.6063,4.5648,4.5035,4.4673,4.4121,4.3132,4.3403,4.226,0.0,0.0,0.0,0.0,0.0,0.0,0.0,0.0,0.0,0.0,0.0,0.0,0.0,0.0,0.0,0.0,0.0,0.0,0.0,0.0,0.0,0.0,0.0,0.0,0.0,0.0,0.0,0.0,3.4596,3.6615,3.6986,3.6706,3.5531,0.0,0.0,0.0,0.0,0.0,0.0,3.6672,3.7102,3.858,4.1393,4.358,4.5367,4.688,4.8129,4.9551,5.0941,5.1129,5.1845,5.3044,5.3602,5.3941,5.3941,5.3941,5.3124,5.156,4.8068,4.5988,4.4967,4.3941,4.2433,4.0818,4.0414,4.0524,4.0928,4.1515,4.28,4.4232,4.4599,4.3901,4.2837,4.2433,0.0,0.0,0.0,0.0,4.0818,4.3424,4.4599,4.5663,4.8049,4.9297,4.9884,4.9884,4.8367,4.657,0.0,4.2776,3.9946,3.7091,0.0,0.0,0.0,0.0,4.1895,4.1747,4.5114,4.7169,4.6495,4.6398,4.6175,4.558,4.5372,4.5089,4.4643,4.4587,4.4587,4.4587,4.4587,4.3946,4.2511,0.0,0.0,0.0,0.0,0.0,0.0,0.0,0.0,0.0,0.0,0.0,0.0,0.0,0.0,0.0,0.0,0.0,0.0,0.0,0.0,0.0,0.0,0.0,0.0,0.0,0.0,0.0,0.0,0.0,3.8238,4.0819,0.0,0.0,0.0,0.0,3.5497,3.6129,3.841,4.2555,4.2279,4.3844,4.8079,4.8532,4.9452,5.0909,5.1688,5.284,5.4364,5.433,5.477,5.5482,5.5516,5.5619,5.5619,5.5619,5.5108,5.4183,5.2406,5.0721,4.9153,4.7524,4.6801,4.6507,4.4966,4.5369,4.6654,4.6728,4.7829,4.9077,4.8306,4.6471,4.4305,4.2763,4.1699,0.0,0.0,4.324,4.4635,4.5553,4.7535,4.9297,4.9481,5.0141,5.0729,5.0729,4.8511,4.7098,0.0,4.7278,4.4931,4.285,0.0,4.0547,3.6916,3.9068,4.108,4.1024,4.4894,4.7262,4.6519,4.6495,4.6256,4.5563,4.4961,4.4643,4.4587,4.4587,4.4587,4.4587,4.4587,4.4181,4.3389,4.2496,0.0,0.0,0.0,0.0,0.0,0.0,0.0,0.0,0.0,0.0,0.0,0.0,0.0,0.0,0.0,0.0,0.0,0.0,0.0,0.0,0.0,0.0,0.0,0.0,0.0,0.0,0.0,0.0,4.0087,4.2014,0.0,4.146,4.1596,4.1427,4.0696,4.2692,4.4834,4.6828,4.7615,4.9209,5.1673,5.2329,5.3078,5.4093,5.4363,5.4769,5.531,5.531,5.5446,5.5716,5.5716,5.5716,5.5716,5.5716,5.5246,5.4561,5.4425,5.3152,5.1129,5.0479,5.0242,5.025,5.02,5.0545,5.1059,5.1059,5.1426,5.1793,5.0949,4.9738,4.8526,4.7939,4.7572,4.7388,4.7682,4.8196,4.882,4.9627,5.0472,5.1279,5.1793,5.216,5.2181,5.1762,5.0849,5.0067,4.9805,4.7558,4.528,4.4082,4.5234,4.5247,4.2079,4.4095,4.5789,4.5372,4.6656,4.7421,4.6749,4.6713,4.6613,4.6374,4.5705,4.5297,4.5297,4.4857,4.4587,4.4587,4.4587,4.464,4.4783,4.3957,4.196,0.0,0.0,0.0,0.0,0.0,0.0,0.0,0.0,0.0,0.0,0.0,0.0,0.0,0.0,0.0,0.0,0.0,0.0,0.0,0.0,0.0,0.0,0.0,0.0,0.0,0.0,4.0933,4.2185,4.4316,4.5568,4.5331,4.5534,4.5872,4.638,4.8511,5.0236,5.1217,5.2435,5.3551,5.46,5.531,5.5953,5.6461,5.6697,5.6697,5.6461,5.6968,5.6934,5.6461,5.6968,5.6664,5.5784,5.6765,5.619,5.4703,5.5927,5.5075,5.2951,5.2891,5.2824,5.2874,5.3146,5.3572,5.4018,5.4019,5.3665,5.3078,5.227,5.1646,5.1169,5.0875,5.0802,5.0875,5.1132,5.1206,5.1389,5.2197,5.2417,5.2527,5.3078,5.3408,5.3383,5.2604,5.1718,5.0986,5.0753,4.868,4.6409,4.4642,4.5979,4.6245,4.3319,4.4356,4.5386,4.5146,4.5814,4.6075,4.5693,4.6549,4.7056,4.6819,4.5432,4.4891,4.5669,4.4282,4.3775,4.4553,4.3842,4.362,4.4027,4.2955,4.1812,4.0559,0.0,0.0,0.0,0.0,0.0,0.0,0.0,0.0,0.0,0.0,0.0,0.0,0.0,0.0,0.0,0.0,0.0,0.0,0.0,0.0,0.0,0.0,0.0,3.4912,3.9884,4.3944,4.479,4.8105,5.0067,4.9357,4.9932,5.0947,5.2367,5.3213,5.4296,5.575,5.6461,5.6833,5.6799,5.7509,5.7881,5.7848,5.8626,5.866,5.7983,5.937,5.9302,5.8017,5.9404,5.8524,5.5987,5.8829,5.7983,5.4803,5.6934,5.6528,5.4601,5.4535,5.4514,5.4409,5.3631,5.4331,5.5663,5.5524,5.4503,5.3146,5.2339,5.2082,5.194,5.1169,5.0949,5.1055,5.1903,5.2123,5.227,5.3078,5.3219,5.3176,5.3219,5.3842,5.4143,5.3351,5.1021,4.971,5.1848,5.1025,4.8756,4.5032,4.448,4.3554,4.062,3.9713,0.0,4.0324,4.2286,4.3606,4.3606,4.6143,4.7597,4.6921,4.4113,4.3335,4.5635,4.2997,4.2354,4.4553,4.2523,4.1339,4.1305,3.9674,4.0468,4.3963,0.0,0.0,0.0,0.0,0.0,0.0,0.0,0.0,0.0,0.0,0.0,0.0,0.0,0.0,0.0,0.0,0.0,0.0,0.0,0.0,0.0,3.887,4.2049,4.1847,4.5534,4.9154,5.1555,5.416,5.5683,5.548,5.5615,5.5919,5.6325,5.707,5.7679,5.8084,5.778,5.734,5.6833,5.7509,5.7645,5.7103,5.8355,5.9167,5.9471,5.8795,5.8829,5.9471,5.937,5.8863,5.8152,5.8964,5.7848,5.5446,5.6055,5.531,5.3923,5.4966,5.5053,5.459,5.4931,5.534,5.5454,5.3826,5.4035,5.4991,5.4737,5.4302,5.3889,5.4195,5.3908,5.3671,5.4378,5.4237,5.3997,5.4708,5.4121,5.3411,5.3978,5.3878,5.3423,5.272,5.1948,5.1431,5.1486,5.1179,5.0343,4.8734,4.8046,4.7622,4.7316,4.714,0.0,4.7327,4.7868,4.8037,4.753,4.6786,4.6887,4.8274,4.5669,4.4925,4.7158,4.6007,4.5534,4.6143,4.5094,4.4215,4.3673,4.2083,4.1708,0.0,0.0,0.0,0.0,0.0,0.0,0.0,0.0,0.0,0.0,0.0,0.0,0.0,0.0,0.0,0.0,0.0,0.0,0.0,0.0,0.0,0.0,4.3639,4.8139,5.0304,5.2198,5.4363,5.707,5.8795,5.9776,5.9776,5.9776,5.9911,6.0216,6.0655,6.0757,6.0452,6.0317,5.9336,5.7306,5.8592,5.866,5.7273,5.9066,6.0013,6.0114,5.9877,5.9877,6.0114,6.0317,5.9573,5.8152,5.9438,5.8355,5.5784,5.6393,5.575,0.0,0.0,0.0,0.0,0.0,5.4992,5.4595,5.3596,5.3869,5.4685,5.4685,5.4399,5.4092,5.4494,5.3459,5.222,5.2687,5.1571,5.0664,5.2325,5.2135,5.1899,5.3616,5.3887,5.3605,5.2924,5.2042,5.1528,5.2024,5.0913,0.0,5.0879,4.9661,4.8274,4.7428,4.7293,4.7428,4.7733,4.8342,4.868,4.8545,4.7936,4.8071,4.9357,4.6447,0.0,0.0,0.0,4.5365,4.5365,4.4959,0.0,0.0,0.0,4.2486,4.4003,0.0,0.0,0.0,4.1905,4.0598,0.0,0.0,0.0,0.0,0.0,0.0,0.0,0.0,0.0,0.0,0.0,0.0,0.0,0.0,0.0,0.0,4.8748,5.3991,5.9066,5.9268,5.9573,6.1467,6.2245,6.2651,6.2651,6.2651,6.2922,6.3599,6.3565,6.3226,6.255,0.0,0.0,0.0,0.0,6.0148,5.8017,6.0216,6.0994,6.0351,6.1569,6.1467,6.0283,6.1535,6.0283,5.7205,5.9877,5.9032,5.5818,5.7103,5.6799,5.5344,5.4025,5.3518,5.3517,5.3989,5.3763,5.3445,5.3847,0.0,0.0,5.345,5.345,5.345,5.3561,5.167,4.9564,4.9664,4.7677,4.6187,4.8954,4.9513,5.0117,5.278,5.3922,5.4221,5.3541,5.1889,5.1089,5.3109,5.0811,4.939,5.1995,5.0135,4.7394,4.4823,4.4418,4.4654,4.5365,4.6583,4.7631,4.824,0.0,0.0,5.0067,4.6853,4.5737,4.7902,4.5534,4.4012,4.3944,4.391,4.3267,4.188,4.1865,4.3476,4.6648,4.6791,4.8183,5.0497,4.4416,4.274,0.0,0.0,0.0,0.0,0.0,0.0,0.0,0.0,0.0,0.0,0.0,0.0,0.0,0.0,0.0,4.9154,5.46,5.9776,6.3835,6.4783,6.4816,6.4038,6.4072,6.4174,6.4174,6.4174,6.4241,6.4377,6.3835,6.3463,6.3294,6.1704,6.0148,5.8829,5.981,5.9844,5.8795,6.0452,6.1535,6.1941,0.0,0.0,6.1061,6.0689,5.981,5.8626,5.9201,5.8051,5.575,5.6021,5.5277,5.389,5.3619,5.3518,5.3281,5.1579,5.2051,5.3241,5.156,5.2433,5.4365,5.4365,5.4365,5.4486,5.5036,5.4419,0.0,5.4211,5.3563,5.2904,5.407,5.3495,5.2912,5.4079,5.3983,5.3676,5.3513,5.3173,5.2972,5.3382,5.2909,5.2604,5.3179,5.1758,5.0574,5.0574,5.0574,5.0642,5.0777,5.1048,5.1048,5.0642,4.9221,4.8815,4.9999,4.78,4.7056,4.868,4.824,4.7665,4.7056,4.7056,4.6616,4.5737,4.6165,4.6773,4.7456,4.8532,4.9352,4.9864,4.9163,4.9032,0.0,0.0,0.0,0.0,0.0,0.0,0.0,0.0,0.0,0.0,0.0,4.0223,4.2489,0.0,5.0473,5.4938,5.8795,6.255,6.6271,6.7455,6.7523,6.6406,6.6237,6.6102,6.573,6.5696,6.5561,6.5189,6.4816,6.4275,6.3565,6.2415,6.096,5.9066,6.0452,6.052,5.9032,6.0892,6.2042,6.2381,6.1231,6.0926,6.1264,6.0452,5.9708,5.9032,5.9032,5.8186,5.6731,5.6021,5.5074,5.4025,5.3653,5.3518,5.3382,5.2232,5.2503,5.3348,5.2198,5.283,5.4042,5.4042,5.4042,5.4106,5.4516,5.3322,5.1871,5.226,5.1011,5.0042,5.1879,5.1782,5.1753,5.357,5.3783,5.3518,5.3518,5.3518,5.3518,5.3518,5.3518,5.3518,5.3518,5.2875,5.2503,5.2841,5.2909,5.2909,5.2909,5.2909,5.2773,5.2401,5.1014,5.0405,5.115,4.9492,4.8612,4.8984,4.9018,4.8849,4.8477,4.8477,4.8274,4.7902,4.8192,4.8506,4.8834,4.9918,5.0558,5.0922,5.1645,5.1573,0.0,0.0,0.0,0.0,0.0,0.0,0.0,3.7855,3.9715,4.0899,4.3132,4.5872,4.9052,5.1826,5.5209,6.0182,6.2516,6.4783,6.7895,6.8774,6.8808,6.7996,6.7895,6.7624,6.688,6.6812,6.6508,6.5764,6.5561,6.4918,6.3599,6.3362,6.2178,5.9742,6.1434,6.1501,5.9674,6.1467,6.2381,6.2381,6.1806,6.1366,6.1028,6.0385,5.9607,5.8795,5.866,5.8254,5.7577,5.6258,5.5344,5.4735,5.416,5.3856,5.3687,5.3551,5.3518,5.3518,5.3518,5.3518,5.3518,5.3518,5.3518,5.3518,5.3518,5.1792,4.9864,4.9864,4.8139,4.6853,4.9255,4.9864,5.0507,5.2942,5.3518,5.3518,5.3518,5.3518,5.3551,5.3687,5.3721,5.3754,5.3923,5.3822,5.3687,5.3518,5.3518,5.3518,5.3518,5.3518,5.3518,5.3518,5.2909,5.2401,5.2131,5.0879,4.9796,4.9052,4.9018,4.9018,4.9018,4.9018,4.9018,4.9018,4.9018,4.9256,4.9838,5.05,5.1189,5.1692,5.2554,5.2364,3.3634,3.0886,3.0229,3.2885,3.5626,3.8497,0.0,4.5635,4.8646,4.8815,5.1725,5.4532,5.5615,5.9268,6.2584,6.3869,6.6474,6.8707,6.9789,6.9451,6.8808,6.7996,6.7895,6.7624,6.688,6.6812,6.6508,6.5764,6.5087,6.4377,6.3565,6.2888,6.2347,6.2009,6.2245,6.2279,6.2009,6.2245,6.2381,6.2381,6.2313,6.1569,6.0216,6.0148,5.9336,5.7983,5.734,5.7002,5.6867,5.6055,5.5683,5.5581,5.5513,5.5074,5.4397,5.3754,5.3518,5.3518,5.3518,5.3518,5.3518,5.3518,5.3518,5.3518,5.3518,5.3281,5.301,5.301,5.2773,5.257,5.2909,5.301,5.3078,5.3416,5.3518,5.3518,5.3518,5.3518,5.3687,5.4329,5.4465,5.4668,5.5344,5.4905,5.4262,5.3585,5.3518,5.3518,5.3518,5.3518,5.3518,5.3518,5.3416,5.2807,5.1454,5.0574,4.9796,4.9052,4.9018,4.9018,4.9018,4.9018,4.9018,4.9018,4.9018,4.9046,4.9107,4.978,5.0202,5.0279,5.1593,5.2445,3.4964,3.5011,3.6133,3.8247,4.2579,4.6819,4.8815,5.2063,5.4769,5.5209,5.7949,6.0622,6.1772,6.3159,6.4816,6.688,6.7523,6.8199,6.9383,6.9282,6.8335,6.6237,6.485,6.3937,6.3632,6.4783,6.4647,6.2584,6.3396,6.3632,6.2888,6.255,6.2381,6.2381,6.2381,6.2381,6.2381,6.2381,6.2381,6.2381,6.1941,6.1434,6.0757,5.9877,5.8896,5.7848,5.7103,5.6799,5.6697,5.5547,5.5074,5.5006,5.46,5.4228,5.3957,5.4093,5.3856,5.3518,5.3518,5.3518,5.3518,5.3518,5.3518,5.3518,5.3518,5.3518,5.3518,5.3518,5.3518,5.3518,5.3518,5.3518,5.3518,5.3518,5.3822,5.4126,5.4126,5.4499,5.4871,5.5175,5.5243,5.5344,5.5683,5.5446,5.5141,5.4837,5.4059,5.3518,5.3518,5.3518,5.3518,5.3518,5.3518,5.3044,5.1928,5.1555,5.0879,4.9695,4.9627,4.9458,4.9018,4.9018,4.9018,4.9018,4.9018,4.9018,4.9018,4.9664,5.0223,5.0662,5.1643,5.2509,3.5976,3.7845,4.0192,4.3281,4.8543,5.3348,5.4972,5.7611,5.9877,6.0452,6.2448,6.4377,6.5222,6.529,6.5933,6.8132,6.7895,6.7827,6.8944,6.8571,6.688,6.3463,6.1095,5.9099,5.7476,6.0791,6.2415,6.0858,6.2279,6.2956,6.2415,6.2381,6.2381,6.2381,6.2381,6.2381,6.2381,6.2381,6.2381,6.2381,6.1839,6.1501,6.1264,5.9708,5.8592,5.7848,5.734,5.7103,5.7036,5.5953,5.5513,5.5446,5.4905,5.46,5.4465,5.5006,5.4465,5.3551,5.3721,5.3687,5.3551,5.3754,5.3687,5.3518,5.3518,5.3518,5.3518,5.3518,5.3653,5.3788,5.3788,5.3957,5.4126,5.4126,5.4499,5.4905,5.4905,5.5344,5.5784,5.5987,5.6021,5.6089,5.6292,5.6156,5.6021,5.6021,5.4938,5.4025,5.3822,5.3619,5.3518,5.3518,5.3518,5.3179,5.2367,5.23,5.1758,5.0473,5.0202,4.9864,4.9323,4.912,4.9018,4.9018,4.9018,4.9018,4.9018,4.9664,5.0279,5.0823,5.1692,5.2381,3.6117,3.7222,3.893,4.6134,5.1262,5.548,5.9066,6.2245,6.441,6.4444,6.5053,6.5425,6.4749,6.5797,6.6779,6.688,6.8098,6.9045,6.9079,6.7184,6.414,5.9708,5.7239,5.3619,4.78,5.4499,6.0047,6.2144,6.2381,6.2415,6.2381,6.2381,6.2381,6.2381,6.2381,6.2381,6.2381,6.2381,6.2381,6.2381,6.2381,6.1975,6.1264,5.9708,5.8592,5.7881,5.7881,5.7848,5.7848,5.7814,5.778,5.778,5.778,5.734,5.6697,5.6731,5.5378,5.3619,5.4329,5.4093,5.3619,5.4329,5.4093,5.3518,5.3518,5.3518,5.3518,5.3518,5.4025,5.4566,5.4566,5.5108,5.5649,5.5649,5.5683,5.5683,5.5683,5.5683,5.5919,5.663,5.6765,5.7002,5.7712,5.7239,5.6765,5.6765,5.6122,5.5378,5.4668,5.3923,5.3518,5.3518,5.3518,5.3179,5.2367,5.23,5.1995,5.1217,5.0507,5.0067,5.0067,4.939,4.9018,4.9018,4.9018,4.9018,4.9018,4.9664,5.0033,5.009,5.1444,5.2112,3.6896,4.1906,4.7892,5.2794,5.8018,6.2278,6.3681,6.5504,6.65,6.5039,6.2927,6.1035,5.9767,5.8302,5.8113,6.0628,6.1402,6.3057,6.7015,6.3937,6.0892,5.9844,5.6021,5.3247,5.2773,5.4769,5.619,5.6461,6.0148,6.2381,6.2381,6.2854,6.3125,6.3125,6.2651,6.2618,6.3125,6.2651,6.2381,6.2381,6.2381,6.1738,6.0486,5.9979,5.9066,5.7848,5.7374,5.7171,5.7137,5.663,5.6461,5.6461,5.6461,5.6292,5.6089,5.6089,5.5277,5.4262,5.4499,5.4126,5.3619,5.4363,5.4431,5.4329,5.4837,5.4972,5.4972,5.4972,5.5141,5.5344,5.5344,5.5513,5.5716,5.5716,5.6089,5.6427,5.6427,5.6799,5.7239,5.7476,5.7509,5.7611,5.7848,5.7679,5.734,5.6867,5.575,5.4871,5.4634,5.3957,5.3518,5.3518,5.3518,5.3382,5.3112,5.3112,5.2773,5.1995,5.1691,5.1116,5.0135,4.9864,4.9492,4.9018,4.9018,4.9018,4.9018,4.9664,5.0223,5.077,5.1692,5.2381,3.9782,4.614,5.2878,5.7495,6.2055,6.5535,6.5923,6.6897,6.6954,6.4387,6.1751,5.8946,5.5771,5.3679,5.3315,5.6029,5.6258,5.8354,6.4701,6.1694,5.8959,5.9302,5.5649,5.3281,5.3653,5.4262,5.4397,5.3923,5.8186,6.0791,6.0791,6.1738,6.2787,6.3869,6.3193,6.3024,6.3531,6.2753,6.2381,6.2381,6.211,6.1332,6.008,5.9844,5.8457,5.6359,5.6934,5.6596,5.5683,5.6258,5.6494,5.6494,5.6494,5.6494,5.6494,5.6494,5.6021,5.5378,5.5378,5.4735,5.4059,5.504,5.5209,5.5074,5.5581,5.5716,5.5716,5.5716,5.5919,5.6089,5.6089,5.6292,5.6494,5.6494,5.6867,5.7171,5.7171,5.7577,5.7881,5.7881,5.7881,5.7881,5.7881,5.7881,5.7712,5.7273,5.6156,5.5277,5.504,5.4126,5.3619,5.3856,5.3653,5.3518,5.3518,5.3518,5.3281,5.2773,5.2469,5.186,5.0913,5.0642,5.027,4.9796,4.9526,4.939,4.939,4.9801,5.0223,5.0716,5.1444,5.2112,4.4582,4.9781,5.4059,6.0297,6.3449,6.5208,6.5911,6.6323,6.5788,6.2295,6.0915,5.8379,5.2158,5.1228,5.1727,5.2943,5.2927,5.5273,6.2459,6.0645,5.8441,5.8079,0.0,0.0,0.0,0.0,0.0,5.4769,5.6867,5.8186,5.822,5.9607,6.1704,6.458,6.3937,6.3599,6.3632,6.2854,6.2415,6.2381,6.167,6.0926,6.0148,5.9404,5.7137,5.3957,5.6697,5.6292,5.3957,5.6731,5.7881,5.7881,5.7881,5.7881,5.7881,5.7881,5.7442,5.6799,5.6833,5.5886,5.4871,5.6325,5.6325,5.5784,5.5818,5.5818,5.5818,5.5818,5.6325,5.6867,5.6867,5.7374,5.7881,5.7881,5.7881,5.7881,5.7881,5.7915,5.7949,5.7949,5.7949,5.7949,5.7949,5.7915,5.7881,5.7881,5.7273,5.6528,5.5818,5.4465,5.3822,5.4465,5.3923,5.3518,5.3518,5.3518,5.3518,5.3518,5.2773,5.2334,5.23,5.1623,5.1251,5.1183,5.0473,5.0067,5.0033,5.0007,4.9976,5.0033,5.077,5.1444,4.8351,5.4914,6.144,6.4247,6.5751,6.6218,6.4863,6.3586,6.1239,5.6364,5.0898,4.5484,4.044,3.8439,3.9806,4.691,4.8729,5.259,6.2201,6.0018,5.7972,5.9355,0.0,5.702,5.8315,5.9641,0.0,5.7205,6.0182,6.2313,6.2854,6.3768,6.4613,6.5392,6.4715,6.458,6.5121,6.3869,6.2956,6.2381,6.2212,6.1704,6.096,6.0182,5.9032,5.7611,5.7814,5.7476,5.6833,5.7577,5.7881,5.7881,5.7881,5.7881,5.7881,5.7881,5.7442,5.6867,5.7408,5.6664,5.5581,5.6494,5.6664,5.663,5.7171,5.734,5.734,5.734,5.7476,5.7611,5.7611,5.7746,5.7881,5.7881,5.7881,5.7881,5.7881,5.8321,5.8727,5.8727,5.8727,5.8727,5.8727,5.8254,5.7881,5.7881,5.7273,5.6528,5.5818,5.4905,5.416,5.3822,5.3619,5.3518,5.3518,5.3518,5.3518,5.3518,5.3315,5.2942,5.2334,5.2131,5.1488,5.0405,5.0202,4.983,4.9289,4.9767,4.9976,5.0033,5.077,5.1189,5.3223,5.8492,6.3326,6.452,6.483,6.4071,6.0586,5.8677,5.5752,4.914,4.4423,4.0034,3.5198,3.3598,3.5643,4.3687,4.576,4.9752,5.9659,5.8852,5.815,6.0333,5.9106,0.0,6.2471,6.2575,6.2293,6.1873,6.255,6.3057,6.3159,6.4174,6.5324,6.6609,6.5628,6.4952,6.4749,6.3937,6.3125,6.2381,6.2076,6.1704,6.1264,6.0452,5.8998,5.7137,0.0,5.7442,5.6055,5.7374,5.7881,5.7881,5.7881,5.7881,5.7881,5.7881,5.7645,5.734,5.7746,5.734,5.6731,5.7137,5.7273,5.734,5.7746,5.7881,5.7881,5.7881,5.7881,5.7881,5.7881,5.7881,5.7881,5.7881,5.8152,5.8389,5.8389,5.8964,5.9471,5.9471,5.9471,5.9404,5.9066,5.866,5.8254,5.7949,5.7543,5.7036,5.6292,5.5243,5.4566,5.4499,5.389,5.3518,5.3518,5.3518,5.3518,5.3518,5.3518,5.3315,5.2841,5.2841,5.2435,5.1623,5.0913,5.0371,4.9965,4.9684,4.9752,5.006,5.0802,5.1351,5.7872,6.0625,6.2361,6.2929,6.245,6.0565,5.5891,5.3436,5.0089,4.2663,4.0198,3.8033,3.3632,3.3307,3.585,4.2512,4.4154,4.743,5.5755,5.7199,5.8224,6.0382,5.9762,6.0685,6.4588,6.3629,6.3976,6.6728,6.4681,6.2956,6.2212,6.3294,6.5121,6.7658,6.6508,6.5121,6.3666,6.3666,6.3226,6.2381,6.1738,6.1467,6.1434,6.0622,5.8457,5.548,5.7949,5.7137,5.4296,5.6833,5.7881,5.7881,5.7881,5.7881,5.7881,5.7881,5.7881,5.7881,5.7881,5.7881,5.7881,5.7881,5.7881,5.7881,5.7881,5.7881,5.7881,5.7881,5.7881,5.7881,5.7881,5.7881,5.7881,5.7881,5.8457,5.9032,5.9032,5.9674,6.0283,6.0385,6.0317,6.0013,5.9268,5.9066,5.8761,5.8017,5.7881,5.7645,5.7036,5.575,5.5108,5.5649,5.4465,5.3653,5.3653,5.3551,5.3518,5.3518,5.3518,5.3518,5.3518,5.3518,5.345,5.3348,5.2029,5.1319,5.1217,4.9932,4.9627,5.0299,5.1089,5.1752,5.886,6.0954,6.2929,6.3049,6.1732,5.9976,5.8258,5.2856,4.6708,4.1763,3.6432,3.257,3.2047,3.2466,3.5441,4.3219,4.5598,4.7736,5.154,5.4648,5.6745,5.7462,5.7979,6.0485,6.608,6.4443,6.4348,6.7471,6.7861,6.759,6.6812,6.644,6.6474,6.6981,6.6745,6.5899,6.441,6.441,6.3734,6.2381,6.2245,6.2212,6.2178,6.1434,6.0385,5.9133,5.9066,0.0,5.7171,5.7679,5.7881,5.7881,5.7881,5.7881,5.7881,5.7881,5.7881,5.7881,5.7881,5.7881,5.7881,5.7881,5.7881,5.7881,5.7881,5.7881,5.7881,5.7881,5.7881,5.7881,5.7881,5.7881,5.7881,5.7881,5.8457,5.9032,5.9032,6.0114,6.1264,6.1873,6.1501,6.0858,6.0047,5.9404,5.8761,5.8017,5.7881,5.7848,5.7712,5.6934,5.6224,5.5784,5.4938,5.4397,5.4397,5.3856,5.3518,5.3518,5.3518,5.3518,5.3518,5.3518,5.3179,5.2536,5.2266,5.1826,5.1217,5.0947,5.0879,5.1014,5.1847,5.2264,5.968,6.2133,6.5032,6.429,6.2133,5.8889,5.3864,4.7958,4.1669,3.496,3.0894,2.8766,2.9535,3.0076,3.3259,4.2047,4.4716,4.7502,5.2638,5.5886,5.8165,5.9515,5.9505,6.102,6.5326,6.3373,6.3232,6.6525,6.6406,6.6711,6.7827,6.7557,6.7218,6.6812,6.6812,6.6271,6.5189,6.5155,6.441,6.2956,6.2956,6.2753,6.2381,6.2009,6.1467,6.0689,5.9911,5.849,5.6799,5.7577,5.7205,5.6292,5.7442,5.7881,5.7881,5.7881,5.7881,5.7881,5.7881,5.7881,5.7881,5.7881,5.7881,5.7881,5.7881,5.7881,5.7881,5.7881,5.8186,5.8457,5.8457,5.8761,5.9032,5.9032,5.9641,6.0317,6.0689,6.1366,6.1975,6.2313,6.211,6.1637,6.0858,6.0419,5.9945,5.9167,5.8727,5.8457,5.8457,5.7814,5.7103,5.6359,5.5277,5.46,5.46,5.3923,5.3518,5.3518,5.3518,5.3518,5.3518,5.3518,5.3315,5.2942,5.2503,5.2131,5.1792,5.1386,5.142,5.1792,5.2578,5.2909,6.152,6.3996,6.6926,6.5678,6.2714,5.8091,5.0247,4.4109,3.7873,3.0106,2.7243,2.6737,2.8639,2.9123,3.2066,4.0836,4.2902,4.5857,5.2937,5.5542,5.794,6.1274,6.0842,6.1676,6.5277,6.3162,6.3048,6.6373,6.529,6.5392,6.7557,6.7793,6.7557,6.6846,6.6812,6.644,6.5696,6.5527,6.4783,6.3531,6.3362,6.2956,6.2381,6.2381,6.1907,6.1028,6.0385,5.8355,0.0,5.7239,5.6596,5.4803,5.7036,5.7881,5.7881,5.7881,5.7881,5.7881,5.7881,5.7881,5.7881,5.7881,5.8017,5.8118,5.8118,5.8254,5.8355,5.8355,5.8795,5.9268,5.9268,5.9674,6.0148,6.0317,6.0858,6.1501,6.2245,6.2381,6.2381,6.2381,6.2381,6.2144,6.1434,6.1298,6.1028,6.0216,5.9471,5.9032,5.9032,5.8355,5.7679,5.7103,5.5852,5.5074,5.5074,5.4262,5.3754,5.3754,5.3585,5.3518,5.3518,5.3518,5.3518,5.3518,5.2875,5.257,5.257,5.1995,5.1995,5.257,5.3369,5.3636,6.5644,6.6767,6.7036,6.6192,6.2939,5.8492,5.3221,4.5601,3.8274,3.3784,2.921,2.7429,3.2056,3.2527,3.4424,4.113,0.0,4.1522,4.735,4.8882,5.1853,5.8429,5.9286,6.1787,6.8134,6.6436,6.6257,6.9532,6.8368,6.732,6.6948,6.7557,6.7557,6.6846,6.6812,6.644,6.5696,6.5019,6.4309,6.3497,6.2821,6.2448,6.2381,6.2381,6.1603,6.0216,6.0148,5.8051,0.0,5.7002,5.6596,5.4803,5.7036,5.7881,5.7881,5.7881,5.7881,5.7881,5.7881,5.7881,5.7881,5.7881,5.8355,5.893,5.893,5.937,5.9911,5.9911,5.9945,6.0013,6.0013,6.0047,6.0283,6.1028,6.1264,6.1501,6.2245,6.2381,6.2381,6.2381,6.2381,6.2144,6.1434,6.1298,6.1028,6.0216,5.9471,5.9032,5.9032,5.8355,5.7848,5.7814,5.707,5.6596,5.6596,5.531,5.4499,5.4499,5.3856,5.3518,5.3518,5.3518,5.3518,5.3518,5.345,5.3382,5.3382,5.3315,5.3315,5.3382,5.4161,5.4121,6.0582,6.506,6.9277,6.7719,6.3486,5.8083,5.1921,4.4125,3.6738,3.1314,2.8553,2.783,3.0273,3.0931,3.2646,0.0,0.0,0.0,4.6703,4.8761,5.2521,6.0688,6.1792,6.3486,6.7391,6.6045,6.5504,6.6728,6.6677,6.6643,6.6812,6.7083,6.7117,6.6812,6.6812,6.6677,6.6373,6.5628,6.4884,6.4174,6.3429,6.2821,6.2381,6.2381,6.2042,6.1434,6.0486,5.7746,0.0,5.7273,5.619,5.2942,5.7002,5.8287,5.7881,5.7881,5.7881,5.7949,5.8423,5.8558,5.8626,5.9066,5.9742,6.0216,5.9302,5.9235,5.9539,5.9979,6.0452,6.0825,6.0825,6.1163,6.1569,6.1873,6.1941,6.2042,6.2347,6.2381,6.2381,6.2381,6.2381,6.2313,6.2009,6.1941,6.1839,6.1535,6.0452,5.9674,5.9674,5.8626,5.7881,5.7881,5.7239,5.6799,5.6799,5.5852,5.5277,5.5277,5.4566,5.416,5.416,5.3754,5.3518,5.3518,5.3518,5.3518,5.3518,5.3518,5.3518,5.3518,5.3783,5.3775,5.7785,6.42,7.0524,6.8544,6.3544,5.7353,5.0426,4.2617,3.5267,2.9516,2.8062,2.8044,2.8822,2.96,3.1326,0.0,0.0,3.8362,4.5263,4.7362,5.1262,5.9532,6.0702,6.2378,6.6458,6.6744,6.6568,6.6255,6.6542,6.6812,6.7117,6.6914,6.6812,6.6812,6.6609,6.6474,6.6474,6.5527,6.4783,6.4275,6.3531,6.2448,6.1095,6.1975,6.1772,6.0723,6.0554,5.8186,0.0,5.7746,5.6461,5.2942,5.707,5.8355,5.7915,5.8152,5.822,5.8321,5.9066,5.9336,5.937,5.9674,6.0317,6.0757,5.9674,5.9641,6.0114,6.0622,6.1197,6.1637,6.1637,6.2009,6.2381,6.2381,6.2381,6.2381,6.2381,6.2381,6.2381,6.2381,6.2381,6.2381,6.2381,6.2381,6.2313,6.211,6.096,6.0114,6.0114,5.8998,5.822,5.822,5.7746,5.7374,5.7137,5.6461,5.6055,5.6055,5.5141,5.46,5.46,5.389,5.3518,5.3518,5.3518,5.3518,5.3518,5.3518,5.3518,5.3518,5.3518,5.3482,5.9802,6.5662,6.9823,6.8301,6.2888,5.6156,4.9424,4.1542,3.4327,2.9905,2.8383,2.8044,2.8822,2.96,3.1326,0.0,0.0,0.0,4.1813,4.3171,4.619,5.2809,5.3811,5.7264,6.5985,6.9519,7.0939,7.0195,6.9451,0.0,6.7929,6.7218,6.6812,6.6812,6.6102,6.5696,6.5696,6.4275,6.3531,6.3531,6.2753,6.0825,5.8051,6.1028,6.0351,5.7036,6.0013,5.9573,0.0,5.8389,5.7712,5.5818,5.7306,5.7881,5.7983,5.8727,5.8998,5.9099,5.9844,6.008,5.9979,5.9268,5.9505,6.0114,6.008,6.1163,6.2347,6.2347,6.2381,6.2381,6.2381,6.2381,6.2381,6.2381,6.2381,6.2381,6.2381,6.2381,6.2381,6.2381,6.2381,6.2381,6.2381,6.2381,6.2144,6.1434,6.0622,6.0114,6.0114,5.9471,5.8998,5.8998,5.8998,5.8693,5.7949,5.7205,5.6799,5.6799,5.5412,5.46,5.46,5.389,5.3518,5.3518,5.3518,5.3518,5.3518,5.3518,5.3518,5.3518,5.3518,5.3505,4.8058,5.2974,5.7002,5.5987,5.2604,4.8206,4.2997,3.7821,3.3119,2.9702,2.8789,2.8856,2.96,3.0345,3.207,0.0,0.0,0.0,4.4553,4.6925,5.0557,5.72,6.1694,6.5715,6.9465,6.8436,6.803,6.935,6.732,6.6339,6.7117,6.6948,6.6812,6.6812,6.6576,6.6203,6.5696,6.4749,6.4005,6.3497,6.2753,6.0825,5.7983,6.1028,6.0622,5.7679,6.0216,5.9607,0.0,5.9539,5.866,5.6021,5.9032,5.9877,5.9438,5.9674,5.9742,5.9877,6.0655,6.0926,6.096,6.1231,6.1467,6.167,6.167,6.167,6.1738,6.2245,6.2381,6.2381,6.2381,6.2381,6.2381,6.2381,6.2381,6.2381,6.2381,6.2381,6.2381,6.2381,6.2381,6.2381,6.2381,6.2381,6.2313,6.2076,6.14,6.0926,6.0926,6.025,5.9573,5.9066,5.9032,5.8693,5.7949,5.7679,5.7543,5.7543,5.619,5.5344,5.5344,5.416,5.3518,5.3518,5.3518,5.3518,5.3518,5.3518,5.3518,5.3518,5.3518,5.3505,4.0767,4.6267,5.0608,4.9864,4.6819,4.3064,3.9411,3.525,3.1461,2.9059,2.9905,3.0784,2.9871,3.1427,3.3254,3.4472,0.0,3.9512,4.2591,4.6143,5.0405,5.5683,6.2144,6.6948,6.8977,6.8098,6.7963,6.9417,6.7252,6.6237,6.7184,6.6948,6.6812,6.6812,6.6542,6.6034,6.529,6.4546,6.3802,6.3091,6.2618,6.0825,5.7983,6.1028,6.0723,5.8017,6.0588,6.0655,0.0,6.0655,5.9911,5.8017,6.0047,6.0554,6.0148,6.0452,6.0554,6.0655,6.1434,6.1535,6.1332,6.1467,6.1535,6.1637,6.2212,6.2076,6.1806,6.2245,6.2381,6.2381,6.2381,6.2381,6.2381,6.2381,6.2381,6.2381,6.2381,6.2381,6.2381,6.2381,6.2381,6.2381,6.2381,6.2381,6.2313,6.2009,6.1603,6.1298,6.1298,6.0858,6.025,5.9505,5.9438,5.8998,5.7983,5.7881,5.7881,5.7881,5.6799,5.6021,5.5716,5.4566,5.3788,5.3518,5.3518,5.3518,5.3518,5.3518,5.3685,5.3946,5.3946,5.4212,0.0,4.3809,4.8409,4.7767,4.3944,3.9783,3.7652,3.3423,0.0,2.845,3.1529,3.3423,3.0142,3.3051,3.5013,3.2138,3.7077,4.0324,3.7618,4.2591,4.7496,5.0168,5.7205,6.2821,6.5222,6.8267,7.0094,7.0094,6.8741,6.7895,6.7895,6.7218,6.6812,6.6812,6.6136,6.5392,6.4613,6.3937,6.3125,6.2144,6.2313,6.0723,5.7746,6.0926,6.0723,0.0,6.1061,0.0,0.0,6.1637,6.1366,6.1231,6.052,6.025,6.0351,6.1095,6.1366,6.1467,6.211,6.1873,6.1197,6.0419,6.0216,6.052,6.1941,6.2381,6.2381,6.2381,6.2381,6.2381,6.2381,6.2381,6.2381,6.2381,6.2381,6.2381,6.2381,6.2381,6.2381,6.2381,6.2381,6.2381,6.2381,6.2381,6.2144,6.1467,6.1366,6.1366,6.1366,6.1366,6.1061,6.0182,6.0114,5.9505,5.8017,5.7881,5.7881,5.7881,5.7205,5.6494,5.5818,5.5006,5.4262,5.3585,5.3518,5.3518,5.3518,5.3551,5.3946,5.4606,5.4634,5.5472,3.0176,0.0,3.3897,3.3728,3.278,3.1562,0.0,0.0,0.0,0.0,0.0,3.3931,3.481,3.7212,3.8464,3.6637,3.9546,4.1982,4.188,4.8984,5.4262,5.4363,6.2009,6.6203,6.3429,6.6914,6.935,6.935,6.8436,6.7895,6.7895,6.7218,6.6812,6.6812,6.6643,6.5933,6.4613,6.4444,6.2821,5.9844,6.1569,5.9911,5.5513,6.025,6.0723,5.8051,0.0,0.0,6.1603,6.1975,6.1806,6.1332,6.1704,6.1839,6.1873,6.2076,6.2144,6.2076,6.167,6.1467,6.1264,6.1095,6.14,6.1907,6.2279,6.2381,6.2381,6.2381,6.2381,6.2381,6.2381,6.2381,6.2381,6.2381,6.2381,6.2381,6.2381,6.2381,6.2381,6.2381,6.2381,6.2381,6.2381,6.2381,6.2347,6.2144,6.2144,6.2144,6.2144,6.2144,6.1603,6.025,6.0114,5.9505,5.8017,5.7881,5.7881,5.7881,5.7205,5.6731,5.6562,5.5277,5.4499,5.4329,5.3788,5.3518,5.3518,5.4042,5.4419,5.4572,5.5144,5.5984,2.73,2.8383,2.9837,3.119,3.0243,2.9228,3.0176,0.0,0.0,0.0,0.0,3.4404,3.596,3.7516,3.843,3.799,3.9512,4.188,4.5026,4.9661,5.3484,5.548,6.0283,6.3565,0.0,6.7354,6.9586,6.9586,6.8538,6.7895,6.7895,6.7218,6.6812,6.6812,6.6812,6.6271,6.5121,6.4783,6.2888,5.9539,6.1467,6.0351,5.6765,6.0622,6.1501,5.9979,0.0,0.0,6.1738,6.0723,6.0926,6.1839,6.2245,6.2381,6.2381,6.2381,6.2381,6.2347,6.1941,6.1569,6.1298,6.1298,6.1569,6.1941,6.2279,6.2381,6.2381,6.2381,6.2381,6.2381,6.2381,6.2381,6.2381,6.2381,6.2381,6.2381,6.2381,6.2381,6.2381,6.2381,6.2381,6.2381,6.2381,6.2381,6.2381,6.2381,6.2381,6.2381,6.2381,6.2381,6.1806,6.025,6.0114,5.9505,5.8017,5.7881,5.7881,5.7881,5.7509,5.7002,5.6325,5.5547,5.4803,5.4093,5.3687,5.3685,5.4011,5.4419,5.4939,5.5645,5.6095,5.6668,2.6793,2.845,3.0751,3.3322,3.1562,2.9871,3.2611,0.0,0.0,0.0,0.0,3.5487,3.6468,3.7821,0.0,0.0,3.9242,4.2252,4.8105,4.9526,5.1488,5.5547,5.7814,6.0655,6.4783,6.8199,7.0128,7.0026,6.8707,6.7895,6.7895,6.7218,6.6812,6.6812,6.6812,6.644,6.5696,6.4952,6.3091,6.0114,6.1637,6.1197,5.9099,6.1366,6.2381,6.2245,0.0,0.0,6.2178,5.9641,6.008,6.2381,6.2381,6.2381,6.2381,6.2381,6.2381,6.2381,6.2245,6.1806,6.1298,6.1298,6.1366,6.1569,6.2212,6.2381,6.2381,6.2381,6.2381,6.2381,6.2381,6.2381,6.2381,6.2381,6.2381,6.2381,6.2381,6.2381,6.2381,6.2381,6.2381,6.2381,6.2381,6.2381,6.2381,6.2381,6.2381,6.2381,6.2381,6.2381,6.1806,6.025,6.0114,5.9505,5.8017,5.7881,5.7881,5.7881,5.7881,5.7239,5.5784,5.5716,5.5006,5.3551,5.3618,5.4011,5.4606,5.4818,5.5645,5.6912,5.7015,5.7401,2.73,2.8856,3.0378,3.1427,3.0818,3.0378,3.207,0.0,0.0,0.0,0.0,0.0,0.0,4.4993,4.6007,0.0,0.0,4.7462,5.2807,5.6833,5.8829,5.7679,6.4377,6.7455,6.3294,6.732,6.9925,6.9316,6.8402,6.7895,6.7895,6.7218,6.6812,6.6812,6.6812,6.644,6.5696,6.4952,6.3091,6.0114,6.1637,6.1197,5.9099,6.1366,6.2381,6.2347,0.0,6.1941,6.2347,6.1873,6.1975,6.2381,6.2381,6.2381,6.2381,6.2381,6.2381,6.2313,6.167,6.14,6.1298,6.1298,6.1704,6.2245,6.2347,6.2381,6.2381,6.2381,6.2381,6.2381,6.2381,6.2381,6.2381,6.2381,6.2381,6.2381,6.2381,6.2381,6.2381,6.2381,6.2381,6.2381,6.2381,6.2381,6.2381,6.2381,6.2381,6.2381,6.2381,6.2381,6.1806,6.025,6.0114,5.9505,5.8017,5.7881,5.7881,5.7881,5.7881,5.7239,5.5784,5.5716,5.5006,5.3551,5.4106,5.4482,5.4572,5.5928,5.6668,5.6912,5.7546,5.7904,2.7029,2.8315,3.0277,3.3423,3.3051,3.3017,3.7313,3.4979,0.0,0.0,0.0,0.0,0.0,0.0,4.5365,4.5568,0.0,5.504,5.6224,5.8152,5.9674,0.0,0.0,6.6034,6.4884,6.8064,6.9891,6.9147,6.8368,6.7726,6.7354,6.6981,6.6812,6.6812,6.6406,6.6034,6.5696,6.458,6.2685,6.0114,6.1637,6.1197,5.9099,6.1366,6.2381,6.2313,0.0,6.0892,6.2245,6.0622,6.0926,6.2381,6.2381,6.2381,6.2381,6.2381,6.2381,6.2347,6.2009,6.1873,6.1873,6.1873,6.211,6.2381,6.2381,6.2381,6.2381,6.2381,6.2381,6.2381,6.2381,6.2381,6.2381,6.2381,6.2381,6.2381,6.2381,6.2381,6.2381,6.2381,6.2381,6.2381,6.2381,6.2381,6.2381,6.2381,6.2381,6.2381,6.2381,6.2381,6.1806,6.025,6.0114,5.9505,5.8017,5.7881,5.7881,5.7881,5.7509,5.7002,5.6325,5.5894,5.5377,5.4658,5.5026,5.5379,5.5872,5.6563,5.7116,5.7498,5.7821,5.7997,2.6894,2.8078,3.0378,3.5081,3.481,3.5216,4.2117,3.8633,0.0,0.0,0.0,0.0,0.0,4.3132,0.0,5.1217,5.7036,6.0723,6.0554,6.0655,6.1704,6.4174,6.4478,6.5358,6.7658,6.9282,6.9891,6.9147,6.8368,6.759,6.6846,6.6643,6.6542,6.6542,6.5831,6.5358,6.5189,6.4072,6.2618,6.0926,6.1907,6.1501,5.9877,6.1603,6.2381,6.2245,5.9945,6.025,6.2212,5.9911,6.0317,6.2381,6.2381,6.2381,6.2381,6.2212,6.2144,6.2144,6.2144,6.2144,6.2178,6.2347,6.2381,6.2381,6.2381,6.2381,6.2381,6.2381,6.2381,6.2381,6.2381,6.2381,6.2381,6.2381,6.2381,6.2381,6.2381,6.2381,6.2381,6.2381,6.2381,6.2381,6.2381,6.2381,6.2381,6.2381,6.2381,6.2381,6.2381,6.2381,6.1806,6.025,6.0114,5.9505,5.8017,5.7881,5.7881,5.7881,5.7374,5.6968,5.6799,5.623,5.5859,5.5686,5.5918,5.6313,5.6912,5.7065,5.7449,5.7997,5.7997,5.7997,2.7537,2.8856,3.0784,3.3897,3.4032,0.0,4.2794,3.9817,0.0,4.5906,0.0,0.0,0.0,4.7361,4.8376,5.4397,5.7509,6.1298,6.7421,0.0,6.9654,7.0567,7.0669,7.077,7.0973,7.05,6.9891,6.9147,6.8368,6.759,6.6846,6.6136,6.5764,6.5764,6.5053,6.4343,6.3666,6.3565,6.3429,6.326,6.2685,6.2313,6.2144,6.2313,6.2381,6.2381,6.2144,6.2178,6.2381,6.2144,6.2178,6.2381,6.2381,6.2381,6.2313,6.1637,6.1366,6.1366,6.1366,6.1366,6.1501,6.2178,6.2381,6.2381,6.2381,6.2381,6.2381,6.2381,6.2381,6.2381,6.2381,6.2381,6.2381,6.2381,6.2381,6.2381,6.2381,6.2381,6.2381,6.2381,6.2381,6.2381,6.2381,6.2381,6.2381,6.2381,6.2381,6.2381,6.2381,6.2381,6.1806,6.025,6.0114,5.9505,5.8017,5.7881,5.7881,5.7881,5.7848,5.7509,5.6833,5.6745,5.6379,5.5686,5.6431,5.6861,5.6912,5.7583,5.795,5.7997,5.7997,5.7997,2.7705,2.9262,3.1833,3.6197,3.569,0.0,0.0,4.347,4.2997,4.9323,4.7564,0.0,0.0,0.0,5.2976,5.7103,6.1569,6.5764,6.9282,7.0432,7.0804,7.0635,7.1041,7.0939,7.0026,6.9688,6.918,6.8402,6.7658,6.688,6.617,6.6305,6.5967,6.5019,6.5189,6.4715,6.3531,6.3531,6.3294,6.2821,6.2516,6.2381,6.2381,6.2381,6.2381,6.2381,6.2381,6.2381,6.2381,6.2381,6.2381,6.2381,6.2381,6.211,6.1738,6.1907,6.167,6.1366,6.1806,6.1975,6.2009,6.2313,6.2381,6.2381,6.2381,6.2381,6.2381,6.2381,6.2381,6.2381,6.2381,6.2381,6.2381,6.2381,6.2381,6.2381,6.2381,6.2381,6.2381,6.2381,6.2381,6.2381,6.2381,6.2381,6.2381,6.2381,6.2381,6.2381,6.2381,6.2381,6.1806,6.025,5.9268,5.849,5.7949,5.8388,5.8633,5.8633,5.8633,5.829,5.7501,5.7965,5.7939,5.7157,5.7463,5.7546,5.7546,5.7867,5.7997,5.7997,5.7997,5.7997,2.818,2.9499,3.1935,3.6434,0.0,0.0,4.5805,4.594,4.594,5.2131,5.1352,0.0,0.0,0.0,0.0,0.0,6.2888,6.7015,6.9485,7.0297,7.0432,6.9891,7.0297,7.0229,6.9214,6.8876,6.8504,6.7929,6.7218,6.6576,6.6068,6.6068,6.5662,6.4647,6.4647,6.4174,6.3159,6.3159,6.2888,6.2381,6.2381,6.2381,6.2381,6.2381,6.2381,6.2381,6.2381,6.2245,6.2042,6.2042,6.1907,6.1704,6.1941,6.1603,6.0994,6.1501,6.1366,6.0994,6.1501,6.1839,6.2076,6.2313,6.2381,6.2381,6.2381,6.2381,6.2347,6.211,6.2212,6.2347,6.211,6.2212,6.2381,6.2381,6.2381,6.2381,6.2381,6.2381,6.2381,6.2381,6.2381,6.2381,6.2381,6.2381,6.2381,6.2381,6.2381,6.2313,6.2076,6.2042,6.1467,5.9911,5.8885,5.8246,5.8246,5.9078,5.9404,5.916,5.9383,5.9137,5.8328,5.8859,5.8808,5.8015,5.7996,5.7997,5.7997,5.7997,5.7997,5.7997,5.7997,5.7997,2.9062,2.9567,3.0852,0.0,0.0,0.0,4.7665,4.665,4.5805,5.4025,5.6867,5.6968,5.4059,5.4126,0.0,5.7543,6.0452,6.4005,6.847,6.9113,6.9113,6.9079,6.9113,6.9079,6.9079,6.8368,6.7895,6.7861,6.7218,6.6779,6.6779,6.5392,6.458,6.458,6.3159,6.2415,6.2381,6.2381,6.2381,6.2381,6.2381,6.2381,6.2381,6.2381,6.2381,6.2381,6.2381,6.1975,6.1298,6.1298,6.0825,6.0182,6.0994,6.0791,6.008,6.0114,6.0114,6.0114,6.0114,6.0622,6.1434,6.2144,6.2381,6.2381,6.2381,6.2381,6.2245,6.1501,6.1839,6.2212,6.1501,6.1839,6.2381,6.2381,6.2381,6.2381,6.2381,6.2381,6.2381,6.2381,6.2381,6.2381,6.2381,6.2381,6.2381,6.2381,6.2381,6.211,6.14,6.1298,6.0689,5.9167,5.908,5.9111,5.9111,5.9896,6.0078,5.9299,5.9967,6.0044,5.9193,5.9179,5.8808,5.8015,5.7996,5.7997,5.7997,5.7997,5.7997,5.7997,5.7997,5.7997,3.1664,3.2239,0.0,3.6129,0.0,0.0,0.0,4.6786,0.0,0.0,5.6427,5.5784,5.3856,0.0,0.0,5.8829,6.2516,6.6136,6.7996,6.8741,6.8876,6.8335,6.8774,6.847,6.6846,6.7421,6.7252,6.5696,6.5865,6.5561,6.4546,6.458,6.4106,6.3091,6.3632,6.3429,6.2415,6.2922,6.2651,6.1637,6.2144,6.2381,6.2381,6.1873,6.1907,6.2347,6.1231,6.0994,6.1264,6.0689,6.0317,6.0114,6.0351,6.0013,5.9404,5.9911,6.0114,6.0182,6.0757,6.1095,6.1434,6.2144,6.167,6.0994,6.2042,6.2042,6.1569,6.1366,6.1839,6.2212,6.1501,6.1839,6.2381,6.2381,6.2381,6.2381,6.2381,6.2381,6.2381,6.2381,6.2381,6.2381,6.2381,6.2381,6.2381,6.2381,6.1941,6.1332,6.0554,6.054,6.0423,5.9976,5.9997,6.0023,6.0023,6.076,6.0906,6.0116,6.0772,6.0404,5.8465,5.8885,5.8848,5.8044,5.8014,5.7997,5.7997,5.7997,5.7997,5.7997,5.7997,5.7997,3.3761,3.4506,0.0,3.9952,4.1305,4.2658,4.6549,0.0,0.0,0.0,5.9336,5.8626,5.8017,6.0622,0.0,6.14,6.4377,6.6981,6.7421,6.7895,6.803,6.7523,6.7895,6.7658,6.6271,6.6677,6.6474,6.5121,6.5155,6.4884,6.4005,6.4106,6.3768,6.2854,6.3429,6.3294,6.2415,6.255,6.2178,6.1298,6.1434,6.1467,6.1467,6.1366,6.1535,6.1873,6.0317,5.9945,6.0351,5.9539,5.9235,5.9268,5.9539,5.9201,5.866,5.9404,5.9674,5.9742,6.0216,6.0588,6.0892,6.1332,6.0858,6.0283,6.1197,6.1163,6.0757,6.0486,6.1163,6.1772,6.1028,6.1603,6.2381,6.2381,6.2381,6.2381,6.2381,6.2381,6.2381,6.2381,6.2381,6.2381,6.2381,6.2381,6.2279,6.2009,6.1061,6.0367,6.0194,6.0012,5.9974,6.0307,6.068,6.0879,6.0879,6.1315,6.1277,6.0425,6.0541,5.9859,5.8078,5.875,5.8841,5.8033,5.7997,5.7997,5.7997,5.7997,5.7997,5.7997,5.7997,5.7997,3.5487,3.6434,0.0,4.391,4.4079,0.0,4.9763,5.416,5.849,6.3396,0.0,6.3632,6.4613,6.4275,6.4005,6.4613,6.5899,6.6779,6.6711,6.6779,6.6812,6.6812,6.6745,6.6711,6.6711,6.6034,6.5561,6.5493,6.4884,6.4478,6.441,6.37,6.3328,6.3328,6.2584,6.2178,6.2178,6.1535,6.1163,6.1095,6.0419,6.0047,6.0013,6.0757,6.1061,6.0926,5.9607,5.8964,5.8863,5.8186,5.7881,5.7949,5.866,5.849,5.7983,5.866,5.8964,5.9032,5.9032,5.9438,6.0013,6.008,6.0013,5.9911,6.0047,6.0047,5.9877,5.9201,6.008,6.1028,6.0216,6.1095,6.2178,6.2178,6.2245,6.2279,6.2212,6.2178,6.2212,6.2279,6.2279,6.2313,6.2381,6.2381,6.211,6.1452,6.0095,5.937,6.022,5.9798,5.9674,6.0397,6.1229,6.1715,6.1715,6.1646,6.1263,6.0456,5.9648,5.8841,5.8033,5.8694,5.8767,5.7997,5.7997,5.7997,5.7997,5.7997,5.7997,5.7997,5.7997,5.7997,3.755,3.8396,0.0,0.0,4.4891,4.939,5.6359,5.8693,6.0047,6.2381,6.2279,6.2719,6.5764,6.6203,6.5967,6.5527,6.6237,6.6609,6.6,6.644,6.6812,6.6812,6.6305,6.5933,6.5933,6.5256,6.4613,6.4038,6.3835,6.3497,6.2888,6.2178,6.1772,6.1772,6.0994,6.0588,6.0588,6.0452,6.008,0.0,5.9911,5.981,5.9268,5.9438,5.9201,5.8626,5.8896,5.8693,5.8118,5.7949,5.7881,5.7915,5.8051,5.8017,5.7915,5.8084,5.849,5.9032,5.9032,5.9133,5.9336,5.9911,5.9302,5.8592,5.9742,5.9708,5.9201,5.9066,5.9674,6.0182,5.9438,5.9911,6.0588,6.0588,6.1061,6.1366,6.0723,6.0588,6.0791,6.14,6.1535,6.1704,6.2279,6.2381,6.214,6.1452,6.0563,6.0081,6.0375,6.0807,6.1171,6.1286,6.2076,6.2567,6.2567,6.1935,6.1263,6.0456,5.9648,5.8841,5.8033,5.818,5.818,5.7997,5.7997,5.7997,5.7997,5.7997,5.7997,5.7997,5.7997,5.7997,3.6772,0.0,0.0,4.5534,0.0,5.4194,5.7712,5.9641,6.1095,6.2618,6.2888,6.3463,6.5392,6.5764,6.5628,6.5222,6.5493,6.5628,6.5222,6.5493,6.5764,6.5764,6.5392,6.5155,6.5155,6.4512,6.3937,6.3531,6.3193,6.2651,6.1907,6.1501,6.1129,6.0757,6.0317,6.0114,6.0114,5.9742,5.9404,5.9032,5.9032,5.8863,5.849,5.8863,5.8592,5.7915,5.8321,5.8254,5.7881,5.7881,5.7881,5.7881,5.7881,5.7881,5.7881,5.7881,5.8118,5.8457,5.8457,5.8457,5.8524,5.893,5.8524,5.8017,5.8795,5.8761,5.8457,5.8457,5.8998,5.9471,5.9099,5.9573,6.0013,5.9674,6.0182,6.0622,6.0182,6.0114,6.0216,6.0655,6.0723,6.0858,6.1231,6.134,6.1311,6.0947,6.0558,6.048,6.095,6.1343,6.177,6.2129,6.2567,6.2805,6.2805,6.2071,6.141,6.1006,5.9869,5.9024,5.8584,5.8217,5.7997,5.7997,5.7997,5.7997,5.7997,5.7997,5.7997,5.7997,5.7997,5.7997,3.4878,0.0,4.4045,5.0507,5.4431,0.0,5.7103,5.8998,6.1163,6.2787,6.3802,6.4444,6.458,6.4613,6.4546,6.4444,6.4512,6.4546,6.4444,6.4512,6.4613,6.4613,6.4478,6.4478,6.458,6.3835,6.3362,6.3497,6.2685,6.1941,6.1332,6.1061,6.0622,5.9945,5.9776,5.9708,5.9708,5.9133,5.8829,5.8795,5.8051,5.7645,5.7543,5.8152,5.8186,5.7712,5.7814,5.7746,5.7509,5.7645,5.7712,5.7712,5.7712,5.778,5.7881,5.7881,5.7881,5.7881,5.7881,5.7881,5.7881,5.7881,5.7881,5.7881,5.7881,5.7881,5.7881,5.7881,5.8355,5.8829,5.8829,5.9268,5.9573,5.8964,5.9268,5.9708,5.9708,5.9708,5.9742,5.9877,6.0013,6.0156,6.0306,6.0281,6.0357,6.066,6.0642,6.0879,6.1715,6.1824,6.2076,6.2755,6.2805,6.2768,6.2622,6.1851,6.1337,6.119,5.9832,5.8988,5.8988,5.8364,5.7997,5.7997,5.7997,5.7997,5.7997,5.7997,5.7997,5.7997,5.7997,5.7997,3.3457,0.0,4.4587,0.0,5.1725,5.3281,0.0,0.0,5.8964,0.0,6.2685,6.3869,6.4478,6.4613,6.441,6.3768,6.4174,6.4377,6.3768,6.4208,6.4613,6.4613,6.4038,6.3903,6.4546,6.3362,6.2821,6.3463,6.2212,6.14,6.1298,6.0047,5.9268,5.9167,5.8524,5.8186,5.8186,5.8084,5.8051,5.8017,5.7306,5.663,5.6021,5.6122,5.6461,5.6968,5.7611,5.7171,5.6055,5.6697,5.6934,5.6934,5.6934,5.734,5.7881,5.7881,5.7881,5.7881,5.7881,5.7881,5.7881,5.7881,5.7881,5.7881,5.7881,5.7881,5.7881,5.7881,5.7949,5.8051,5.8051,5.8118,5.8152,5.8051,5.8118,5.8186,5.8186,5.8186,5.8389,5.9032,5.9674,6.0381,6.1114,6.067,6.0792,6.2177,6.1846,6.1715,6.2515,6.2618,6.2705,6.2805,6.2805,6.2511,6.1814,6.1006,6.0272,5.9575,5.8657,5.8143,5.8143,5.807,5.7997,5.7997,5.7997,5.7997,5.7997,5.7997,5.7997,5.7997,5.7997,5.7997,3.5723,3.9005,4.2794,0.0,5.0913,5.0947,5.7002,5.7171,5.69,6.0013,6.1501,6.2482,6.3226,6.3362,6.326,6.2956,6.3159,6.326,6.2922,6.3159,6.3193,6.2787,6.2482,6.2415,6.2719,6.1772,6.1434,6.2212,6.1264,6.0452,6.0047,5.937,5.8829,5.8389,5.7679,5.7273,5.7273,5.6867,5.6664,5.6664,5.6359,5.6021,5.5716,5.5716,5.5886,5.6224,5.6528,5.6325,5.575,5.6055,5.619,5.619,5.619,5.663,5.7273,5.7273,5.7543,5.7881,5.7881,5.7881,5.7881,5.7881,5.7881,5.7881,5.7881,5.7881,5.7881,5.7881,5.7881,5.7881,5.7881,5.7881,5.7881,5.7881,5.7881,5.7881,5.7881,5.7881,5.8095,5.8939,5.9318,5.9805,6.0688,6.0952,6.1259,6.1996,6.2187,6.2376,6.2755,6.2805,6.2658,6.2181,6.2548,6.2475,6.1667,6.1704,6.1594,6.1263,6.0052,5.9355,5.9355,5.8474,5.7997,5.7997,5.7997,5.7997,5.7997,5.7997,5.7997,5.7997,5.7997,5.7997,0.0,0.0,3.9918,4.8511,4.8409,4.7834,0.0,0.0,5.4431,5.7983,5.9911,6.1163,6.1704,6.2144,6.2347,6.2144,6.211,6.2042,6.1839,6.1806,6.1603,6.1061,6.0994,6.0994,6.0994,6.0452,6.0351,6.096,6.008,5.9302,5.8761,5.8389,5.7915,5.734,5.6799,5.6528,5.6528,5.5987,5.5615,5.5446,5.5446,5.5344,5.5141,5.5141,5.5141,5.5175,5.5547,5.5513,5.5175,5.5344,5.5446,5.5446,5.5446,5.5886,5.6528,5.6528,5.6867,5.734,5.734,5.734,5.734,5.734,5.7476,5.7611,5.7611,5.7746,5.7881,5.7881,5.7881,5.7881,5.7881,5.7881,5.7881,5.7881,5.7881,5.7954,5.8137,5.7993,5.8137,5.8943,5.9111,5.9377,6.0211,6.1055,6.1659,6.1879,6.2412,6.2732,6.2511,6.2695,6.2511,6.1704,6.2328,6.2401,6.1374,6.1851,6.2034,6.163,6.0456,5.9795,5.9795,5.8621,5.7997,5.7997,5.7997,5.7997,5.7997,5.7997,5.7997,5.7997,5.7997,5.8051,0.0,3.3694,0.0,4.1508,4.2219,4.276,4.7394,4.9424,5.1183,5.4262,5.7679,6.0182,6.0216,6.14,6.2178,6.1467,6.1366,6.1095,6.0317,6.0216,6.0216,6.0182,6.0148,6.0148,6.0148,6.0114,6.0114,6.0148,5.8829,5.7983,5.7949,5.663,5.5886,5.5818,5.5784,5.5784,5.5784,5.575,5.5344,5.4668,5.4668,5.4296,5.3619,5.3619,5.3619,5.3687,5.5108,5.4938,5.3687,5.4363,5.4668,5.4668,5.4668,5.5108,5.5784,5.5784,5.5784,5.5818,5.5818,5.5818,5.5818,5.5818,5.6292,5.6867,5.6867,5.734,5.7881,5.7881,5.7881,5.7881,5.7881,5.7881,5.7881,5.7881,5.7881,5.8137,5.8875,5.8458,5.8137,5.8943,5.9111,5.9377,6.0211,6.1055,6.1824,6.2618,6.2755,6.2548,6.1741,6.2328,6.2511,6.1704,6.2328,6.2181,6.0603,6.0493,5.9869,5.8364,5.818,5.8107,5.8107,5.8033,5.7997,5.7997,5.7997,5.7997,5.7997,5.7997,5.7997,5.7997,5.7997,5.8238,0.0,0.0,3.3152,3.9343,3.9242,3.9039,4.4519,4.6921,4.8409,4.9999,5.4769,5.8254,5.6833,5.8964,6.0825,6.0554,6.052,6.0419,6.0148,6.0114,5.9911,5.9471,5.9404,5.9404,5.9404,5.8964,5.8693,5.8693,5.5953,5.4938,5.6427,5.416,5.3721,5.5649,5.5243,5.4769,5.4296,5.4296,5.416,5.389,5.389,5.3754,5.3518,5.3518,5.3518,5.3551,5.4059,5.3991,5.3518,5.3788,5.389,5.389,5.389,5.4329,5.5006,5.5006,5.531,5.5716,5.5716,5.5716,5.5716,5.5716,5.6224,5.6799,5.6799,5.6968,5.7273,5.7746,5.7543,5.7306,5.778,5.7881,5.7993,5.8564,5.9078,5.9704,6.0544,5.9604,5.9044,6.0423,6.0725,6.0961,6.1806,6.2166,6.2464,6.2755,6.2805,6.2695,6.2401,6.2622,6.2511,6.1704,6.1851,6.1594,6.0493,6.0419,6.0162,5.9575,5.9061,5.8767,5.8767,5.8767,5.8547,5.7997,5.8799,5.8799,5.7997,5.8326,5.8461,5.8461,5.8756,5.899,2.9736,0.0,0.0,3.552,3.5419,3.5453,4.0426,4.3707,4.6007,4.7293,5.2469,5.6393,5.5175,5.6968,5.8863,5.9607,5.9742,5.9573,5.9066,5.9201,5.8998,5.8017,5.8118,5.8186,5.7949,5.7442,5.7171,5.7171,5.4634,0.0,5.5243,5.3213,5.2909,5.4905,5.4499,5.3991,5.3518,5.3518,5.3518,5.3518,5.3518,5.3518,5.3518,5.3518,5.3518,5.3518,5.3518,5.3518,5.3518,5.3518,5.3518,5.3518,5.3518,5.3788,5.4228,5.4228,5.4532,5.4972,5.4972,5.4972,5.4972,5.4972,5.548,5.6055,5.6055,5.6224,5.6528,5.7036,5.7002,5.6972,5.7769,5.8152,5.8496,5.9342,5.9749,6.026,6.1364,6.0484,5.9925,6.1343,6.1604,6.177,6.2324,6.2618,6.2805,6.2805,6.2805,6.2622,6.2071,6.2254,6.2108,6.1263,6.119,6.097,6.0456,6.0162,5.9905,5.9612,5.9098,5.8804,5.8804,5.9061,5.8897,5.8275,5.9324,5.9409,5.8503,5.8756,5.8951,5.8951,5.9248,5.9492,0.0,0.0,0.0,2.9668,3.0615,3.1935,3.481,3.9512,4.3876,4.6109,5.0744,5.4634,5.5412,5.5615,5.6393,5.8558,5.893,5.8423,5.6968,5.7374,5.7306,5.5886,5.6325,5.6494,5.5784,5.5716,5.5716,5.5683,5.4905,5.4499,5.4566,5.389,5.3518,5.3518,5.3484,5.345,5.345,5.345,5.345,5.345,5.345,5.3484,5.3518,5.3518,5.3518,5.3518,5.3518,5.3518,5.3518,5.3518,5.3518,5.3518,5.3518,5.3518,5.3518,5.3518,5.3518,5.3518,5.3518,5.3518,5.3518,5.3518,5.3991,5.46,5.46,5.5108,5.5683,5.5716,5.619,5.6981,5.7803,5.8577,5.9406,6.0149,5.976,5.9681,6.1276,6.0997,6.07,6.1456,6.1659,6.1659,6.1659,6.2271,6.2805,6.2805,6.2805,6.2218,6.0676,6.1117,6.13,6.0529,6.0419,6.0382,6.0382,5.9648,5.8841,5.8033,5.7997,5.7997,5.7997,5.8767,5.9042,5.8713,5.9495,5.9775,5.9424,5.9424,5.9424,5.9424,5.9424,5.9696,2.6691,0.0,0.0,0.0,0.0,0.0,3.2104,3.5622,3.9106,4.0798,4.5737,5.0135,5.142,5.3416,5.5277,5.6427,5.663,5.6494,5.6089,5.619,5.6156,5.5784,5.5886,5.5919,5.575,5.5716,5.548,0.0,5.2672,5.2063,5.3721,5.3619,5.3518,5.3518,5.2942,5.2638,5.2638,5.2097,5.2097,5.2638,5.2638,5.2942,5.3518,5.3518,5.3518,5.3518,5.3518,5.3518,5.3518,5.3518,5.3518,5.3518,5.3518,5.3518,5.3518,5.3518,5.3518,5.3518,5.3518,5.3518,5.3518,5.3518,5.3991,5.46,5.46,5.4735,5.5144,5.6198,5.626,5.6318,5.7666,5.8556,5.9255,5.947,6.0268,6.1054,6.1514,6.187,6.2219,6.2427,6.2464,6.2464,6.2464,6.2618,6.2805,6.2805,6.2291,6.1998,6.2144,6.1814,6.152,6.13,6.075,6.0162,5.9612,5.8804,5.8253,5.7997,5.7997,5.7997,5.7997,5.9102,5.9404,5.8713,6.0148,6.0595,5.9916,5.9916,5.9916,5.9916,6.0245,6.0482,0.0,0.0,0.0,0.0,0.0,0.0,3.0886,3.4573,3.8193,3.9986,4.4891,4.8883,4.9154,5.0608,5.1961,5.2401,5.2469,5.3112,5.4972,5.5513,5.548,5.4871,5.5074,5.5141,5.4837,5.4803,5.4465,5.3687,5.1995,5.1454,5.2503,5.2536,5.2536,5.2536,5.2097,5.186,5.186,5.142,5.142,5.186,5.186,5.2097,5.2536,5.2536,5.2536,5.2536,5.2536,5.2739,5.301,5.301,5.3213,5.3518,5.3518,5.3518,5.3518,5.3518,5.3518,5.3518,5.3518,5.3518,5.3518,5.3518,5.4023,5.4561,5.4561,5.4789,5.5242,5.6125,5.6526,5.6988,5.8174,5.8844,5.9278,5.9605,6.0163,6.0676,6.1043,6.1741,6.2401,6.2732,6.2805,6.2805,6.2805,6.2805,6.2805,6.2805,6.2108,6.1777,6.2254,6.13,6.075,6.1043,6.0089,5.9501,5.9685,5.8657,5.8143,5.8474,5.818,5.7997,5.7997,5.9196,5.9614,5.899,6.0492,6.1,6.0365,6.0365,6.0365,6.0391,6.0671,6.0781,0.0,0.0,0.0,0.0,2.7739,0.0,3.0345,3.4404,3.8464,4.0933,4.5128,4.8105,4.7327,4.7192,4.7192,4.7293,4.7361,4.8917,5.3247,5.4634,5.4634,5.3078,5.3687,5.3957,5.3315,5.3247,5.2942,5.2232,5.2198,5.1894,5.1251,5.1217,5.1217,5.1217,5.115,5.1082,5.1082,5.1014,5.1014,5.1082,5.1082,5.115,5.1217,5.1217,5.1217,5.1217,5.1217,5.1589,5.2198,5.2198,5.2706,5.3518,5.3518,5.3518,5.3518,5.3518,5.3518,5.3518,5.3518,5.3518,5.3518,5.3518,5.4011,5.4606,5.4606,5.5084,5.5724,5.5836,5.6922,5.8208,5.8895,5.9101,5.9245,5.9979,5.9685,5.9428,6.0126,6.0896,6.1667,6.2401,6.2695,6.2805,6.2805,6.2805,6.2805,6.2805,6.2034,6.1484,6.1594,6.0199,5.9501,6.0199,5.8988,5.8694,6.0015,5.8804,5.8327,5.9024,5.84,5.8042,5.8051,5.9213,5.9739,5.9496,6.0639,6.1141,6.0935,6.0858,6.0781,6.0781,6.0781,6.0781,0.0,0.0,0.0,0.0,0.0,0.0,2.8383,2.9262,3.1157,3.5182,3.684,3.8565,4.188,4.2523,4.2692,4.3301,4.391,4.5432,4.8748,5.0879,5.1319,4.9255,5.071,5.1826,5.1691,5.1657,5.1589,5.1454,5.142,5.1352,5.1217,5.1217,5.1217,5.1217,5.0608,5.0304,5.0304,4.9729,4.9729,5.0304,5.0304,5.0642,5.1217,5.1217,5.1217,5.1217,5.1217,5.1285,5.142,5.142,5.2232,5.3518,5.3518,5.3518,5.3518,5.3518,5.3518,5.3518,5.3518,5.3518,5.3518,5.3518,5.4011,5.4606,5.4606,5.5084,5.5836,5.6474,5.7325,5.803,5.8213,5.8234,5.8253,5.8437,5.8841,5.9245,5.9428,6.0089,6.0676,6.086,6.1924,6.2805,6.2805,6.2805,6.2805,6.2805,6.1557,6.086,6.152,6.0199,5.9281,5.9428,5.9171,5.8841,5.851,5.818,5.807,5.8217,5.8107,5.8186,5.8549,5.9178,5.9609,5.9946,6.0583,6.1209,6.182,6.1127,6.0781,6.0781,6.0781,6.0781,0.0,0.0,0.0,2.7368,0.0,0.0,0.0,2.9717,3.1534,3.3533,3.5148,3.6535,3.7652,3.7855,3.8091,3.8836,3.9276,4.0189,4.2083,4.6515,4.956,4.956,5.0541,5.1217,5.1217,5.1217,5.1048,5.0676,5.0304,5.0101,5.0101,5.0101,5.0101,5.0101,4.9729,4.956,4.956,4.9187,4.9187,4.956,4.956,4.9763,5.0101,5.0101,5.0101,5.0101,5.0101,5.0304,5.0642,5.0642,5.1319,5.2401,5.2773,5.3145,5.3518,5.3518,5.3518,5.3551,5.3946,5.4042,5.4106,5.4516,5.5119,5.5759,5.5759,5.6259,5.6927,5.7351,5.7726,5.7997,5.7997,5.7997,5.7997,5.7997,5.8327,5.8621,5.8621,5.9245,5.9795,5.9795,6.1117,6.2071,6.1667,6.1594,6.1594,6.1594,6.0603,6.0089,6.0896,5.9612,5.8767,5.9171,5.8841,5.8767,5.9171,5.8841,5.8869,5.9509,5.9183,5.8995,5.9065,5.9492,5.9946,6.0456,6.0671,6.1012,6.1435,6.1012,6.0781,6.0781,6.0781,6.0781,0.0,0.0,0.0,0.0,0.0,2.9968,0.0,0.0,0.0,3.2701,3.4542,3.5766,3.398,3.3549,3.3668,3.4321,3.4617,3.5148,3.6197,4.1644,4.6312,4.8409,4.8917,4.912,4.9289,4.9695,4.9796,4.9492,4.9052,4.8748,4.8578,4.8714,4.8714,4.8578,4.8849,4.8951,4.8815,4.8951,4.9018,4.9018,4.8849,4.8883,4.9018,4.8849,4.8883,4.9018,4.9018,4.9323,4.9864,5.0051,5.0555,5.124,5.1857,5.2535,5.3309,5.3445,5.3579,5.3806,5.4537,5.4818,5.4939,5.5495,5.6259,5.6912,5.7065,5.7498,5.7997,5.7997,5.7997,5.7997,5.7997,5.7997,5.7997,5.7997,5.7997,5.7997,5.7997,5.851,5.8988,5.8988,6.0015,6.0786,6.0456,6.0529,6.0566,6.0419,5.9722,5.9428,6.0089,5.8914,5.8327,5.9134,5.8474,5.8584,6.0052,5.9669,5.976,6.0832,6.036,6.0003,5.9791,6.0091,6.0468,6.105,6.0896,6.0858,6.105,6.0858,6.0781,6.0781,6.0781,6.0781,0.0,0.0,0.0,0.0,3.0627,0.0,0.0,0.0,3.0521,2.9691,0.0,3.056,3.0585,0.0,0.0,3.0143,3.1052,3.2408,3.4472,3.6062,3.7618,3.9242,4.0561,4.161,4.2286,4.4147,4.5838,4.7056,4.7699,4.7767,4.709,4.7665,4.7733,4.7056,4.8308,4.8714,4.8037,4.868,4.9018,4.8984,4.8342,4.8376,4.8984,4.8342,4.8376,4.9018,4.9018,4.9052,4.9182,4.9742,5.0448,5.1218,5.1269,5.1799,5.252,5.3237,5.3868,5.4486,5.5305,5.561,5.561,5.5667,5.6259,5.7015,5.7679,5.795,5.7997,5.7997,5.7997,5.7997,5.7997,5.7997,5.7997,5.7997,5.7997,5.7997,5.7997,5.807,5.8143,5.8143,5.829,5.8841,6.0162,6.1006,6.1227,6.0529,5.9722,5.9245,5.9318,5.8547,5.8327,5.9134,5.8474,5.8364,5.9281,5.9715,5.998,6.0095,6.0417,6.0808,6.1149,6.0865,6.1104,6.1935,6.1166,6.1166,6.1935,6.1166,6.0781,6.0781,6.0781,6.0781,0.0,0.0,0.0,0.0,0.0,0.0,3.3586,0.0,3.1058,0.0,0.0,0.0,0.0,0.0,0.0,0.0,2.9617,3.0387,3.1773,3.2187,3.3928,3.8038,3.9073,0.0,4.2286,4.2185,4.2794,4.4688,4.5128,4.5162,4.4857,4.638,4.7124,4.6819,4.7394,4.7564,4.7259,4.7564,4.7733,4.7699,4.7394,4.7428,4.7699,4.7739,4.7773,4.7699,4.8104,4.8517,4.8953,4.9262,5.0105,5.1134,5.115,5.1869,5.2901,5.3274,5.3549,5.3989,5.5241,5.5687,5.5864,5.6747,5.7266,5.7631,5.7904,5.7997,5.7997,5.7997,5.7997,5.7997,5.7997,5.7997,5.7997,5.7997,5.7997,5.7997,5.7997,5.7997,5.7997,5.7997,5.84,5.8767,5.8988,5.9281,5.9391,5.9061,5.8731,5.851,5.851,5.8621,5.8657,5.851,5.8621,5.8943,5.9553,5.9817,6.0187,6.0705,6.0746,6.0846,6.1045,6.0902,6.0973,6.132,6.0973,6.0973,6.132,6.0973,6.0781,6.0781,6.0781,6.0781,3.6437,0.0,0.0,0.0,0.0,0.0,0.0,0.0,0.0,0.0,0.0,0.0,0.0,0.0,0.0,0.0,0.0,2.9213,2.9717,2.9788,3.1567,3.6302,3.7694,0.0,0.0,4.0235,4.034,4.1325,4.2377,4.2833,4.2523,4.5026,4.6413,4.6177,4.6583,4.6684,4.6481,4.6684,4.6786,4.6786,4.6782,4.6839,4.7067,4.7464,4.7519,4.7352,4.7781,4.8328,4.887,4.903,4.9905,5.1073,5.1272,5.213,5.3294,5.3317,5.344,5.3826,5.546,5.6115,5.6503,5.7637,5.7997,5.7997,5.7997,5.7997,5.7997,5.7997,5.7997,5.7997,5.7997,5.7997,5.7997,5.7997,5.7997,5.7997,5.7997,5.7997,5.7997,5.7997,5.8474,5.8694,5.8107,5.818,5.8253,5.8033,5.7997,5.7997,5.7997,5.8612,5.8923,5.8555,5.8947,5.9467,6.0068,6.0226,6.0634,6.1488,6.1288,6.105,6.0819,6.1012,6.105,6.0781,6.1012,6.105,6.0781,6.0781,6.0781,6.0781,6.0781,6.0781,0.0,0.0,0.0,3.6025,0.0,0.0,0.0,0.0,3.3266,0.0,0.0,0.0,0.0,0.0,0.0,0.0,0.0,0.0,0.0,2.9036,2.9642,3.1276,3.4306,3.5607,0.0,3.7317,3.87,3.6578,3.98,4.1389,4.0273,4.3707,4.5399,4.4688,4.6041,4.6447,4.5737,4.6447,4.6786,4.6786,4.6674,4.6999,4.7692,4.7608,4.7978,4.8635,4.8685,4.8685,4.877,4.9399,5.0145,5.1004,5.1688,5.2485,5.3207,5.3277,5.3753,5.4613,5.619,5.7253,5.7914,5.7997,5.7997,5.7997,5.7997,5.7997,5.7997,5.7997,5.7997,5.7997,5.7997,5.7997,5.7997,5.7997,5.7997,5.7997,5.7997,5.7997,5.7997,5.7997,5.8033,5.8033,5.7997,5.8657,5.8914,5.8107,5.7997,5.7997,5.7997,5.8412,5.9008,5.9789,5.9591,5.9731,6.0488,6.1045,6.1545,6.2026,6.205,6.1666,6.0819,6.1589,6.1666,6.0819,6.1627,6.1627,6.0781,6.0781,6.0781,6.0781,6.0781,6.0781,0.0,0.0,4.4635,4.269,0.0,0.0,0.0,0.0,0.0,0.0,0.0,0.0,0.0,0.0,0.0,0.0,0.0,0.0,0.0,2.7731,2.7804,2.883,3.0401,3.1741,3.2511,3.3036,3.3384,3.3554,3.5227,3.6301,3.6464,4.0246,4.2518,4.2809,4.4868,4.5814,4.5574,4.617,4.6567,4.6532,4.6455,4.6639,4.685,4.7308,4.7354,4.7227,4.765,4.8155,4.8657,4.8884,4.9989,5.1651,5.1894,5.2491,5.3182,5.323,5.3383,5.3849,5.5464,5.6859,5.7997,5.7997,5.7997,5.7997,5.7997,5.7997,5.7997,5.7997,5.7997,5.7997,5.7997,5.7997,5.7997,5.7997,5.7997,5.7997,5.7997,5.7997,5.7997,5.7997,5.7997,5.7997,5.7997,5.8217,5.8327,5.8033,5.7997,5.8097,5.8418,5.9074,5.9505,5.9553,5.9962,6.021,6.0241,6.0731,6.1044,6.1243,6.1243,6.1089,6.0819,6.1089,6.1089,6.0819,6.1089,6.1089,6.0781,6.0781,6.0781,6.0781,6.0781,6.0781,4.5553,4.6764,0.0,4.5443,4.3864,0.0,4.1368,0.0,3.5899,0.0,0.0,0.0,0.0,0.0,0.0,0.0,0.0,0.0,0.0,2.6943,2.6796,2.731,2.89,3.0219,3.0986,3.0787,3.069,3.0836,3.1794,3.2647,3.3319,3.7945,4.0828,4.1313,4.4251,4.5815,4.5815,4.6209,4.6365,4.6413,4.6646,4.6774,4.6774,4.7428,4.747,4.7088,4.7512,4.8006,4.8514,4.8805,5.0003,5.161,5.1867,5.2491,5.3225,5.3225,5.3408,5.3812,5.5133,5.6455,5.7629,5.7923,5.7997,5.7997,5.7997,5.7997,5.807,5.8364,5.8217,5.807,5.8364,5.8217,5.7997,5.7997,5.7997,5.7997,5.7997,5.7997,5.7997,5.7997,5.7997,5.7997,5.7997,5.8142,5.8194,5.8042,5.8142,5.8332,5.8673,5.9439,5.9886,5.9668,6.0247,6.0586,6.0349,6.0622,6.0781,6.0781,6.0781,6.0781,6.0781,6.1089,6.1396,6.1666,6.1396,6.1396,6.1704,6.1089,6.0781,6.0781,6.0781,6.0781]},{"header":{"parameterUnit":"m.s-1","parameterCategory":1,"la1":30.6,"la2":29.2853,"lo1":-89.7004,"lo2":-87.6739,"dy":0.0162,"dx":0.0183,"nx":112,"ny":82,"refTime":"2023-09-15T00:00:00:Z","depth":0,"parameterNumber":3,"parameterNumberName":"V-component_of_WINDS"},"data":[0.0,0.0,0.0,0.0,0.0,0.0,0.0,0.0,0.0,0.0,0.0,0.0,0.0,0.0,0.0,0.0,0.0,0.0,0.0,0.0,0.0,0.0,0.0,0.0,0.0,0.0,0.0,0.0,0.0,0.0,0.0,0.0,0.0,0.0,0.0,0.0,0.0,0.0,0.0,0.0,0.0,0.0,0.0,0.0,0.0,0.0,0.0,0.0,0.0,0.0,0.0,0.0,0.0,0.0,0.0,0.0,0.0,0.0,0.0,0.0,0.0,0.0,0.0,0.0,0.0,0.0,0.0,0.0,0.0,0.0,0.0,0.0,0.0,0.0,0.0,0.0,0.0,0.0,0.0,0.0,0.0,0.0,0.0,0.0,0.0,0.0,0.0,0.0,0.0,0.0,1.2545,1.4122,1.5217,1.5725,1.5484,1.5685,1.5084,1.332,0.0,0.0,0.0,0.0,0.0,0.0,0.0,0.0,0.0,0.0,0.0,0.0,0.0,0.0,0.0,0.0,0.0,0.0,0.0,0.0,0.0,0.0,0.0,0.0,0.0,0.0,0.0,0.0,0.0,0.0,0.0,0.0,0.0,0.0,0.0,0.0,0.0,0.0,0.0,0.0,0.0,0.0,0.0,0.0,0.0,0.0,0.0,0.0,0.0,0.0,0.0,0.0,0.0,0.0,0.0,0.0,0.0,0.0,0.0,0.0,0.0,0.0,0.0,0.0,0.0,0.0,0.0,0.0,0.0,0.0,0.0,0.0,0.0,0.0,0.0,0.0,0.0,0.0,0.0,0.0,0.0,0.0,0.0,0.0,0.0,0.0,0.0,0.0,0.0,0.0,0.0,0.0,0.0,0.0,0.0,0.0,0.0,0.0,0.0,0.0,0.0,0.0,0.0,0.0,1.2999,1.499,1.5578,1.5805,1.5765,1.5805,1.5084,1.332,0.0,0.0,0.0,0.0,0.0,0.0,0.0,0.0,0.0,0.0,0.0,0.0,0.0,0.0,0.0,0.0,0.0,0.0,0.0,0.0,0.0,0.0,0.0,0.0,0.0,0.0,0.0,0.0,0.0,0.0,0.0,0.0,0.0,0.0,0.0,0.0,0.0,0.0,0.0,0.0,0.0,0.0,0.0,0.0,0.0,0.0,0.0,0.0,0.0,0.0,0.0,0.0,0.0,0.0,0.0,0.0,0.0,0.0,0.0,0.0,0.0,0.0,0.0,0.0,0.0,0.0,0.0,0.0,0.0,0.0,0.0,0.0,0.0,0.0,0.0,0.0,0.0,0.0,0.0,0.0,0.0,0.0,0.0,0.0,0.0,0.0,0.0,0.0,0.0,0.0,0.0,0.0,0.0,0.0,0.0,0.0,0.0,0.0,0.0,0.0,0.0,0.0,0.0,1.2812,1.4162,1.5271,1.5658,1.5832,1.5832,1.5832,1.5084,1.332,1.3333,0.0,0.0,0.0,0.0,0.0,0.0,0.0,0.0,0.0,0.0,0.0,0.0,0.0,0.0,0.0,0.0,0.0,0.0,0.0,0.0,0.0,0.0,0.0,0.0,0.0,0.0,0.0,0.0,0.0,0.0,0.0,0.0,0.0,0.0,0.0,0.0,0.0,0.0,0.0,0.0,0.0,0.0,0.0,0.0,0.0,0.0,0.0,0.0,0.0,0.0,0.0,0.0,0.0,0.0,0.0,0.0,0.0,0.0,0.0,0.0,0.0,0.0,0.0,0.0,0.0,0.0,0.0,0.0,0.0,0.0,0.0,0.0,0.0,0.0,0.0,0.0,0.0,0.0,0.0,0.0,0.0,0.0,0.0,0.0,0.0,0.0,0.0,0.0,0.0,0.0,0.0,0.0,0.0,0.0,0.0,0.0,0.0,0.0,0.0,0.0,0.0,0.0,1.3908,1.5097,1.5458,1.5698,1.5832,1.5832,1.5832,1.5084,1.332,1.3358,0.0,0.0,0.0,0.0,0.0,0.0,0.0,0.0,0.0,0.0,0.0,0.0,0.0,0.0,0.0,0.0,0.0,0.0,0.0,0.0,0.0,0.0,0.0,0.0,0.0,0.0,0.0,0.0,0.0,0.0,0.0,0.0,0.0,0.0,0.0,0.0,0.0,0.0,0.0,0.0,0.0,0.0,0.0,0.0,0.0,0.0,0.0,0.0,0.0,0.0,0.0,0.0,0.0,0.0,0.0,0.0,0.0,0.0,0.0,0.0,0.0,0.0,0.0,0.0,0.0,0.0,0.0,0.0,0.0,0.0,0.0,0.0,0.0,0.0,0.0,0.0,0.0,0.0,0.0,0.0,0.0,0.0,0.0,0.0,0.0,0.0,0.0,0.0,0.0,0.0,0.0,0.0,0.0,0.0,0.0,0.0,0.0,0.0,0.0,0.0,0.0,0.0,1.4028,1.5177,1.5738,1.5818,1.5832,1.5832,1.5832,1.5084,1.332,1.3895,0.0,0.0,0.0,0.0,0.0,0.0,0.0,0.0,0.0,0.0,0.0,0.0,0.0,0.0,0.0,0.0,0.0,0.0,0.0,0.0,0.0,0.0,0.0,0.0,0.0,0.0,0.0,0.0,0.0,0.0,0.0,0.0,0.0,0.0,0.0,0.0,0.0,0.0,0.0,0.0,0.0,0.0,0.0,0.0,0.0,0.0,0.0,0.0,0.0,0.0,0.0,0.0,0.0,0.0,0.0,0.0,0.0,0.0,0.0,0.0,0.0,0.0,0.0,0.0,0.0,0.0,0.0,0.0,0.0,0.0,0.0,0.0,0.0,0.0,0.0,0.0,0.0,0.0,0.0,0.0,0.0,0.0,0.0,0.0,0.0,0.0,0.0,0.0,0.0,0.0,0.0,0.0,0.0,0.0,0.0,0.0,0.0,0.0,0.0,0.0,0.0,0.0,1.4202,1.5391,0.0,1.5832,1.5832,1.5832,1.5832,1.5251,1.4008,0.0,0.0,0.0,0.0,0.0,0.0,0.0,0.0,0.0,0.0,0.0,0.0,0.0,0.0,0.0,0.0,0.0,0.0,0.0,0.0,0.0,0.0,0.0,0.0,0.0,0.0,0.0,0.0,0.0,0.0,0.0,0.0,0.0,0.0,0.0,0.0,0.0,0.0,0.0,0.0,0.0,0.0,0.0,0.0,0.0,0.0,0.0,0.0,0.0,0.0,0.0,0.0,0.0,0.0,0.0,0.0,0.0,0.0,0.0,0.0,0.0,0.0,0.0,0.0,0.0,0.0,0.0,0.0,0.0,0.0,0.0,0.0,0.0,0.0,0.0,0.0,0.0,0.0,0.0,0.0,0.0,0.0,0.0,0.0,0.0,0.0,0.0,0.0,0.0,0.0,0.0,0.0,0.0,0.0,0.0,0.0,0.0,0.0,0.0,0.0,0.0,0.0,1.2852,1.4442,1.5605,0.0,1.5832,1.5832,1.5832,1.5832,1.5431,1.4467,0.0,0.0,0.0,0.0,0.0,0.0,0.0,0.0,0.0,0.0,0.0,0.0,0.0,0.0,0.0,0.0,0.0,0.0,0.0,0.0,0.0,0.0,0.0,0.0,0.0,0.0,0.0,0.0,0.0,0.0,0.0,0.0,0.0,0.0,0.0,0.0,0.0,0.0,0.0,0.0,0.0,0.0,0.0,0.0,0.0,0.0,0.0,0.0,0.0,0.0,0.0,0.0,0.0,0.0,0.0,0.0,0.0,0.0,0.0,0.0,0.0,0.0,0.0,0.0,0.0,0.0,0.0,0.0,0.0,0.0,0.0,0.0,0.0,0.0,0.0,0.0,0.0,0.0,0.0,0.0,0.0,0.0,0.0,0.0,0.0,0.0,0.0,0.0,0.0,0.0,0.0,0.0,0.0,0.0,0.0,0.0,0.0,0.0,0.0,0.0,0.0,0.0,1.3173,1.4736,1.5832,1.5832,1.5832,1.5832,1.5832,1.5832,1.5431,0.0,0.0,0.0,0.0,0.0,0.0,0.0,0.0,0.0,0.0,0.0,0.0,0.0,0.0,0.0,0.0,0.0,0.0,0.0,0.0,0.0,0.0,0.0,0.0,0.0,0.0,0.0,0.0,0.0,0.0,0.0,0.0,0.0,0.0,0.0,0.0,0.0,0.0,0.0,0.0,0.0,0.0,0.0,0.0,0.0,0.0,0.0,0.0,0.0,0.0,0.0,0.0,0.0,0.0,0.0,0.0,0.0,0.0,0.0,0.0,0.0,0.0,0.0,0.0,0.0,0.0,0.0,0.0,0.0,0.0,0.0,0.0,0.0,0.0,0.0,0.0,0.0,0.0,0.0,0.0,0.0,0.0,0.0,0.0,0.0,0.0,0.0,0.0,0.0,0.0,0.0,0.0,0.0,0.0,0.0,0.0,0.0,0.0,0.0,0.0,0.0,0.0,0.0,1.32,1.4736,1.5832,1.5832,1.5832,1.5832,1.5832,1.5832,1.5784,1.573,0.0,0.0,0.0,0.0,0.0,0.0,0.0,0.0,0.0,0.0,0.0,0.0,0.0,0.0,0.0,0.0,0.0,0.0,0.0,0.0,0.0,0.0,0.0,0.0,0.0,0.0,0.0,0.0,0.0,0.0,0.0,0.0,0.0,0.0,0.0,0.0,0.0,0.0,0.0,0.0,0.0,0.0,0.0,0.0,0.0,0.0,0.0,0.0,0.0,0.0,0.0,0.0,0.0,0.0,0.0,0.0,0.0,0.0,0.0,0.0,0.0,0.0,0.0,0.0,0.0,0.0,0.0,0.0,0.0,0.0,0.0,0.0,0.0,0.0,0.0,0.0,0.0,0.0,0.0,0.0,0.0,0.0,0.0,0.0,0.0,0.0,0.0,0.0,0.0,0.0,0.0,0.0,0.0,0.0,0.0,0.0,0.0,0.0,0.0,0.0,0.0,0.0,1.3026,1.4669,1.5832,1.5832,1.5939,1.6005,1.6005,1.6112,1.6415,1.6972,0.0,0.0,0.0,0.0,0.0,0.0,0.0,0.0,0.0,0.0,0.0,0.0,0.0,0.0,0.0,0.0,0.0,0.0,0.0,0.0,0.0,0.0,0.0,0.0,0.0,0.0,0.0,0.0,0.0,0.0,0.0,0.0,0.0,0.0,0.0,0.0,0.0,0.0,0.0,0.0,0.0,0.0,0.0,0.0,0.0,0.0,0.0,0.0,0.0,0.0,0.0,0.0,0.0,0.0,0.0,0.0,0.0,0.0,0.0,0.0,0.0,0.0,0.0,0.0,0.0,0.0,0.0,0.0,0.0,0.0,0.0,0.0,0.0,0.0,0.0,0.0,0.0,0.0,0.0,0.0,0.0,0.0,0.0,0.0,0.0,0.0,0.0,0.0,0.0,0.0,0.0,0.0,0.0,0.0,0.0,0.0,0.0,0.0,0.0,0.0,0.0,0.0,1.2822,1.4549,1.5845,1.5872,1.6112,1.6286,1.6313,1.6553,1.7077,1.8081,0.0,0.0,0.0,0.0,0.0,0.0,0.0,0.0,0.0,0.0,0.0,0.0,0.0,0.0,0.0,0.0,0.0,0.0,0.0,0.0,0.0,0.0,0.0,0.0,0.0,0.0,0.0,0.0,0.0,0.0,0.0,0.0,0.0,0.0,0.0,0.0,0.0,0.0,0.0,0.0,0.0,0.0,0.0,0.0,0.0,0.0,0.0,0.0,0.0,0.0,0.0,0.0,0.0,0.0,0.0,0.0,0.0,0.0,0.0,0.0,1.2492,0.0,0.0,0.0,0.0,0.0,0.0,0.0,0.0,0.0,0.0,0.0,0.0,0.0,0.0,0.0,0.0,0.0,0.0,0.0,0.0,0.0,0.0,0.0,0.0,0.0,0.0,0.0,0.0,0.0,0.0,0.0,0.0,0.0,0.0,0.0,0.0,0.0,0.0,0.0,0.0,0.0,1.2822,1.4549,1.5912,1.6152,1.6233,1.6366,1.6593,1.6673,1.7357,1.8953,1.7895,0.0,0.0,0.0,0.0,0.0,0.0,0.0,0.0,0.0,0.0,0.0,0.0,0.0,0.0,0.0,0.0,0.0,0.0,0.0,0.0,0.0,0.0,0.0,0.0,0.0,0.0,0.0,0.0,0.0,0.0,0.0,0.0,0.0,0.0,0.0,0.0,0.0,0.0,0.0,0.0,0.0,0.0,0.0,0.0,0.0,0.0,0.0,0.0,0.0,0.0,0.0,0.0,0.0,0.0,0.0,0.0,0.0,0.0,0.0,0.0,1.3173,0.0,0.0,0.0,0.0,0.0,0.0,0.0,0.0,0.0,0.0,0.0,0.0,0.0,0.0,0.0,0.0,0.0,0.0,0.0,0.0,0.0,0.0,0.0,0.0,0.0,0.0,0.0,0.0,0.0,0.0,0.0,0.0,0.0,0.0,0.0,0.0,0.0,0.0,0.0,0.0,1.3474,1.515,1.6313,1.646,1.6607,1.7055,1.7795,1.8037,1.8895,2.0968,2.0065,0.0,0.0,0.0,0.0,0.0,0.0,0.0,0.0,0.0,0.0,0.0,0.0,0.0,0.0,0.0,0.0,0.0,0.0,0.0,0.0,0.0,0.0,0.0,0.0,0.0,0.0,0.0,0.0,0.0,0.0,0.0,0.0,0.0,0.0,0.0,0.0,0.0,0.0,0.0,0.0,0.0,0.0,0.0,0.0,0.0,0.0,0.0,0.0,0.0,0.0,0.0,0.0,0.0,1.7039,1.6907,1.6111,1.6528,1.6767,1.6725,1.6196,1.5459,1.471,1.4175,0.0,0.0,0.0,0.0,0.0,0.0,0.0,0.0,0.0,0.0,0.0,0.0,0.0,0.0,0.0,0.0,0.0,0.0,0.0,0.0,0.0,0.0,0.0,0.0,1.4122,1.4349,0.0,0.0,0.0,0.0,0.0,0.0,0.0,0.0,0.0,0.0,0.0,0.0,1.4307,1.5777,1.6727,1.678,1.7198,1.7974,1.9123,1.9668,2.082,2.3019,2.2434,2.2244,0.0,0.0,0.0,0.0,0.0,0.0,0.0,0.0,0.0,0.0,0.0,0.0,0.0,0.0,0.0,0.0,0.0,0.0,0.0,0.0,0.0,0.0,0.0,0.0,0.0,0.0,0.0,0.0,0.0,0.0,0.0,0.0,1.6405,1.6183,0.0,0.0,0.0,0.0,0.0,0.0,0.0,0.0,0.0,0.0,0.0,0.0,0.0,1.9431,2.0387,2.0443,2.0837,2.16,2.1739,2.2012,2.2225,2.2324,2.2358,2.2324,2.1695,0.0,1.5631,1.5297,0.0,0.0,0.0,0.0,0.0,0.0,0.0,0.0,0.0,0.0,0.0,0.0,0.0,0.0,0.0,0.0,0.0,0.0,0.0,0.0,0.0,0.0,1.5765,1.5845,1.5925,1.6032,0.0,1.4402,1.305,1.3707,1.3186,0.0,0.0,0.0,0.0,0.0,0.0,0.0,1.4414,1.5777,1.6807,1.7061,1.8223,1.9066,1.9538,2.0711,2.2047,2.3511,2.308,2.3073,2.3563,2.3842,0.0,0.0,0.0,0.0,0.0,0.0,0.0,0.0,0.0,0.0,0.0,0.0,0.0,0.0,0.0,0.0,0.0,0.0,0.0,0.0,0.0,0.0,0.0,0.0,0.0,0.0,0.0,0.0,0.0,1.7171,1.7828,1.7689,1.7286,1.7046,0.0,0.0,0.0,0.0,0.0,0.0,0.0,0.0,0.0,2.058,2.1128,2.1876,2.2719,2.3217,2.3394,2.3253,2.4175,2.4395,2.4115,2.4317,2.4418,2.4384,2.4065,2.2683,2.0385,1.8326,1.6612,1.5177,0.0,0.0,0.0,0.0,1.32,1.3347,1.3641,1.4055,0.0,1.4629,0.0,0.0,0.0,0.0,0.0,0.0,0.0,0.0,0.0,0.0,1.6192,1.6847,1.7141,1.7301,1.7435,1.6273,1.519,0.0,1.485,1.4453,1.3844,0.0,0.0,0.0,0.0,1.5505,1.6869,1.7838,1.8644,1.9592,2.0218,2.099,2.1845,2.2466,2.3384,2.4707,2.4635,2.4583,2.4902,2.5059,2.3909,0.0,0.0,0.0,0.0,0.0,0.0,0.0,0.0,0.0,0.0,0.0,0.0,0.0,0.0,0.0,0.0,0.0,0.0,0.0,0.0,0.0,0.0,0.0,0.0,0.0,0.0,0.0,0.0,1.7628,1.8656,1.844,1.8301,1.8202,0.0,0.0,0.0,0.0,0.0,0.0,2.0537,2.1205,2.2162,2.33,2.3785,2.4505,2.5321,2.6132,2.6208,2.5816,2.69,2.7133,2.6591,2.6871,2.6894,2.6894,2.6894,2.6342,2.5008,2.1401,1.8814,1.7036,1.6211,1.5444,1.4856,1.471,1.475,1.4897,1.511,1.5578,1.6099,1.6233,1.5979,1.5591,1.5444,0.0,0.0,0.0,0.0,1.4856,1.5805,1.6233,1.662,1.7488,1.7943,1.8156,1.8156,1.8204,1.7876,0.0,1.6313,1.5937,1.508,0.0,0.0,0.0,0.0,1.7568,1.9356,1.9968,2.0632,2.1558,2.2131,2.2771,2.3601,2.3998,2.4609,2.5645,2.5742,2.5742,2.5742,2.5742,2.4737,2.2723,0.0,0.0,0.0,0.0,0.0,0.0,0.0,0.0,0.0,0.0,0.0,0.0,0.0,0.0,0.0,0.0,0.0,0.0,0.0,0.0,0.0,0.0,0.0,0.0,0.0,0.0,0.0,0.0,0.0,1.7729,1.9034,0.0,0.0,0.0,0.0,2.0391,2.0859,2.1511,2.2389,2.3556,2.4679,2.5564,2.7179,2.8408,2.9244,2.9692,3.0353,3.1072,3.121,3.1463,3.1871,3.1891,3.1789,3.1789,3.1789,3.0547,2.8056,2.347,2.1269,2.036,1.8005,1.7034,1.6927,1.6366,1.6513,1.7096,1.7007,1.7408,1.7862,1.7582,1.6914,1.6126,1.5565,1.5177,0.0,0.0,1.5738,1.6246,1.658,1.7301,1.7943,1.8009,1.825,1.8464,1.8464,1.997,2.0601,0.0,1.7208,1.6687,1.6879,0.0,1.8692,1.8406,1.9692,2.0819,2.1016,2.1654,2.2039,2.1692,2.3181,2.4079,2.3719,2.4922,2.5645,2.5742,2.5742,2.5742,2.5742,2.5742,2.5508,2.4925,2.2834,0.0,0.0,0.0,0.0,0.0,0.0,0.0,0.0,0.0,0.0,0.0,0.0,0.0,0.0,0.0,0.0,0.0,0.0,0.0,0.0,0.0,0.0,0.0,0.0,0.0,0.0,0.0,0.0,2.154,2.2575,0.0,2.31,2.3176,2.3319,2.3496,2.4648,2.5625,2.6225,2.7214,2.8125,2.9086,2.9909,3.0644,3.123,3.1387,3.1621,3.1934,3.1934,3.2012,3.2168,3.2168,3.2168,3.2168,3.2168,3.1576,3.0244,2.7582,2.521,2.3166,2.1038,2.0172,2.0048,1.8769,1.8397,1.8584,1.8584,1.8718,1.8851,1.8544,1.8103,1.7662,1.7448,1.7315,1.7248,1.7355,1.7542,1.7769,1.8063,1.837,1.8664,1.8851,1.8985,1.938,2.0259,2.1062,2.151,2.1527,2.1299,2.1114,2.0908,2.1213,2.146,2.144,2.1865,2.2581,2.3493,2.3901,2.4293,2.4988,2.5628,2.5971,2.5838,2.599,2.6152,2.6152,2.5898,2.5742,2.5742,2.5742,2.5256,2.4189,2.3249,2.1843,0.0,0.0,0.0,0.0,0.0,0.0,0.0,0.0,0.0,0.0,0.0,0.0,0.0,0.0,0.0,0.0,0.0,0.0,0.0,0.0,0.0,0.0,0.0,0.0,0.0,0.0,2.3633,2.4355,2.5586,2.6309,2.6172,2.6289,2.6484,2.6777,2.8008,2.9004,2.957,3.0273,3.0918,3.1523,3.1934,3.2305,3.2598,3.2734,3.2734,3.2598,3.2891,3.2871,3.2598,3.2891,3.2715,3.2207,3.2773,3.2441,3.1424,3.0841,2.913,2.6689,2.4104,2.3106,2.299,2.1743,2.1102,2.06,1.9929,1.9533,1.9319,1.9025,1.8798,1.8624,1.8517,1.849,1.8517,1.8611,1.8637,1.8704,1.8998,1.9078,1.9118,1.9319,1.9439,1.9959,2.1521,2.182,2.2434,2.4344,2.4138,2.3265,2.2258,2.255,2.2805,2.2191,2.2479,2.3125,2.4258,2.4746,2.5409,2.6248,2.6875,2.7168,2.7031,2.623,2.5918,2.6367,2.5566,2.5273,2.5723,2.5312,2.4679,2.3781,2.272,2.119,1.9129,0.0,0.0,0.0,0.0,0.0,0.0,0.0,0.0,0.0,0.0,0.0,0.0,0.0,0.0,0.0,0.0,0.0,0.0,0.0,0.0,0.0,0.0,0.0,2.0156,2.3027,2.5371,2.5859,2.7773,2.8906,2.8496,2.8828,2.9414,3.0234,3.0723,3.1348,3.2187,3.2598,3.2812,3.2793,3.3203,3.3418,3.3398,3.3848,3.3867,3.3476,3.4277,3.4238,3.3496,3.4297,3.3789,3.2324,3.3965,3.3476,3.1641,3.2871,3.2637,3.1049,2.719,2.5711,2.5661,2.5294,2.4332,2.2914,2.1036,1.9972,1.9475,1.9179,1.9085,1.8905,1.8624,1.8544,1.8709,1.8891,1.8971,1.9025,1.9319,1.9502,1.9618,1.9502,1.973,2.0378,2.1963,2.245,2.3445,2.6703,2.5301,2.2995,2.0999,2.2056,2.2673,2.1033,2.19,0.0,2.3281,2.4414,2.5176,2.5176,2.6641,2.748,2.709,2.5469,2.5019,2.6348,2.4824,2.4453,2.5723,2.4551,2.3867,2.3848,2.1318,1.9411,1.7986,0.0,0.0,0.0,0.0,0.0,0.0,0.0,0.0,0.0,0.0,0.0,0.0,0.0,0.0,0.0,0.0,0.0,0.0,0.0,0.0,0.0,2.2441,2.4277,2.416,2.6289,2.8379,2.9766,3.1269,3.2148,3.2031,3.2109,3.2285,3.2519,3.2949,3.3301,3.3535,3.3359,3.3105,3.2812,3.3203,3.3281,3.2969,3.3691,3.416,3.4336,3.3945,3.3965,3.4336,3.4277,3.3984,3.3574,3.4043,3.3398,3.2012,3.2363,3.1934,3.082,2.8919,2.79,2.7516,2.6201,2.5512,2.498,2.3544,2.2659,2.2078,2.1977,2.1802,2.1363,2.0128,2.0559,2.1277,2.0196,2.0684,2.1406,2.0319,2.1729,2.3224,2.2083,2.2731,2.4066,2.5571,2.59,2.6489,2.8539,2.8369,2.7619,2.6736,2.6769,2.6806,2.6634,2.6943,0.0,2.7324,2.7637,2.7734,2.7441,2.7012,2.707,2.7871,2.6367,2.5937,2.7226,2.6562,2.6289,2.6641,2.6035,2.5527,2.5215,2.2612,2.1137,0.0,0.0,0.0,0.0,0.0,0.0,0.0,0.0,0.0,0.0,0.0,0.0,0.0,0.0,0.0,0.0,0.0,0.0,0.0,0.0,0.0,0.0,2.5195,2.7793,2.9043,3.0137,3.1387,3.2949,3.3945,3.4512,3.4512,3.4512,3.459,3.4766,3.5019,3.5078,3.4902,3.4824,3.4258,3.3086,3.3828,3.3867,3.3066,3.4101,3.4648,3.4707,3.457,3.457,3.4707,3.4824,3.4394,3.3574,3.4316,3.3691,3.2207,3.2559,3.2187,0.0,0.0,0.0,0.0,0.0,2.697,2.6628,2.5277,2.4408,2.392,2.392,2.3794,2.352,2.2572,2.2417,2.2436,2.1421,2.1361,2.1505,2.1274,2.2534,2.3926,2.3731,2.4558,2.5712,2.7258,2.7092,2.7398,2.9734,2.9394,0.0,2.9375,2.8672,2.7871,2.7383,2.7305,2.7383,2.7559,2.791,2.8105,2.8027,2.7676,2.7754,2.8496,2.6816,0.0,0.0,0.0,2.6191,2.6191,2.5957,0.0,0.0,0.0,2.2353,2.17,0.0,0.0,0.0,1.6401,1.6094,0.0,0.0,0.0,0.0,0.0,0.0,0.0,0.0,0.0,0.0,0.0,0.0,0.0,0.0,0.0,0.0,2.8144,3.1172,3.4101,3.4219,3.4394,3.5488,3.5937,3.6172,3.6172,3.6172,3.6328,3.6719,3.6699,3.6504,3.6113,0.0,0.0,0.0,0.0,3.4726,3.3496,3.4766,3.5215,3.4844,3.5547,3.5488,3.4805,3.5527,3.4805,3.3027,3.457,3.4082,3.2226,3.2969,3.2793,3.1953,3.1191,3.0898,3.0743,2.9009,2.8436,2.8119,2.6555,0.0,0.0,2.5494,2.5494,2.5494,2.5261,2.4232,2.3112,2.2895,2.198,2.1293,2.2568,2.322,2.3771,2.5175,2.5864,2.6592,2.802,2.73,2.7308,3.0354,2.9336,2.8516,3.0019,2.8945,2.7363,2.5879,2.5644,2.5781,2.6191,2.6894,2.75,2.7851,0.0,0.0,2.8906,2.7051,2.6406,2.7656,2.6289,2.541,2.5371,2.5352,2.498,2.418,2.4049,2.3238,2.1877,2.1571,2.0452,1.8755,1.7272,1.7051,0.0,0.0,0.0,0.0,0.0,0.0,0.0,0.0,0.0,0.0,0.0,0.0,0.0,0.0,0.0,2.8379,3.1523,3.4512,3.6855,3.7402,3.7422,3.6973,3.6992,3.7051,3.7051,3.7051,3.709,3.7168,3.6855,3.6641,3.6543,3.5625,3.4726,3.3965,3.4531,3.4551,3.3945,3.4902,3.5527,3.5762,0.0,0.0,3.5254,3.5039,3.4531,3.3848,3.418,3.3516,3.2187,3.2344,3.1914,3.1113,3.0957,3.0898,3.0762,2.9331,2.9449,3.0122,2.8728,2.8026,2.77,2.77,2.77,2.7463,2.6251,2.6542,0.0,2.5712,2.598,2.6521,2.5645,2.7257,2.9028,2.8002,2.8855,2.9906,3.0276,3.0084,3.0123,3.082,3.0547,3.0371,3.0703,2.9883,2.9199,2.9199,2.9199,2.9238,2.9316,2.9473,2.9473,2.9238,2.8418,2.8184,2.8867,2.7598,2.7168,2.8105,2.7851,2.7519,2.7168,2.7168,2.6914,2.6406,2.5327,2.4608,2.431,2.1989,2.0695,2.0273,1.8749,1.8211,0.0,0.0,0.0,0.0,0.0,0.0,0.0,0.0,0.0,0.0,0.0,2.3223,2.4531,0.0,2.9141,3.1719,3.3945,3.6113,3.8262,3.8945,3.8984,3.834,3.8242,3.8164,3.7949,3.793,3.7851,3.7637,3.7422,3.7109,3.6699,3.6035,3.5195,3.4101,3.4902,3.4941,3.4082,3.5156,3.582,3.6016,3.5351,3.5176,3.5371,3.4902,3.4473,3.4082,3.4082,3.3594,3.2754,3.2344,3.1797,3.1191,3.0976,3.0898,3.082,3.0156,3.0312,3.0801,3.0137,2.9738,2.9648,2.9648,2.9648,2.953,2.8683,2.8352,2.8163,2.735,2.7123,2.7029,2.7151,2.8408,2.9579,2.9695,3.0274,3.0898,3.0898,3.0898,3.0898,3.0898,3.0898,3.0898,3.0898,3.0527,3.0312,3.0508,3.0547,3.0547,3.0547,3.0547,3.0469,3.0254,2.9453,2.9101,2.9531,2.8574,2.8066,2.8281,2.8301,2.8203,2.7988,2.7988,2.7871,2.7656,2.6989,2.6337,2.5557,2.3277,2.1852,2.1092,1.9696,1.8771,0.0,0.0,0.0,0.0,0.0,0.0,0.0,2.1855,2.293,2.3613,2.4902,2.6484,2.832,2.9922,3.1875,3.4746,3.6094,3.7402,3.9199,3.9707,3.9726,3.9258,3.9199,3.9043,3.8613,3.8574,3.8398,3.7969,3.7851,3.748,3.6719,3.6582,3.5898,3.4492,3.5469,3.5508,3.4453,3.5488,3.6016,3.6016,3.5684,3.543,3.5234,3.4863,3.4414,3.3945,3.3867,3.3633,3.3242,3.248,3.1953,3.1601,3.1269,3.1094,3.0996,3.0918,3.0898,3.0898,3.0898,3.0898,3.0898,3.0898,3.0898,3.0898,3.0898,2.9902,2.8789,2.8789,2.7793,2.7051,2.8437,2.8789,2.916,3.0566,3.0898,3.0898,3.0898,3.0898,3.0918,3.0996,3.1016,3.1035,3.1133,3.1074,3.0996,3.0898,3.0898,3.0898,3.0898,3.0898,3.0898,3.0898,3.0547,3.0254,3.0098,2.9375,2.875,2.832,2.8301,2.8301,2.8301,2.8301,2.8301,2.8301,2.8301,2.7726,2.6499,2.5041,2.3599,2.2476,2.0702,1.9448,1.9321,1.7832,1.7718,2.035,2.1406,2.2227,0.0,2.6348,2.8086,2.8184,2.9863,3.1484,3.2109,3.4219,3.6133,3.6875,3.8379,3.9668,4.0293,4.0098,3.9726,3.9258,3.9199,3.9043,3.8613,3.8574,3.8398,3.7969,3.7578,3.7168,3.6699,3.6309,3.5996,3.5801,3.5937,3.5957,3.5801,3.5937,3.6016,3.6016,3.5976,3.5547,3.4766,3.4726,3.4258,3.3476,3.3105,3.291,3.2832,3.2363,3.2148,3.209,3.2051,3.1797,3.1406,3.1035,3.0898,3.0898,3.0898,3.0898,3.0898,3.0898,3.0898,3.0898,3.0898,3.0762,3.0605,3.0605,3.0469,3.0351,3.0547,3.0605,3.0644,3.084,3.0898,3.0898,3.0898,3.0898,3.0996,3.1367,3.1445,3.1562,3.1953,3.1699,3.1328,3.0937,3.0898,3.0898,3.0898,3.0898,3.0898,3.0898,3.084,3.0488,2.9707,2.9199,2.875,2.832,2.8301,2.8301,2.8301,2.8301,2.8301,2.8301,2.8301,2.8174,2.8067,2.6608,2.5717,2.548,2.2702,2.0659,2.1217,2.1141,2.1926,2.3784,2.5458,2.7031,2.8184,3.0059,3.1621,3.1875,3.3457,3.5,3.5664,3.6465,3.7422,3.8613,3.8984,3.9375,4.0059,4.0,3.9453,3.8242,3.7441,3.6914,3.6738,3.7402,3.7324,3.6133,3.6601,3.6738,3.6309,3.6113,3.6016,3.6016,3.6016,3.6016,3.6016,3.6016,3.6016,3.6016,3.5762,3.5469,3.5078,3.457,3.4004,3.3398,3.2969,3.2793,3.2734,3.207,3.1797,3.1758,3.1523,3.1309,3.1152,3.123,3.1094,3.0898,3.0898,3.0898,3.0898,3.0898,3.0898,3.0898,3.0898,3.0898,3.0898,3.0898,3.0898,3.0898,3.0898,3.0898,3.0898,3.0898,3.1074,3.125,3.125,3.1465,3.168,3.1855,3.1894,3.1953,3.2148,3.2012,3.1836,3.166,3.1211,3.0898,3.0898,3.0898,3.0898,3.0898,3.0898,3.0625,2.998,2.9766,2.9375,2.8691,2.8652,2.8555,2.8301,2.8301,2.8301,2.8301,2.8301,2.8301,2.8301,2.6825,2.559,2.471,2.2589,2.0816,2.2919,2.3763,2.4872,2.6783,2.888,3.0801,3.1738,3.3262,3.457,3.4902,3.6055,3.7168,3.7656,3.7695,3.8066,3.9336,3.9199,3.916,3.9805,3.959,3.8613,3.6641,3.5273,3.4121,3.3184,3.5098,3.6035,3.5137,3.5957,3.6348,3.6035,3.6016,3.6016,3.6016,3.6016,3.6016,3.6016,3.6016,3.6016,3.6016,3.5703,3.5508,3.5371,3.4473,3.3828,3.3398,3.3105,3.2969,3.293,3.2305,3.2051,3.2012,3.1699,3.1523,3.1445,3.1758,3.1445,3.0918,3.1016,3.0996,3.0918,3.1035,3.0996,3.0898,3.0898,3.0898,3.0898,3.0898,3.0976,3.1055,3.1055,3.1152,3.125,3.125,3.1465,3.1699,3.1699,3.1953,3.2207,3.2324,3.2344,3.2383,3.25,3.2422,3.2344,3.2344,3.1719,3.1191,3.1074,3.0957,3.0898,3.0898,3.0898,3.0703,3.0234,3.0195,2.9883,2.9141,2.8984,2.8789,2.8476,2.8359,2.8301,2.8301,2.8301,2.8301,2.8301,2.6825,2.548,2.4378,2.2476,2.1031,2.4133,2.3942,2.4091,2.8409,3.0498,3.2031,3.4101,3.5937,3.7187,3.7207,3.7559,3.7773,3.7383,3.7988,3.8555,3.8613,3.9316,3.9863,3.9883,3.8789,3.7031,3.4473,3.3047,3.0957,2.7598,3.1465,3.4668,3.5879,3.6016,3.6035,3.6016,3.6016,3.6016,3.6016,3.6016,3.6016,3.6016,3.6016,3.6016,3.6016,3.6016,3.5781,3.5371,3.4473,3.3828,3.3418,3.3418,3.3398,3.3398,3.3379,3.3359,3.3359,3.3359,3.3105,3.2734,3.2754,3.1973,3.0957,3.1367,3.123,3.0957,3.1367,3.123,3.0898,3.0898,3.0898,3.0898,3.0898,3.1191,3.1504,3.1504,3.1816,3.2129,3.2129,3.2148,3.2148,3.2148,3.2148,3.2285,3.2695,3.2773,3.291,3.332,3.3047,3.2773,3.2773,3.2402,3.1973,3.1562,3.1133,3.0898,3.0898,3.0898,3.0703,3.0234,3.0195,3.0019,2.957,2.916,2.8906,2.8906,2.8516,2.8301,2.8301,2.8301,2.8301,2.8301,2.6825,2.6045,2.5936,2.3039,2.1586,2.4653,2.6697,2.9204,3.2194,3.4346,3.6502,3.9024,4.0535,4.1151,4.0247,3.9131,3.7586,3.5912,3.4171,3.3721,3.607,3.5989,3.6406,3.8691,3.6914,3.5156,3.4551,3.2344,3.0742,3.0469,3.1621,3.2441,3.2598,3.4726,3.6016,3.6016,3.6289,3.6445,3.6445,3.6172,3.6152,3.6445,3.6172,3.6016,3.6016,3.6016,3.5644,3.4922,3.4629,3.4101,3.3398,3.3125,3.3008,3.2988,3.2695,3.2598,3.2598,3.2598,3.25,3.2383,3.2383,3.1914,3.1328,3.1465,3.125,3.0957,3.1387,3.1426,3.1367,3.166,3.1738,3.1738,3.1738,3.1836,3.1953,3.1953,3.2051,3.2168,3.2168,3.2383,3.2578,3.2578,3.2793,3.3047,3.3184,3.3203,3.3262,3.3398,3.3301,3.3105,3.2832,3.2187,3.168,3.1543,3.1152,3.0898,3.0898,3.0898,3.082,3.0664,3.0664,3.0469,3.0019,2.9844,2.9512,2.8945,2.8789,2.8574,2.8301,2.8301,2.8301,2.8301,2.6825,2.559,2.4488,2.2476,2.1031,2.8245,3.1416,3.4833,3.7337,3.9344,4.115,4.3221,4.3443,4.3067,4.2214,3.953,3.6655,3.4512,3.1936,3.0937,3.3334,3.3636,3.4545,3.7543,3.634,3.4903,3.4238,3.2129,3.0762,3.0976,3.1328,3.1406,3.1133,3.3594,3.5098,3.5098,3.5644,3.625,3.6875,3.6484,3.6387,3.668,3.623,3.6016,3.6016,3.5859,3.541,3.4687,3.4551,3.375,3.2539,3.2871,3.2676,3.2148,3.248,3.2617,3.2617,3.2617,3.2617,3.2617,3.2617,3.2344,3.1973,3.1973,3.1601,3.1211,3.1777,3.1875,3.1797,3.209,3.2168,3.2168,3.2168,3.2285,3.2383,3.2383,3.25,3.2617,3.2617,3.2832,3.3008,3.3008,3.3242,3.3418,3.3418,3.3418,3.3418,3.3418,3.3418,3.332,3.3066,3.2422,3.1914,3.1777,3.125,3.0957,3.1094,3.0976,3.0898,3.0898,3.0898,3.0762,3.0469,3.0293,2.9941,2.9394,2.9238,2.9023,2.875,2.8594,2.8516,2.8516,2.6899,2.559,2.4599,2.3039,2.1586,3.4364,3.7854,4.0552,4.3208,4.4841,4.5872,4.6366,4.4735,4.2927,4.3015,3.8807,3.4732,3.3069,3.1086,3.0015,3.0721,3.2275,3.4204,3.6425,3.68,3.5988,3.3701,0.0,0.0,0.0,0.0,0.0,3.1621,3.2832,3.3594,3.3613,3.4414,3.5625,3.7285,3.6914,3.6719,3.6738,3.6289,3.6035,3.6016,3.5605,3.5176,3.4726,3.4297,3.2988,3.1152,3.2734,3.25,3.1152,3.2754,3.3418,3.3418,3.3418,3.3418,3.3418,3.3418,3.3164,3.2793,3.2812,3.2266,3.168,3.2519,3.2519,3.2207,3.2226,3.2226,3.2226,3.2226,3.2519,3.2832,3.2832,3.3125,3.3418,3.3418,3.3418,3.3418,3.3418,3.3437,3.3457,3.3457,3.3457,3.3457,3.3457,3.3437,3.3418,3.3418,3.3066,3.2637,3.2226,3.1445,3.1074,3.1445,3.1133,3.0898,3.0898,3.0898,3.0898,3.0898,3.0469,3.0215,3.0195,2.9805,2.959,2.9551,2.9141,2.8906,2.8887,2.7011,2.6155,2.6045,2.4488,2.3039,3.6767,4.0449,4.4027,4.5405,4.6254,4.7015,4.8215,4.7051,4.4902,4.1707,3.6473,3.1406,2.8054,2.5082,2.4753,2.9455,3.0597,3.2227,3.6093,3.6779,3.6225,3.4615,0.0,3.4942,3.3838,3.4434,0.0,3.3027,3.4746,3.5976,3.6289,3.6816,3.7305,3.7754,3.7363,3.7285,3.7598,3.6875,3.6348,3.6016,3.5918,3.5625,3.5195,3.4746,3.4082,3.3262,3.3379,3.3184,3.2812,3.3242,3.3418,3.3418,3.3418,3.3418,3.3418,3.3418,3.3164,3.2832,3.3144,3.2715,3.209,3.2617,3.2715,3.2695,3.3008,3.3105,3.3105,3.3105,3.3184,3.3262,3.3262,3.334,3.3418,3.3418,3.3418,3.3418,3.3418,3.3672,3.3906,3.3906,3.3906,3.3906,3.3906,3.3633,3.3418,3.3418,3.3066,3.2637,3.2226,3.1699,3.1269,3.1074,3.0957,3.0898,3.0898,3.0898,3.0898,3.0898,3.0781,3.0566,3.0215,3.0098,2.9726,2.9101,2.8984,2.8769,2.8457,2.6881,2.6155,2.6045,2.4488,2.3599,4.2336,4.5494,4.8373,4.9062,4.9298,4.8942,4.7762,4.5638,4.2587,3.8048,3.3021,2.8294,2.4646,2.2769,2.3147,2.7167,2.9153,3.1391,3.4792,3.6065,3.616,3.5185,3.6398,0.0,3.625,3.7228,3.7245,3.5723,3.6113,3.6406,3.6465,3.7051,3.7715,3.8457,3.7891,3.75,3.7383,3.6914,3.6445,3.6016,3.584,3.5625,3.5371,3.4902,3.4062,3.2988,0.0,3.3164,3.2363,3.3125,3.3418,3.3418,3.3418,3.3418,3.3418,3.3418,3.3281,3.3105,3.334,3.3105,3.2754,3.2988,3.3066,3.3105,3.334,3.3418,3.3418,3.3418,3.3418,3.3418,3.3418,3.3418,3.3418,3.3418,3.3574,3.3711,3.3711,3.4043,3.4336,3.4336,3.4336,3.4297,3.4101,3.3867,3.3633,3.3457,3.3223,3.293,3.25,3.1894,3.1504,3.1465,3.1113,3.0898,3.0898,3.0898,3.0898,3.0898,3.0898,3.0781,3.0508,3.0508,3.0273,2.9805,2.9394,2.9082,2.8848,2.7682,2.7154,2.7322,2.5745,2.4631,4.856,5.087,5.2327,5.2804,5.2402,5.082,4.6484,4.2696,3.8609,3.3332,2.9072,2.5413,2.2578,2.2571,2.3616,2.5418,2.8401,3.1245,3.3336,3.5396,3.6559,3.6102,3.7707,3.866,3.8045,3.9183,3.9589,3.872,3.7344,3.6348,3.5918,3.6543,3.7598,3.9062,3.8398,3.7598,3.6758,3.6758,3.6504,3.6016,3.5644,3.5488,3.5469,3.5,3.375,3.2031,3.3457,3.2988,3.1348,3.2812,3.3418,3.3418,3.3418,3.3418,3.3418,3.3418,3.3418,3.3418,3.3418,3.3418,3.3418,3.3418,3.3418,3.3418,3.3418,3.3418,3.3418,3.3418,3.3418,3.3418,3.3418,3.3418,3.3418,3.3418,3.375,3.4082,3.4082,3.4453,3.4805,3.4863,3.4824,3.4648,3.4219,3.4101,3.3926,3.3496,3.3418,3.3281,3.293,3.2187,3.1816,3.2129,3.1445,3.0976,3.0976,3.0918,3.0898,3.0898,3.0898,3.0898,3.0898,3.0898,3.0859,3.0801,3.0039,2.9629,2.957,2.8828,2.8652,2.8894,2.7308,2.5944,4.9389,5.1147,5.2804,5.2904,5.18,4.9881,4.6548,4.1856,3.6657,3.0903,2.6348,2.3018,2.1923,2.2209,2.4018,2.8336,2.9189,3.0558,3.3952,3.7383,3.9365,3.8941,4.1547,4.2944,4.1895,4.0464,3.9432,3.9151,3.918,3.9023,3.8574,3.8359,3.8379,3.8672,3.8535,3.8047,3.7187,3.7187,3.6797,3.6016,3.5937,3.5918,3.5898,3.5469,3.4863,3.4141,3.4101,0.0,3.3008,3.3301,3.3418,3.3418,3.3418,3.3418,3.3418,3.3418,3.3418,3.3418,3.3418,3.3418,3.3418,3.3418,3.3418,3.3418,3.3418,3.3418,3.3418,3.3418,3.3418,3.3418,3.3418,3.3418,3.3418,3.3418,3.375,3.4082,3.4082,3.4707,3.5371,3.5723,3.5508,3.5137,3.4668,3.4297,3.3926,3.3496,3.3418,3.3398,3.332,3.2871,3.2461,3.2207,3.1719,3.1406,3.1406,3.1094,3.0898,3.0898,3.0898,3.0898,3.0898,3.0898,3.0703,3.0332,3.0176,2.9922,2.957,2.9414,2.9375,2.9453,2.7713,2.6918,4.9197,4.9645,5.0127,5.1138,4.9645,4.6633,4.1518,3.7469,3.2702,2.5516,2.2139,2.0142,1.8997,2.0096,2.2433,2.6401,2.7806,2.9539,3.2892,3.5432,3.7234,3.7733,4.128,4.2727,4.0228,4.0763,4.0477,3.8602,3.834,3.8516,3.916,3.9004,3.8809,3.8574,3.8574,3.8262,3.7637,3.7617,3.7187,3.6348,3.6348,3.623,3.6016,3.5801,3.5488,3.5039,3.459,3.3769,3.2793,3.3242,3.3027,3.25,3.3164,3.3418,3.3418,3.3418,3.3418,3.3418,3.3418,3.3418,3.3418,3.3418,3.3418,3.3418,3.3418,3.3418,3.3418,3.3418,3.3594,3.375,3.375,3.3926,3.4082,3.4082,3.4434,3.4824,3.5039,3.543,3.5781,3.5976,3.5859,3.5586,3.5137,3.4883,3.4609,3.416,3.3906,3.375,3.375,3.3379,3.2969,3.2539,3.1914,3.1523,3.1523,3.1133,3.0898,3.0898,3.0898,3.0898,3.0898,3.0898,3.0781,3.0566,3.0312,3.0098,2.9902,2.9668,2.9687,2.9902,2.8251,2.7543,4.8281,4.8006,4.7299,4.8821,4.7045,4.3182,3.6507,3.2788,2.8539,2.0885,1.8636,1.7781,1.6954,1.8554,2.1124,2.4415,2.5906,2.7964,3.1808,3.3538,3.5159,3.6817,4.0846,4.2191,3.9029,4.1018,4.1336,3.8708,3.7695,3.7754,3.9004,3.9141,3.9004,3.8594,3.8574,3.8359,3.793,3.7832,3.7402,3.668,3.6582,3.6348,3.6016,3.6016,3.5742,3.5234,3.4863,3.3691,0.0,3.3047,3.2676,3.1641,3.293,3.3418,3.3418,3.3418,3.3418,3.3418,3.3418,3.3418,3.3418,3.3418,3.3496,3.3555,3.3555,3.3633,3.3691,3.3691,3.3945,3.4219,3.4219,3.4453,3.4726,3.4824,3.5137,3.5508,3.5937,3.6016,3.6016,3.6016,3.6016,3.5879,3.5469,3.5391,3.5234,3.4766,3.4336,3.4082,3.4082,3.3691,3.3301,3.2969,3.2246,3.1797,3.1797,3.1328,3.1035,3.1035,3.0937,3.0898,3.0898,3.0898,3.0898,3.0898,3.0527,3.0351,3.0351,3.0019,3.0019,3.0351,2.8676,2.7921,4.6608,4.7186,4.6939,4.678,4.4481,4.0957,3.5729,3.0469,2.5333,2.03,1.79,1.714,1.8695,1.9738,2.172,2.5951,0.0,2.532,3.1788,3.4387,3.6816,4.0157,4.3074,4.448,4.3615,4.1918,4.0801,4.0347,3.9473,3.8867,3.8652,3.9004,3.9004,3.8594,3.8574,3.8359,3.793,3.7539,3.7129,3.666,3.6269,3.6055,3.6016,3.6016,3.5566,3.4766,3.4726,3.3516,0.0,3.291,3.2676,3.1641,3.293,3.3418,3.3418,3.3418,3.3418,3.3418,3.3418,3.3418,3.3418,3.3418,3.3691,3.4023,3.4023,3.4277,3.459,3.459,3.4609,3.4648,3.4648,3.4668,3.4805,3.5234,3.5371,3.5508,3.5937,3.6016,3.6016,3.6016,3.6016,3.5879,3.5469,3.5391,3.5234,3.4766,3.4336,3.4082,3.4082,3.3691,3.3398,3.3379,3.2949,3.2676,3.2676,3.1934,3.1465,3.1465,3.1094,3.0898,3.0898,3.0898,3.0898,3.0898,3.0859,3.082,3.082,3.0781,3.0781,3.082,2.9102,2.8174,4.3212,4.3883,4.371,4.4399,4.202,3.8081,3.3077,2.8519,2.3972,1.9472,1.7326,1.6557,1.7566,1.822,1.9616,0.0,0.0,0.0,2.8901,3.0766,3.3299,3.7922,4.0899,4.202,4.0894,4.107,4.0535,3.872,3.8496,3.8476,3.8574,3.873,3.875,3.8574,3.8574,3.8496,3.832,3.7891,3.7461,3.7051,3.6621,3.6269,3.6016,3.6016,3.582,3.5469,3.4922,3.334,0.0,3.3066,3.2441,3.0566,3.291,3.3652,3.3418,3.3418,3.3418,3.3457,3.373,3.3809,3.3848,3.4101,3.4492,3.4766,3.4238,3.4199,3.4375,3.4629,3.4902,3.5117,3.5117,3.5312,3.5547,3.5723,3.5762,3.582,3.5996,3.6016,3.6016,3.6016,3.6016,3.5976,3.5801,3.5762,3.5703,3.5527,3.4902,3.4453,3.4453,3.3848,3.3418,3.3418,3.3047,3.2793,3.2793,3.2246,3.1914,3.1914,3.1504,3.1269,3.1269,3.1035,3.0898,3.0898,3.0898,3.0898,3.0898,3.0898,3.0898,3.0898,3.0274,2.9808,3.916,4.0703,4.1128,4.2004,3.9322,3.5146,3.0449,2.6372,2.236,1.8444,1.6778,1.6191,1.6641,1.709,1.8086,0.0,0.0,2.2148,2.6133,2.8038,3.0498,3.4544,3.7381,3.8978,3.8563,4.0302,4.0593,3.8445,3.8418,3.8574,3.875,3.8633,3.8574,3.8574,3.8457,3.8379,3.8379,3.7832,3.7402,3.7109,3.668,3.6055,3.5273,3.5781,3.5664,3.5059,3.4961,3.3594,0.0,3.334,3.2598,3.0566,3.2949,3.3691,3.3437,3.3574,3.3613,3.3672,3.4101,3.4258,3.4277,3.4453,3.4824,3.5078,3.4453,3.4434,3.4707,3.5,3.5332,3.5586,3.5586,3.5801,3.6016,3.6016,3.6016,3.6016,3.6016,3.6016,3.6016,3.6016,3.6016,3.6016,3.6016,3.6016,3.5976,3.5859,3.5195,3.4707,3.4707,3.4062,3.3613,3.3613,3.334,3.3125,3.2988,3.2598,3.2363,3.2363,3.1836,3.1523,3.1523,3.1113,3.0898,3.0898,3.0898,3.0898,3.0898,3.0898,3.0898,3.0898,3.0898,3.0568,3.4701,3.791,4.0312,3.9434,3.6309,3.2422,2.8535,2.3984,1.9919,1.7266,1.6387,1.6191,1.6641,1.709,1.8086,0.0,0.0,0.0,2.4141,2.7108,2.9568,3.0797,3.3299,3.5957,3.8288,4.0137,4.0957,4.0527,4.0098,0.0,3.9219,3.8809,3.8574,3.8574,3.8164,3.793,3.793,3.7109,3.668,3.668,3.623,3.5117,3.3516,3.5234,3.4844,3.293,3.4648,3.4394,0.0,3.3711,3.332,3.2226,3.3086,3.3418,3.3476,3.3906,3.4062,3.4121,3.4551,3.4687,3.4629,3.4219,3.4355,3.4707,3.4687,3.5312,3.5996,3.5996,3.6016,3.6016,3.6016,3.6016,3.6016,3.6016,3.6016,3.6016,3.6016,3.6016,3.6016,3.6016,3.6016,3.6016,3.6016,3.6016,3.5879,3.5469,3.5,3.4707,3.4707,3.4336,3.4062,3.4062,3.4062,3.3887,3.3457,3.3027,3.2793,3.2793,3.1992,3.1523,3.1523,3.1113,3.0898,3.0898,3.0898,3.0898,3.0898,3.0898,3.0898,3.0898,3.0898,2.9811,2.9306,3.1516,3.291,3.2324,3.0371,2.7832,2.4824,2.1836,1.9121,1.7148,1.6621,1.666,1.709,1.7519,1.8516,0.0,0.0,0.0,2.5723,2.7779,3.0078,3.3191,3.634,3.8903,4.0308,3.9512,3.9277,4.0039,3.8867,3.8301,3.875,3.8652,3.8574,3.8574,3.8437,3.8223,3.793,3.7383,3.6953,3.666,3.623,3.5117,3.3476,3.5234,3.5,3.3301,3.4766,3.4414,0.0,3.4375,3.3867,3.2344,3.4082,3.457,3.4316,3.4453,3.4492,3.457,3.5019,3.5176,3.5195,3.5351,3.5488,3.5605,3.5605,3.5605,3.5644,3.5937,3.6016,3.6016,3.6016,3.6016,3.6016,3.6016,3.6016,3.6016,3.6016,3.6016,3.6016,3.6016,3.6016,3.6016,3.6016,3.6016,3.5976,3.584,3.5449,3.5176,3.5176,3.4785,3.4394,3.4101,3.4082,3.3887,3.3457,3.3301,3.3223,3.3223,3.2441,3.1953,3.1953,3.1269,3.0898,3.0898,3.0898,3.0898,3.0898,3.0898,3.0898,3.0898,3.0898,2.9811,2.4982,2.7663,2.9219,2.8789,2.7031,2.4863,2.2754,2.0352,1.8164,1.6777,1.7266,1.7773,1.7246,1.8144,1.9199,1.9902,0.0,2.2812,2.459,2.6641,2.9101,3.2148,3.5879,3.8652,3.9824,3.9316,3.9238,4.0078,3.8828,3.8242,3.8789,3.8652,3.8574,3.8574,3.8418,3.8125,3.7695,3.7266,3.6836,3.6426,3.6152,3.5117,3.3476,3.5234,3.5059,3.3496,3.498,3.5019,0.0,3.5019,3.459,3.3496,3.4668,3.4961,3.4726,3.4902,3.4961,3.5019,3.5469,3.5527,3.541,3.5488,3.5527,3.5586,3.5918,3.584,3.5684,3.5937,3.6016,3.6016,3.6016,3.6016,3.6016,3.6016,3.6016,3.6016,3.6016,3.6016,3.6016,3.6016,3.6016,3.6016,3.6016,3.6016,3.5976,3.5801,3.5566,3.5391,3.5391,3.5137,3.4785,3.4355,3.4316,3.4062,3.3476,3.3418,3.3418,3.3418,3.2793,3.2344,3.2168,3.1504,3.1055,3.0898,3.0898,3.0898,3.0898,3.0898,3.0528,2.9903,2.9903,2.8674,0.0,2.5293,2.7949,2.7578,2.5371,2.2969,2.1738,1.9297,0.0,1.6426,1.8203,1.9297,1.7402,1.9082,2.0215,1.8555,2.1406,2.3281,2.1719,2.459,2.7422,2.8965,3.3027,3.6269,3.7656,3.9414,4.0469,4.0469,3.9687,3.9199,3.9199,3.8809,3.8574,3.8574,3.8184,3.7754,3.7305,3.6914,3.6445,3.5879,3.5976,3.5059,3.334,3.5176,3.5059,0.0,3.5254,0.0,0.0,3.5586,3.543,3.5351,3.4941,3.4785,3.4844,3.5273,3.543,3.5488,3.5859,3.5723,3.5332,3.4883,3.4766,3.4941,3.5762,3.6016,3.6016,3.6016,3.6016,3.6016,3.6016,3.6016,3.6016,3.6016,3.6016,3.6016,3.6016,3.6016,3.6016,3.6016,3.6016,3.6016,3.6016,3.6016,3.5879,3.5488,3.543,3.543,3.543,3.543,3.5254,3.4746,3.4707,3.4355,3.3496,3.3418,3.3418,3.3418,3.3027,3.2617,3.2226,3.1758,3.1328,3.0937,3.0898,3.0898,3.0898,3.0762,2.9903,2.8426,2.8289,2.6608,1.7422,0.0,1.957,1.9473,1.8926,1.8223,0.0,0.0,0.0,0.0,0.0,1.959,2.0098,2.1484,2.2207,2.1152,2.2832,2.4238,2.418,2.8281,3.1328,3.1387,3.5801,3.8223,3.6621,3.8633,4.0039,4.0039,3.9512,3.9199,3.9199,3.8809,3.8574,3.8574,3.8476,3.8066,3.7305,3.7207,3.6269,3.4551,3.5547,3.459,3.2051,3.4785,3.5059,3.3516,0.0,0.0,3.5566,3.5781,3.5684,3.541,3.5625,3.5703,3.5723,3.584,3.5879,3.584,3.5605,3.5488,3.5371,3.5273,3.5449,3.5742,3.5957,3.6016,3.6016,3.6016,3.6016,3.6016,3.6016,3.6016,3.6016,3.6016,3.6016,3.6016,3.6016,3.6016,3.6016,3.6016,3.6016,3.6016,3.6016,3.6016,3.5996,3.5879,3.5879,3.5879,3.5879,3.5879,3.5566,3.4785,3.4707,3.4355,3.3496,3.3418,3.3418,3.3418,3.3027,3.2754,3.2656,3.1914,3.1465,3.1367,3.1055,3.0898,3.0898,2.9648,2.8783,2.8408,2.7194,2.5513,1.5762,1.6387,1.7227,1.8008,1.7461,1.6875,1.7422,0.0,0.0,0.0,0.0,1.9863,2.0762,2.166,2.2187,2.1934,2.2812,2.418,2.5996,2.8672,3.0879,3.2031,3.4805,3.6699,0.0,3.8887,4.0176,4.0176,3.957,3.9199,3.9199,3.8809,3.8574,3.8574,3.8574,3.8262,3.7598,3.7402,3.6309,3.4375,3.5488,3.4844,3.2773,3.5,3.5508,3.4629,0.0,0.0,3.5644,3.5059,3.5176,3.5703,3.5937,3.6016,3.6016,3.6016,3.6016,3.5996,3.5762,3.5547,3.5391,3.5391,3.5547,3.5762,3.5957,3.6016,3.6016,3.6016,3.6016,3.6016,3.6016,3.6016,3.6016,3.6016,3.6016,3.6016,3.6016,3.6016,3.6016,3.6016,3.6016,3.6016,3.6016,3.6016,3.6016,3.6016,3.6016,3.6016,3.6016,3.6016,3.5684,3.4785,3.4707,3.4355,3.3496,3.3418,3.3418,3.3418,3.3203,3.291,3.2519,3.207,3.1641,3.123,3.0996,3.0528,2.9785,2.8783,2.7692,2.6244,2.5269,2.4054,1.5469,1.6426,1.7754,1.9238,1.8223,1.7246,1.8828,0.0,0.0,0.0,0.0,2.0488,2.1055,2.1836,0.0,0.0,2.2656,2.4394,2.7773,2.8594,2.9726,3.207,3.3379,3.5019,3.7402,3.9375,4.0488,4.043,3.9668,3.9199,3.9199,3.8809,3.8574,3.8574,3.8574,3.8359,3.793,3.75,3.6426,3.4707,3.5586,3.5332,3.4121,3.543,3.6016,3.5937,0.0,0.0,3.5898,3.4434,3.4687,3.6016,3.6016,3.6016,3.6016,3.6016,3.6016,3.6016,3.5937,3.5684,3.5391,3.5391,3.543,3.5547,3.5918,3.6016,3.6016,3.6016,3.6016,3.6016,3.6016,3.6016,3.6016,3.6016,3.6016,3.6016,3.6016,3.6016,3.6016,3.6016,3.6016,3.6016,3.6016,3.6016,3.6016,3.6016,3.6016,3.6016,3.6016,3.6016,3.5684,3.4785,3.4707,3.4355,3.3496,3.3418,3.3418,3.3418,3.3418,3.3047,3.2207,3.2168,3.1758,3.0918,3.0645,2.9785,2.8426,2.7931,2.6244,2.3574,2.3325,2.2466,1.5762,1.666,1.7539,1.8144,1.7793,1.7539,1.8516,0.0,0.0,0.0,0.0,0.0,0.0,2.5977,2.6562,0.0,0.0,2.7402,3.0488,3.2812,3.3965,3.3301,3.7168,3.8945,3.6543,3.8867,4.0371,4.0019,3.9492,3.9199,3.9199,3.8809,3.8574,3.8574,3.8574,3.8359,3.793,3.75,3.6426,3.4707,3.5586,3.5332,3.4121,3.543,3.6016,3.5996,0.0,3.5762,3.5996,3.5723,3.5781,3.6016,3.6016,3.6016,3.6016,3.6016,3.6016,3.5976,3.5605,3.5449,3.5391,3.5391,3.5625,3.5937,3.5996,3.6016,3.6016,3.6016,3.6016,3.6016,3.6016,3.6016,3.6016,3.6016,3.6016,3.6016,3.6016,3.6016,3.6016,3.6016,3.6016,3.6016,3.6016,3.6016,3.6016,3.6016,3.6016,3.6016,3.6016,3.6016,3.5684,3.4785,3.4707,3.4355,3.3496,3.3418,3.3418,3.3418,3.3418,3.3047,3.2207,3.2168,3.1758,3.0918,2.953,2.8664,2.8408,2.5635,2.4054,2.3574,2.209,2.1362,1.5605,1.6348,1.748,1.9297,1.9082,1.9062,2.1543,2.0195,0.0,0.0,0.0,0.0,0.0,0.0,2.6191,2.6309,0.0,3.1777,3.2461,3.3574,3.4453,0.0,0.0,3.8125,3.7461,3.9297,4.0351,3.9922,3.9473,3.9101,3.8887,3.8672,3.8574,3.8574,3.834,3.8125,3.793,3.7285,3.6191,3.4707,3.5586,3.5332,3.4121,3.543,3.6016,3.5976,0.0,3.5156,3.5937,3.5,3.5176,3.6016,3.6016,3.6016,3.6016,3.6016,3.6016,3.5996,3.5801,3.5723,3.5723,3.5723,3.5859,3.6016,3.6016,3.6016,3.6016,3.6016,3.6016,3.6016,3.6016,3.6016,3.6016,3.6016,3.6016,3.6016,3.6016,3.6016,3.6016,3.6016,3.6016,3.6016,3.6016,3.6016,3.6016,3.6016,3.6016,3.6016,3.6016,3.6016,3.5684,3.4785,3.4707,3.4355,3.3496,3.3418,3.3418,3.3418,3.3203,3.291,3.2519,3.1302,3.0381,2.9987,2.8037,2.6712,2.5757,2.4301,2.3076,2.2215,2.1475,2.1109,1.5527,1.6211,1.7539,2.0254,2.0098,2.0332,2.4316,2.2305,0.0,0.0,0.0,0.0,0.0,2.4902,0.0,2.957,3.293,3.5059,3.4961,3.5019,3.5625,3.7051,3.7226,3.7734,3.9062,4.0,4.0351,3.9922,3.9473,3.9023,3.8594,3.8476,3.8418,3.8418,3.8008,3.7734,3.7637,3.6992,3.6152,3.5176,3.5742,3.5508,3.457,3.5566,3.6016,3.5937,3.4609,3.4785,3.5918,3.459,3.4824,3.6016,3.6016,3.6016,3.6016,3.5918,3.5879,3.5879,3.5879,3.5879,3.5898,3.5996,3.6016,3.6016,3.6016,3.6016,3.6016,3.6016,3.6016,3.6016,3.6016,3.6016,3.6016,3.6016,3.6016,3.6016,3.6016,3.6016,3.6016,3.6016,3.6016,3.6016,3.6016,3.6016,3.6016,3.6016,3.6016,3.6016,3.6016,3.6016,3.5684,3.4785,3.4707,3.4355,3.3496,3.3418,3.3418,3.3418,3.3125,3.2891,3.2793,3.0531,2.9234,2.9143,2.6671,2.4778,2.3574,2.3201,2.2341,2.1109,2.1109,2.1109,1.5898,1.666,1.7773,1.957,1.9648,0.0,2.4707,2.2988,0.0,2.6504,0.0,0.0,0.0,2.7344,2.793,3.1406,3.3203,3.5391,3.8926,0.0,4.0215,4.0742,4.0801,4.0859,4.0976,4.0703,4.0351,3.9922,3.9473,3.9023,3.8594,3.8184,3.7969,3.7969,3.7559,3.7148,3.6758,3.6699,3.6621,3.6523,3.6191,3.5976,3.5879,3.5976,3.6016,3.6016,3.5879,3.5898,3.6016,3.5879,3.5898,3.6016,3.6016,3.6016,3.5976,3.5586,3.543,3.543,3.543,3.543,3.5508,3.5898,3.6016,3.6016,3.6016,3.6016,3.6016,3.6016,3.6016,3.6016,3.6016,3.6016,3.6016,3.6016,3.6016,3.6016,3.6016,3.6016,3.6016,3.6016,3.6016,3.6016,3.6016,3.6016,3.6016,3.6016,3.6016,3.6016,3.6016,3.6016,3.5684,3.4785,3.4707,3.4355,3.3496,3.3418,3.3418,3.3418,3.3398,3.3203,3.2812,3.081,2.9505,2.9143,2.5568,2.3698,2.3574,2.2104,2.1235,2.1109,2.1109,2.1109,1.6076,1.6894,1.8379,2.0898,2.0605,0.0,0.0,2.5098,2.4824,2.8476,2.7461,0.0,0.0,0.0,3.0586,3.2969,3.5547,3.7969,4.0,4.0664,4.0879,4.0781,4.1016,4.0957,4.043,4.0234,3.9941,3.9492,3.9062,3.8613,3.8203,3.8281,3.8086,3.7539,3.7637,3.7363,3.668,3.668,3.6543,3.6269,3.6094,3.6016,3.6016,3.6016,3.6016,3.6016,3.6016,3.6016,3.6016,3.6016,3.6016,3.6016,3.6016,3.5859,3.5644,3.5742,3.5605,3.543,3.5684,3.5781,3.5801,3.5976,3.6016,3.6016,3.6016,3.6016,3.6016,3.6016,3.6016,3.6016,3.6016,3.6016,3.6016,3.6016,3.6016,3.6016,3.6016,3.6016,3.6016,3.6016,3.6016,3.6016,3.6016,3.6016,3.6016,3.6016,3.6016,3.6016,3.6016,3.6016,3.5684,3.4785,3.4219,3.3769,3.3457,3.2365,3.1835,3.1835,3.1835,3.1649,3.1383,2.8271,2.6404,2.6048,2.3363,2.209,2.209,2.1348,2.1109,2.1109,2.1109,2.1109,1.6269,1.7031,1.8437,2.1035,0.0,0.0,2.6445,2.6523,2.6523,3.0098,2.9648,0.0,0.0,0.0,0.0,0.0,3.6309,3.8691,4.0117,4.0586,4.0664,4.0351,4.0586,4.0547,3.9961,3.9766,3.9551,3.9219,3.8809,3.8437,3.8144,3.8144,3.791,3.7324,3.7324,3.7051,3.6465,3.6465,3.6309,3.6016,3.6016,3.6016,3.6016,3.6016,3.6016,3.6016,3.6016,3.5937,3.582,3.582,3.5742,3.5625,3.5762,3.5566,3.5215,3.5508,3.543,3.5215,3.5508,3.5703,3.584,3.5976,3.6016,3.6016,3.6016,3.6016,3.5996,3.5859,3.5918,3.5996,3.5859,3.5918,3.6016,3.6016,3.6016,3.6016,3.6016,3.6016,3.6016,3.6016,3.6016,3.6016,3.6016,3.6016,3.6016,3.6016,3.6016,3.5976,3.584,3.582,3.5488,3.459,3.3315,3.2619,3.2619,3.0918,2.9942,2.9819,2.9284,2.9163,2.9559,2.636,2.4509,2.4179,2.2117,2.1109,2.1109,2.1109,2.1109,2.1109,2.1109,2.1109,1.6694,1.707,1.7812,0.0,0.0,0.0,2.7519,2.6934,2.6445,3.1191,3.2832,3.2891,3.1211,3.125,0.0,3.3223,3.4902,3.6953,3.9531,3.9902,3.9902,3.9883,3.9902,3.9883,3.9883,3.9473,3.9199,3.918,3.8809,3.8555,3.8555,3.7754,3.7285,3.7285,3.6465,3.6035,3.6016,3.6016,3.6016,3.6016,3.6016,3.6016,3.6016,3.6016,3.6016,3.6016,3.6016,3.5781,3.5391,3.5391,3.5117,3.4746,3.5215,3.5098,3.4687,3.4707,3.4707,3.4707,3.4707,3.5,3.5469,3.5879,3.6016,3.6016,3.6016,3.6016,3.5937,3.5508,3.5703,3.5918,3.5508,3.5703,3.6016,3.6016,3.6016,3.6016,3.6016,3.6016,3.6016,3.6016,3.6016,3.6016,3.6016,3.6016,3.6016,3.6016,3.6016,3.5859,3.5449,3.5391,3.5039,3.416,3.2078,3.0771,3.0771,2.9213,2.8015,2.7652,2.6074,2.5797,2.7602,2.5732,2.4509,2.4179,2.2117,2.1109,2.1109,2.1109,2.1109,2.1109,2.1109,2.1109,1.8281,1.8613,0.0,2.0859,0.0,0.0,0.0,2.7012,0.0,0.0,3.2578,3.2207,3.1094,0.0,0.0,3.3965,3.6094,3.8184,3.9258,3.9687,3.9766,3.9453,3.9707,3.9531,3.8594,3.8926,3.8828,3.793,3.8027,3.7851,3.7266,3.7285,3.7012,3.6426,3.6738,3.6621,3.6035,3.6328,3.6172,3.5586,3.5879,3.6016,3.6016,3.5723,3.5742,3.5996,3.5351,3.5215,3.5371,3.5039,3.4824,3.4707,3.4844,3.4648,3.4297,3.459,3.4707,3.4746,3.5078,3.5273,3.5469,3.5879,3.5605,3.5215,3.582,3.582,3.5547,3.543,3.5703,3.5918,3.5508,3.5703,3.6016,3.6016,3.6016,3.6016,3.6016,3.6016,3.6016,3.6016,3.6016,3.6016,3.6016,3.6016,3.6016,3.6016,3.5762,3.541,3.4961,3.3558,3.2467,3.2226,3.0241,2.8952,2.8952,2.737,2.6167,2.5828,2.4245,2.3794,2.5119,2.3493,2.2295,2.1991,2.1402,2.1109,2.1109,2.1109,2.1109,2.1109,2.1109,2.1109,1.9492,1.9922,0.0,2.3066,2.3848,2.4629,2.6875,0.0,0.0,0.0,3.4258,3.3848,3.3496,3.5,0.0,3.5449,3.7168,3.8672,3.8926,3.9199,3.9277,3.8984,3.9199,3.9062,3.8262,3.8496,3.8379,3.7598,3.7617,3.7461,3.6953,3.7012,3.6816,3.6289,3.6621,3.6543,3.6035,3.6113,3.5898,3.5391,3.5469,3.5488,3.5488,3.543,3.5527,3.5723,3.4824,3.4609,3.4844,3.4375,3.4199,3.4219,3.4375,3.418,3.3867,3.4297,3.4453,3.4492,3.4766,3.498,3.5156,3.541,3.5137,3.4805,3.5332,3.5312,3.5078,3.4922,3.5312,3.5664,3.5234,3.5566,3.6016,3.6016,3.6016,3.6016,3.6016,3.6016,3.6016,3.6016,3.6016,3.6016,3.6016,3.6016,3.5957,3.5801,3.5254,3.4502,3.3538,3.2077,3.0889,3.0232,2.8296,2.7105,2.7105,2.5398,2.4137,2.3954,2.2786,2.238,2.2878,2.2112,2.1416,2.1122,2.1109,2.1109,2.1109,2.1109,2.1109,2.1109,2.1109,2.1109,2.0488,2.1035,0.0,2.5352,2.5449,0.0,2.873,3.1269,3.3769,3.6601,0.0,3.6738,3.7305,3.7109,3.6953,3.7305,3.8047,3.8555,3.8516,3.8555,3.8574,3.8574,3.8535,3.8516,3.8516,3.8125,3.7851,3.7812,3.7461,3.7226,3.7187,3.6777,3.6562,3.6562,3.6133,3.5898,3.5898,3.5527,3.5312,3.5273,3.4883,3.4668,3.4648,3.5078,3.5254,3.5176,3.4414,3.4043,3.3984,3.3594,3.3418,3.3457,3.3867,3.3769,3.3476,3.3867,3.4043,3.4082,3.4082,3.4316,3.4648,3.4687,3.4648,3.459,3.4668,3.4668,3.457,3.418,3.4687,3.5234,3.4766,3.5273,3.5898,3.5898,3.5937,3.5957,3.5918,3.5898,3.5918,3.5957,3.5957,3.5976,3.6016,3.6016,3.5859,3.5123,3.4347,3.3249,3.1348,3.0633,2.9752,2.8163,2.6306,2.5248,2.5248,2.3509,2.2298,2.2004,2.171,2.1416,2.1122,2.1363,2.139,2.1109,2.1109,2.1109,2.1109,2.1109,2.1109,2.1109,2.1109,2.1109,2.168,2.2168,0.0,0.0,2.5918,2.8516,3.2539,3.3887,3.4668,3.6016,3.5957,3.6211,3.7969,3.8223,3.8086,3.7832,3.8242,3.8457,3.8105,3.8359,3.8574,3.8574,3.8281,3.8066,3.8066,3.7676,3.7305,3.6973,3.6855,3.666,3.6309,3.5898,3.5664,3.5664,3.5215,3.498,3.498,3.4902,3.4687,0.0,3.459,3.4531,3.4219,3.4316,3.418,3.3848,3.4004,3.3887,3.3555,3.3457,3.3418,3.3437,3.3516,3.3496,3.3437,3.3535,3.3769,3.4082,3.4082,3.4141,3.4258,3.459,3.4238,3.3828,3.4492,3.4473,3.418,3.4101,3.4453,3.4746,3.4316,3.459,3.498,3.498,3.5254,3.543,3.5059,3.498,3.5098,3.5449,3.5527,3.5625,3.5957,3.6016,3.5336,3.3192,3.2372,3.1276,2.9121,2.7551,2.6439,2.6172,2.4452,2.3393,2.3393,2.2849,2.2298,2.2004,2.171,2.1416,2.1122,2.1176,2.1176,2.1109,2.1109,2.1109,2.1109,2.1109,2.1109,2.1109,2.1109,2.1109,2.123,0.0,0.0,2.6289,0.0,3.1289,3.332,3.4434,3.5273,3.6152,3.6309,3.6641,3.7754,3.7969,3.7891,3.7656,3.7812,3.7891,3.7656,3.7812,3.7969,3.7969,3.7754,3.7617,3.7617,3.7246,3.6914,3.668,3.6484,3.6172,3.5742,3.5508,3.5293,3.5078,3.4824,3.4707,3.4707,3.4492,3.4297,3.4082,3.4082,3.3984,3.3769,3.3984,3.3828,3.3437,3.3672,3.3633,3.3418,3.3418,3.3418,3.3418,3.3418,3.3418,3.3418,3.3418,3.3555,3.375,3.375,3.375,3.3789,3.4023,3.3789,3.3496,3.3945,3.3926,3.375,3.375,3.4062,3.4336,3.4121,3.4394,3.4648,3.4453,3.4746,3.5,3.4746,3.4707,3.4766,3.5019,3.5059,3.5137,3.5351,3.4528,3.3289,3.1896,3.069,2.9172,2.7137,2.6039,2.5113,2.4317,2.3393,2.2859,2.2859,2.2592,2.2352,2.2205,2.179,2.1483,2.1323,2.1189,2.1109,2.1109,2.1109,2.1109,2.1109,2.1109,2.1109,2.1109,2.1109,2.1109,2.0137,0.0,2.543,2.916,3.1426,0.0,3.2969,3.4062,3.5312,3.625,3.6836,3.7207,3.7285,3.7305,3.7266,3.7207,3.7246,3.7266,3.7207,3.7246,3.7305,3.7305,3.7226,3.7226,3.7285,3.6855,3.6582,3.666,3.6191,3.5762,3.541,3.5254,3.5,3.4609,3.4512,3.4473,3.4473,3.4141,3.3965,3.3945,3.3516,3.3281,3.3223,3.3574,3.3594,3.332,3.3379,3.334,3.3203,3.3281,3.332,3.332,3.332,3.3359,3.3418,3.3418,3.3418,3.3418,3.3418,3.3418,3.3418,3.3418,3.3418,3.3418,3.3418,3.3418,3.3418,3.3418,3.3691,3.3965,3.3965,3.4219,3.4394,3.4043,3.4219,3.4473,3.4473,3.4473,3.4492,3.457,3.4648,3.4556,3.4293,3.273,3.1253,3.0575,2.8925,2.7105,2.5248,2.4979,2.4452,2.2996,2.2859,2.2846,2.2792,2.2512,2.2325,2.2271,2.1777,2.147,2.147,2.1243,2.1109,2.1109,2.1109,2.1109,2.1109,2.1109,2.1109,2.1109,2.1109,2.1109,1.9316,0.0,2.5742,0.0,2.9863,3.0762,0.0,0.0,3.4043,0.0,3.6191,3.6875,3.7226,3.7305,3.7187,3.6816,3.7051,3.7168,3.6816,3.707,3.7305,3.7305,3.6973,3.6894,3.7266,3.6582,3.6269,3.6641,3.5918,3.5449,3.5391,3.4668,3.4219,3.416,3.3789,3.3594,3.3594,3.3535,3.3516,3.3496,3.3086,3.2695,3.2344,3.2402,3.2598,3.2891,3.3262,3.3008,3.2363,3.2734,3.2871,3.2871,3.2871,3.3105,3.3418,3.3418,3.3418,3.3418,3.3418,3.3418,3.3418,3.3418,3.3418,3.3418,3.3418,3.3418,3.3418,3.3418,3.3457,3.3516,3.3516,3.3555,3.3574,3.3516,3.3555,3.3594,3.3594,3.3594,3.3711,3.4082,3.4453,3.4162,3.2666,3.192,3.031,2.7358,2.6252,2.5248,2.3529,2.3256,2.3133,2.2859,2.2859,2.2752,2.2498,2.2205,2.1937,2.1683,2.1349,2.1162,2.1162,2.1136,2.1109,2.1109,2.1109,2.1109,2.1109,2.1109,2.1109,2.1109,2.1109,2.1109,2.0625,2.2519,2.4707,0.0,2.9394,2.9414,3.291,3.3008,3.2851,3.4648,3.5508,3.6074,3.6504,3.6582,3.6523,3.6348,3.6465,3.6523,3.6328,3.6465,3.6484,3.625,3.6074,3.6035,3.6211,3.5664,3.5469,3.5918,3.5371,3.4902,3.4668,3.4277,3.3965,3.3711,3.3301,3.3066,3.3066,3.2832,3.2715,3.2715,3.2539,3.2344,3.2168,3.2168,3.2266,3.2461,3.2637,3.2519,3.2187,3.2363,3.2441,3.2441,3.2441,3.2695,3.3066,3.3066,3.3223,3.3418,3.3418,3.3418,3.3418,3.3418,3.3418,3.3418,3.3418,3.3418,3.3418,3.3418,3.3418,3.3418,3.3418,3.3418,3.3418,3.3418,3.3418,3.3418,3.3418,3.3418,3.3204,3.2335,3.2375,3.1967,3.0258,2.891,2.7595,2.5997,2.481,2.3788,2.2996,2.2859,2.2806,2.2632,2.2766,2.2739,2.2445,2.2458,2.2418,2.2298,2.1857,2.1603,2.1603,2.1283,2.1109,2.1109,2.1109,2.1109,2.1109,2.1109,2.1109,2.1109,2.1109,2.1109,0.0,0.0,2.3047,2.8008,2.7949,2.7617,0.0,0.0,3.1426,3.3476,3.459,3.5312,3.5625,3.5879,3.5996,3.5879,3.5859,3.582,3.5703,3.5684,3.5566,3.5254,3.5215,3.5215,3.5215,3.4902,3.4844,3.5195,3.4687,3.4238,3.3926,3.3711,3.3437,3.3105,3.2793,3.2637,3.2637,3.2324,3.2109,3.2012,3.2012,3.1953,3.1836,3.1836,3.1836,3.1855,3.207,3.2051,3.1855,3.1953,3.2012,3.2012,3.2012,3.2266,3.2637,3.2637,3.2832,3.3105,3.3105,3.3105,3.3105,3.3105,3.3184,3.3262,3.3262,3.334,3.3418,3.3418,3.3418,3.3418,3.3418,3.3418,3.3418,3.3418,3.3418,3.3292,3.2892,3.3146,3.2892,3.1176,3.0771,3.0254,2.8558,2.6706,2.5383,2.4844,2.3802,2.2832,2.2752,2.2819,2.2752,2.2458,2.2686,2.2712,2.2338,2.2512,2.2579,2.2432,2.2004,2.1764,2.1764,2.1336,2.1109,2.1109,2.1109,2.1109,2.1109,2.1109,2.1109,2.1109,2.1109,2.0843,0.0,1.9453,0.0,2.3965,2.4375,2.4687,2.7363,2.8535,2.9551,3.1328,3.3301,3.4746,3.4766,3.5449,3.5898,3.5488,3.543,3.5273,3.4824,3.4766,3.4766,3.4746,3.4726,3.4726,3.4726,3.4707,3.4707,3.4726,3.3965,3.3476,3.3457,3.2695,3.2266,3.2226,3.2207,3.2207,3.2207,3.2187,3.1953,3.1562,3.1562,3.1348,3.0957,3.0957,3.0957,3.0996,3.1816,3.1719,3.0996,3.1387,3.1562,3.1562,3.1562,3.1816,3.2207,3.2207,3.2207,3.2226,3.2226,3.2226,3.2226,3.2226,3.25,3.2832,3.2832,3.3105,3.3418,3.3418,3.3418,3.3418,3.3418,3.3418,3.3418,3.3418,3.3418,3.2892,3.1304,3.2237,3.2892,3.1176,3.0771,3.0254,2.8558,2.6706,2.4979,2.3256,2.2996,2.2766,2.2472,2.2686,2.2752,2.2458,2.2686,2.2632,2.2058,2.2017,2.179,2.1243,2.1176,2.1149,2.1149,2.1122,2.1109,2.1109,2.1109,2.1109,2.1109,2.1109,2.1109,2.1109,2.1109,2.0195,0.0,0.0,1.9141,2.2715,2.2656,2.2539,2.5703,2.709,2.7949,2.8867,3.1621,3.3633,3.2812,3.4043,3.5117,3.4961,3.4941,3.4883,3.4726,3.4707,3.459,3.4336,3.4297,3.4297,3.4297,3.4043,3.3887,3.3887,3.2305,3.1719,3.2578,3.1269,3.1016,3.2129,3.1894,3.1621,3.1348,3.1348,3.1269,3.1113,3.1113,3.1035,3.0898,3.0898,3.0898,3.0918,3.1211,3.1172,3.0898,3.1055,3.1113,3.1113,3.1113,3.1367,3.1758,3.1758,3.1934,3.2168,3.2168,3.2168,3.2168,3.2168,3.2461,3.2793,3.2793,3.2891,3.3066,3.334,3.3223,3.3086,3.3359,3.3418,3.3146,3.1963,3.0918,2.9605,2.7751,2.9717,3.09,2.8015,2.7354,2.6823,2.5128,2.4331,2.3665,2.2996,2.2859,2.2819,2.2712,2.2792,2.2752,2.2458,2.2512,2.2418,2.2017,2.1991,2.1897,2.1683,2.1496,2.139,2.139,2.139,2.1309,2.1109,2.0246,2.0246,2.1109,1.9941,1.9419,1.9419,1.8244,1.7474,1.7168,0.0,0.0,2.0508,2.0449,2.0469,2.334,2.5234,2.6562,2.7305,3.0293,3.2559,3.1855,3.2891,3.3984,3.4414,3.4492,3.4394,3.4101,3.418,3.4062,3.3496,3.3555,3.3594,3.3457,3.3164,3.3008,3.3008,3.1543,0.0,3.1894,3.0723,3.0547,3.1699,3.1465,3.1172,3.0898,3.0898,3.0898,3.0898,3.0898,3.0898,3.0898,3.0898,3.0898,3.0898,3.0898,3.0898,3.0898,3.0898,3.0898,3.0898,3.0898,3.1055,3.1309,3.1309,3.1484,3.1738,3.1738,3.1738,3.1738,3.1738,3.2031,3.2363,3.2363,3.2461,3.2637,3.293,3.291,3.2727,3.2352,3.1903,3.1267,3.0236,2.898,2.7621,2.5889,2.7883,2.9065,2.6039,2.5517,2.5113,2.3924,2.3256,2.2859,2.2859,2.2859,2.2792,2.2592,2.2659,2.2605,2.2298,2.2271,2.2191,2.2004,2.1897,2.1804,2.1697,2.151,2.1403,2.1403,2.1496,2.1146,2.0208,1.9419,1.916,1.9291,1.8244,1.7602,1.7602,1.6431,1.5524,0.0,0.0,0.0,1.7129,1.7676,1.8437,2.0098,2.2812,2.5332,2.6621,2.9297,3.1543,3.1992,3.2109,3.2559,3.3809,3.4023,3.373,3.2891,3.3125,3.3086,3.2266,3.2519,3.2617,3.2207,3.2168,3.2168,3.2148,3.1699,3.1465,3.1504,3.1113,3.0898,3.0898,3.0879,3.0859,3.0859,3.0859,3.0859,3.0859,3.0859,3.0879,3.0898,3.0898,3.0898,3.0898,3.0898,3.0898,3.0898,3.0898,3.0898,3.0898,3.0898,3.0898,3.0898,3.0898,3.0898,3.0898,3.0898,3.0898,3.0898,3.0898,3.1172,3.1523,3.1523,3.1816,3.2148,3.2168,3.2441,3.2238,3.0573,2.8887,2.7701,2.8048,2.7866,2.7198,2.5695,2.6839,2.7503,2.5771,2.5383,2.5383,2.5383,2.406,2.2859,2.2859,2.2859,2.2645,2.2084,2.2245,2.2311,2.2031,2.1991,2.1977,2.1977,2.171,2.1416,2.1122,2.1109,2.1109,2.1109,2.139,2.0618,1.8512,1.8759,1.7848,1.5784,1.5784,1.5784,1.5784,1.5784,1.4884,1.541,0.0,0.0,0.0,0.0,0.0,1.8535,2.0566,2.2578,2.3555,2.6406,2.8945,2.9687,3.084,3.1914,3.2578,3.2695,3.2617,3.2383,3.2441,3.2422,3.2207,3.2266,3.2285,3.2187,3.2168,3.2031,0.0,3.041,3.0059,3.1016,3.0957,3.0898,3.0898,3.0566,3.0391,3.0391,3.0078,3.0078,3.0391,3.0391,3.0566,3.0898,3.0898,3.0898,3.0898,3.0898,3.0898,3.0898,3.0898,3.0898,3.0898,3.0898,3.0898,3.0898,3.0898,3.0898,3.0898,3.0898,3.0898,3.0898,3.0898,3.1172,3.1523,3.1523,3.1601,3.1517,3.0672,3.023,2.9788,2.8438,2.684,2.5458,2.555,2.4656,2.3742,2.3306,2.3905,2.4196,2.3652,2.3665,2.3665,2.3665,2.3256,2.2859,2.2859,2.2672,2.2565,2.2619,2.2498,2.2392,2.2311,2.2111,2.1897,2.1697,2.1403,2.1203,2.1109,2.1109,2.1109,2.1109,2.0206,1.9301,1.8512,1.6398,1.4827,1.397,1.397,1.397,1.397,1.2668,1.1894,0.0,0.0,0.0,0.0,0.0,0.0,1.7832,1.9961,2.2051,2.3086,2.5918,2.8223,2.8379,2.9219,3.0,3.0254,3.0293,3.0664,3.1738,3.2051,3.2031,3.168,3.1797,3.1836,3.166,3.1641,3.1445,3.0996,3.0019,2.9707,3.0312,3.0332,3.0332,3.0332,3.0078,2.9941,2.9941,2.9687,2.9687,2.9941,2.9941,3.0078,3.0332,3.0332,3.0332,3.0332,3.0332,3.0449,3.0605,3.0605,3.0723,3.0898,3.0898,3.0898,3.0898,3.0898,3.0898,3.0898,3.0898,3.0898,3.0898,3.0898,3.0565,3.0244,3.0244,2.9748,2.9064,2.8289,2.7569,2.6877,2.6358,2.4827,2.335,2.3479,2.2794,2.2084,2.2218,2.2472,2.2712,2.2832,2.2859,2.2859,2.2859,2.2859,2.2859,2.2859,2.2605,2.2485,2.2659,2.2311,2.2111,2.2218,2.1871,2.1657,2.1724,2.1349,2.1162,2.1283,2.1176,2.1109,2.1109,1.9807,1.8511,1.7474,1.5082,1.3244,1.2281,1.2281,1.2281,1.215,1.1108,1.0717,0.0,0.0,0.0,0.0,1.6096,0.0,1.7519,1.9863,2.2207,2.3633,2.6055,2.7773,2.7324,2.7246,2.7246,2.7305,2.7344,2.8242,3.0742,3.1543,3.1543,3.0644,3.0996,3.1152,3.0781,3.0742,3.0566,3.0156,3.0137,2.9961,2.959,2.957,2.957,2.957,2.9531,2.9492,2.9492,2.9453,2.9453,2.9492,2.9492,2.9531,2.957,2.957,2.957,2.957,2.957,2.9785,3.0137,3.0137,3.043,3.0898,3.0898,3.0898,3.0898,3.0898,3.0898,3.0898,3.0898,3.0898,3.0898,3.0898,2.9785,2.8426,2.8426,2.7314,2.5984,2.5741,2.475,2.3813,2.4094,2.2835,2.1563,2.183,2.1724,2.163,2.1884,2.2164,2.2445,2.2712,2.2819,2.2859,2.2859,2.2859,2.2859,2.2859,2.2579,2.2378,2.2418,2.1911,2.1657,2.1911,2.147,2.1363,2.1844,2.1403,2.1229,2.1483,2.1256,2.0982,2.0843,1.9382,1.7695,1.5664,1.4139,1.2578,1.0744,1.0731,1.0717,1.0717,1.0717,1.0717,0.0,0.0,0.0,0.0,0.0,0.0,1.6387,1.6894,1.7988,2.0312,2.1269,2.2266,2.418,2.4551,2.4648,2.5,2.5352,2.623,2.8144,2.9375,2.9629,2.8437,2.9277,2.9922,2.9844,2.9824,2.9785,2.9707,2.9687,2.9648,2.957,2.957,2.957,2.957,2.9219,2.9043,2.9043,2.8711,2.8711,2.9043,2.9043,2.9238,2.957,2.957,2.957,2.957,2.957,2.9609,2.9687,2.9687,3.0156,3.0898,3.0898,3.0898,3.0898,3.0898,3.0898,3.0898,3.0898,3.0898,3.0898,3.0898,2.9785,2.8426,2.8426,2.7314,2.5741,2.4409,2.287,2.1696,2.1765,2.1484,2.1203,2.1269,2.1416,2.1563,2.163,2.1871,2.2084,2.2151,2.2539,2.2859,2.2859,2.2859,2.2859,2.2859,2.2405,2.2151,2.2392,2.1911,2.1577,2.163,2.1537,2.1416,2.1296,2.1176,2.1136,2.1189,2.1149,2.0462,1.9024,1.7389,1.5694,1.384,1.2188,1.1206,1.09,1.0778,1.0717,1.0717,1.0717,1.0717,0.0,0.0,0.0,1.5722,0.0,0.0,0.0,1.6728,1.748,1.9263,2.0293,2.1094,2.1738,2.1855,2.1992,2.2422,2.2676,2.3203,2.4297,2.6855,2.8613,2.8613,2.918,2.957,2.957,2.957,2.9473,2.9258,2.9043,2.8926,2.8926,2.8926,2.8926,2.8926,2.8711,2.8613,2.8613,2.8398,2.8398,2.8613,2.8613,2.873,2.8926,2.8926,2.8926,2.8926,2.8926,2.9043,2.9238,2.9238,2.9629,3.0254,3.0469,3.0684,3.0898,3.0898,3.0898,3.0762,2.9903,2.9648,2.953,2.8683,2.7331,2.6001,2.6001,2.4901,2.3435,2.2591,2.1727,2.1109,2.1109,2.1109,2.1109,2.1109,2.1229,2.1336,2.1336,2.1563,2.1764,2.1764,2.2245,2.2592,2.2445,2.2418,2.2418,2.2418,2.2058,2.1871,2.2164,2.1697,2.139,2.1537,2.1416,2.139,2.1537,2.1416,2.0991,2.0345,2.009,1.9169,1.7216,1.5524,1.384,1.2025,1.1108,1.0758,1.0833,1.0758,1.0717,1.0717,1.0717,1.0717,0.0,0.0,0.0,0.0,0.0,1.5352,0.0,0.0,0.0,1.8033,1.9543,2.0235,1.9029,1.9078,1.9341,1.9616,1.9885,2.0293,2.0898,2.4043,2.6738,2.7949,2.8242,2.8359,2.8457,2.8691,2.875,2.8574,2.832,2.8144,2.8047,2.8125,2.8125,2.8047,2.8203,2.8262,2.8184,2.8262,2.8301,2.8301,2.8203,2.8223,2.8301,2.8203,2.8223,2.8301,2.8301,2.8476,2.8789,2.8462,2.8603,2.9138,2.9789,3.0178,3.0161,3.0238,3.0159,2.9672,2.839,2.7931,2.7692,2.647,2.4901,2.3574,2.3201,2.2215,2.1109,2.1109,2.1109,2.1109,2.1109,2.1109,2.1109,2.1109,2.1109,2.1109,2.1109,2.1296,2.147,2.147,2.1844,2.2124,2.2004,2.2031,2.2044,2.1991,2.1737,2.163,2.1871,2.1443,2.1229,2.1523,2.1283,2.1323,2.1857,2.1423,2.0577,1.9326,1.8742,1.7489,1.5463,1.3735,1.2165,1.0765,1.0738,1.0731,1.0765,1.0731,1.0717,1.0717,1.0717,1.0717,0.0,0.0,0.0,0.0,1.4363,0.0,0.0,0.0,1.4313,1.4241,0.0,1.5824,1.5083,0.0,0.0,1.6196,1.7301,1.8711,1.9902,2.082,2.1719,2.2656,2.3418,2.4023,2.4414,2.5488,2.6465,2.7168,2.7539,2.7578,2.7187,2.7519,2.7559,2.7168,2.7891,2.8125,2.7734,2.8105,2.8301,2.8281,2.791,2.793,2.8281,2.791,2.793,2.8301,2.8301,2.832,2.8252,2.7008,2.6683,2.7233,2.9007,2.8861,2.7779,2.801,2.7299,2.6135,2.6231,2.6227,2.6227,2.6106,2.4901,2.3325,2.1853,2.1235,2.1109,2.1109,2.1109,2.1109,2.1109,2.1109,2.1109,2.1109,2.1109,2.1109,2.1109,2.1136,2.1162,2.1162,2.1216,2.1416,2.1897,2.2205,2.2285,2.2031,2.1737,2.1563,2.159,2.1309,2.1229,2.1523,2.1283,2.1243,2.1577,1.998,1.8912,1.8804,1.7324,1.5585,1.3837,1.1969,1.0912,1.0921,1.0785,1.0785,1.0921,1.0785,1.0717,1.0717,1.0717,1.0717,0.0,0.0,0.0,0.0,0.0,0.0,1.5129,0.0,1.3504,0.0,0.0,0.0,0.0,0.0,0.0,0.0,1.5009,1.5734,1.654,1.6845,1.823,2.1851,2.2559,0.0,2.4414,2.4355,2.4707,2.5801,2.6055,2.6074,2.5898,2.6777,2.7207,2.7031,2.7363,2.7461,2.7285,2.7461,2.7559,2.7539,2.7363,2.7383,2.7539,2.6598,2.6617,2.7539,2.6664,2.648,2.6579,2.5918,2.5392,2.5078,2.5922,2.6144,2.6088,2.6127,2.5829,2.5175,2.4595,2.4358,2.4146,2.336,2.2702,2.1978,2.1362,2.1109,2.1109,2.1109,2.1109,2.1109,2.1109,2.1109,2.1109,2.1109,2.1109,2.1109,2.1109,2.1109,2.1109,2.1109,2.1256,2.139,2.147,2.1577,2.1617,2.1496,2.1376,2.1296,2.1296,2.1336,2.1349,2.1296,2.1336,2.1018,2.0215,1.9292,1.7971,1.5982,1.4024,1.2656,1.1866,1.115,1.0751,1.0812,1.0751,1.0751,1.0812,1.0751,1.0717,1.0717,1.0717,1.0717,1.4078,0.0,0.0,0.0,0.0,0.0,0.0,0.0,0.0,0.0,0.0,0.0,0.0,0.0,0.0,0.0,0.0,1.37,1.4095,1.4128,1.5653,1.9916,2.111,0.0,0.0,2.2648,2.294,2.35,2.4098,2.4481,2.4551,2.5996,2.6797,2.666,2.6894,2.6953,2.6836,2.6953,2.7012,2.7012,2.6468,2.6366,2.6359,2.4972,2.4869,2.5844,2.4873,2.4492,2.4632,2.4312,2.367,2.3007,2.256,2.2938,2.3589,2.4017,2.3933,2.3544,2.2689,2.253,2.24,2.1407,2.1109,2.1109,2.1109,2.1109,2.1109,2.1109,2.1109,2.1109,2.1109,2.1109,2.1109,2.1109,2.1109,2.1109,2.1109,2.1109,2.1109,2.1109,2.1283,2.1363,2.1149,2.1176,2.1203,2.1122,2.1109,2.1109,2.1109,2.09,2.0721,2.0592,2.0297,1.9609,1.8365,1.784,1.6247,1.321,1.1636,1.0765,1.0724,1.0758,1.0765,1.0717,1.0758,1.0765,1.0717,1.0717,1.0717,1.0717,1.0717,1.0717,0.0,0.0,0.0,1.329,0.0,0.0,0.0,0.0,1.219,0.0,0.0,0.0,0.0,0.0,0.0,0.0,0.0,0.0,0.0,1.3617,1.398,1.5002,1.7764,1.8734,0.0,1.9426,2.0903,1.9654,2.1497,2.2825,2.3135,2.5234,2.6211,2.5801,2.6582,2.6816,2.6406,2.6816,2.7012,2.7012,2.521,2.4597,2.4959,2.322,2.2628,2.3068,2.2961,2.2961,2.2872,2.1479,2.1027,2.0996,1.9583,1.9233,1.9761,2.1525,2.1174,2.0012,2.059,2.098,2.1222,2.1109,2.1109,2.1109,2.1109,2.1109,2.1109,2.1109,2.1109,2.1109,2.1109,2.1109,2.1109,2.1109,2.1109,2.1109,2.1109,2.1109,2.1109,2.1109,2.1122,2.1122,2.1109,2.1349,2.1443,2.1149,2.1109,2.1109,2.1109,1.9686,1.8747,1.8995,1.7228,1.6145,1.6491,1.4796,1.2941,1.1077,1.0941,1.0873,1.0724,1.086,1.0873,1.0724,1.0867,1.0867,1.0717,1.0717,1.0717,1.0717,1.0717,1.0717,0.0,0.0,1.6246,1.5538,0.0,0.0,0.0,0.0,0.0,0.0,0.0,0.0,0.0,0.0,0.0,0.0,0.0,0.0,0.0,1.1134,1.1163,1.1648,1.4015,1.5653,1.5945,1.6381,1.6736,1.7005,1.7852,1.8497,1.878,2.1738,2.3447,2.3486,2.4361,2.4746,2.4616,2.3907,2.3472,2.3454,2.2909,2.2622,2.2724,2.1187,2.1084,2.2022,2.1091,2.0814,2.1031,2.0499,2.007,1.9569,1.9145,1.9105,1.9488,2.0034,1.9959,1.9599,2.0187,2.0695,2.1109,2.1109,2.1109,2.1109,2.1109,2.1109,2.1109,2.1109,2.1109,2.1109,2.1109,2.1109,2.1109,2.1109,2.1109,2.1109,2.1109,2.1109,2.1109,2.1109,2.1109,2.1109,2.1109,2.1189,2.1229,2.1122,2.1109,2.0716,1.9546,1.9052,1.8335,1.7077,1.6488,1.5712,1.4463,1.2632,1.1452,1.0799,1.0799,1.0772,1.0724,1.0772,1.0772,1.0724,1.0772,1.0772,1.0717,1.0717,1.0717,1.0717,1.0717,1.0717,1.658,1.7021,0.0,1.654,1.5965,0.0,1.5057,0.0,1.3066,0.0,0.0,0.0,0.0,0.0,0.0,0.0,0.0,0.0,0.0,0.9806,0.9753,0.994,1.2193,1.3851,1.3958,1.4112,1.4229,1.4379,1.4911,1.5484,1.6071,1.923,2.1141,2.1392,2.2426,2.2968,2.2968,2.2165,2.1744,2.1643,2.1135,2.0947,2.0947,1.9524,1.942,2.0231,1.9317,1.9031,1.9233,1.9348,1.9069,1.8784,1.8878,1.9105,1.9372,1.9372,1.9439,1.9586,2.0067,2.0548,2.0975,2.1082,2.1109,2.1109,2.1109,2.1109,2.1136,2.1243,2.1189,2.1136,2.1243,2.1189,2.1109,2.1109,2.1109,2.1109,2.1109,2.1109,2.1109,2.1109,2.1109,2.1109,2.1109,2.0589,2.0322,2.0982,2.0589,1.9801,1.864,1.7607,1.6467,1.5154,1.4603,1.3848,1.2553,1.1372,1.0717,1.0717,1.0717,1.0717,1.0717,1.0772,1.0826,1.0873,1.0826,1.0826,1.088,1.0772,1.0717,1.0717,1.0717,1.0717]}]]